<?xml version="1.0" encoding="UTF-8" standalone="no" ?><gpx xmlns="http://www.topografix.com/GPX/1/1" xmlns:gpxx="http://www.garmin.com/xmlschemas/GpxExtensions/v3" xmlns:gpxtrkx="http://www.garmin.com/xmlschemas/TrackStatsExtension/v1" xmlns:wptx1="http://www.garmin.com/xmlschemas/WaypointExtension/v1" xmlns:gpxtpx="http://www.garmin.com/xmlschemas/TrackPointExtension/v1" creator="GPSMAP 78s" version="1.1" xmlns:xsi="http://www.w3.org/2001/XMLSchema-instance" xsi:schemaLocation="http://www.topografix.com/GPX/1/1 http://www.topografix.com/GPX/1/1/gpx.xsd http://www.garmin.com/xmlschemas/GpxExtensions/v3 http://www8.garmin.com/xmlschemas/GpxExtensionsv3.xsd http://www.garmin.com/xmlschemas/TrackStatsExtension/v1 http://www8.garmin.com/xmlschemas/TrackStatsExtension.xsd http://www.garmin.com/xmlschemas/WaypointExtension/v1 http://www8.garmin.com/xmlschemas/WaypointExtensionv1.xsd http://www.garmin.com/xmlschemas/TrackPointExtension/v1 http://www.garmin.com/xmlschemas/TrackPointExtensionv1.xsd"><metadata><link href="http://www.garmin.com"><text>Garmin International</text></link><time>2026-04-25T14:45:23Z</time></metadata><trk><name>СТАСЕВИЧ25 17:44:50</name><extensions><gpxx:TrackExtension><gpxx:DisplayColor>Blue</gpxx:DisplayColor></gpxx:TrackExtension></extensions><trkseg><trkpt lat="59.0923315287" lon="29.9873010535"><ele>-16.69</ele><time>2026-04-25T06:08:46Z</time></trkpt><trkpt lat="59.0923305228" lon="29.9873037357"><ele>-16.69</ele><time>2026-04-25T06:08:47Z</time></trkpt><trkpt lat="59.0923270863" lon="29.9872899055"><ele>80.41</ele><time>2026-04-25T06:08:50Z</time></trkpt><trkpt lat="59.0923289303" lon="29.9872885644"><ele>80.41</ele><time>2026-04-25T06:08:51Z</time></trkpt><trkpt lat="59.0923318639" lon="29.9873234332"><ele>80.41</ele><time>2026-04-25T06:09:07Z</time></trkpt><trkpt lat="59.0923539083" lon="29.9873119500"><ele>85.21</ele><time>2026-04-25T06:09:27Z</time></trkpt><trkpt lat="59.0923535731" lon="29.9873173982"><ele>84.73</ele><time>2026-04-25T06:09:28Z</time></trkpt><trkpt lat="59.0923522320" lon="29.9873065017"><ele>84.73</ele><time>2026-04-25T06:09:43Z</time></trkpt><trkpt lat="59.0923504718" lon="29.9872848764"><ele>83.77</ele><time>2026-04-25T06:09:59Z</time></trkpt><trkpt lat="59.0923441853" lon="29.9872212578"><ele>84.73</ele><time>2026-04-25T06:10:12Z</time></trkpt><trkpt lat="59.0923855919" lon="29.9871913344"><ele>82.33</ele><time>2026-04-25T06:10:42Z</time></trkpt><trkpt lat="59.0923791379" lon="29.9871738162"><ele>81.37</ele><time>2026-04-25T06:11:09Z</time></trkpt><trkpt lat="59.0923729353" lon="29.9871770013"><ele>79.93</ele><time>2026-04-25T06:11:45Z</time></trkpt><trkpt lat="59.0923738573" lon="29.9871901609"><ele>79.45</ele><time>2026-04-25T06:12:12Z</time></trkpt><trkpt lat="59.0923831612" lon="29.9871952739"><ele>78.97</ele><time>2026-04-25T06:12:33Z</time></trkpt><trkpt lat="59.0923845023" lon="29.9872058351"><ele>78.00</ele><time>2026-04-25T06:12:54Z</time></trkpt><trkpt lat="59.0924028587" lon="29.9872093555"><ele>76.56</ele><time>2026-04-25T06:13:25Z</time></trkpt><trkpt lat="59.0923895314" lon="29.9871954415"><ele>77.04</ele><time>2026-04-25T06:13:52Z</time></trkpt><trkpt lat="59.0924016014" lon="29.9871828686"><ele>77.52</ele><time>2026-04-25T06:14:23Z</time></trkpt><trkpt lat="59.0923801437" lon="29.9872168154"><ele>77.52</ele><time>2026-04-25T06:14:50Z</time></trkpt><trkpt lat="59.0923710912" lon="29.9871956930"><ele>77.04</ele><time>2026-04-25T06:15:14Z</time></trkpt><trkpt lat="59.0923649725" lon="29.9872218445"><ele>76.56</ele><time>2026-04-25T06:15:42Z</time></trkpt><trkpt lat="59.0923648048" lon="29.9872190785"><ele>76.08</ele><time>2026-04-25T06:16:03Z</time></trkpt><trkpt lat="59.0923915431" lon="29.9872288015"><ele>74.64</ele><time>2026-04-25T06:16:31Z</time></trkpt><trkpt lat="59.0923839994" lon="29.9872140493"><ele>71.76</ele><time>2026-04-25T06:16:45Z</time></trkpt><trkpt lat="59.0923764557" lon="29.9872091878"><ele>68.87</ele><time>2026-04-25T06:17:04Z</time></trkpt><trkpt lat="59.0923609491" lon="29.9872254487"><ele>68.87</ele><time>2026-04-25T06:17:27Z</time></trkpt><trkpt lat="59.0923788864" lon="29.9872433022"><ele>70.31</ele><time>2026-04-25T06:17:54Z</time></trkpt><trkpt lat="59.0923728514" lon="29.9872199167"><ele>71.27</ele><time>2026-04-25T06:18:15Z</time></trkpt><trkpt lat="59.0923528187" lon="29.9872117862"><ele>74.16</ele><time>2026-04-25T06:18:51Z</time></trkpt><trkpt lat="59.0923721809" lon="29.9872190785"><ele>76.56</ele><time>2026-04-25T06:19:26Z</time></trkpt><trkpt lat="59.0924036130" lon="29.9872351717"><ele>78.00</ele><time>2026-04-25T06:19:52Z</time></trkpt><trkpt lat="59.0923974942" lon="29.9872034881"><ele>79.45</ele><time>2026-04-25T06:20:13Z</time></trkpt><trkpt lat="59.0924165212" lon="29.9872112833"><ele>81.37</ele><time>2026-04-25T06:20:34Z</time></trkpt><trkpt lat="59.0923990030" lon="29.9872131273"><ele>81.85</ele><time>2026-04-25T06:21:02Z</time></trkpt><trkpt lat="59.0923736896" lon="29.9872294720"><ele>82.33</ele><time>2026-04-25T06:21:32Z</time></trkpt><trkpt lat="59.0923655592" lon="29.9872201681"><ele>82.81</ele><time>2026-04-25T06:21:55Z</time></trkpt><trkpt lat="59.0923703369" lon="29.9872204196"><ele>82.33</ele><time>2026-04-25T06:22:24Z</time></trkpt><trkpt lat="59.0923687443" lon="29.9872465711"><ele>80.89</ele><time>2026-04-25T06:22:51Z</time></trkpt><trkpt lat="59.0923424251" lon="29.9872563779"><ele>79.93</ele><time>2026-04-25T06:23:12Z</time></trkpt><trkpt lat="59.0923491307" lon="29.9872375187"><ele>79.45</ele><time>2026-04-25T06:23:36Z</time></trkpt><trkpt lat="59.0923440177" lon="29.9872115348"><ele>79.45</ele><time>2026-04-25T06:24:01Z</time></trkpt><trkpt lat="59.0923497174" lon="29.9872123729"><ele>79.93</ele><time>2026-04-25T06:24:30Z</time></trkpt><trkpt lat="59.0923450235" lon="29.9872241914"><ele>81.37</ele><time>2026-04-25T06:24:55Z</time></trkpt><trkpt lat="59.0923329536" lon="29.9872162286"><ele>82.33</ele><time>2026-04-25T06:25:19Z</time></trkpt><trkpt lat="59.0923206322" lon="29.9871987943"><ele>82.33</ele><time>2026-04-25T06:25:47Z</time></trkpt><trkpt lat="59.0923087299" lon="29.9872086011"><ele>82.33</ele><time>2026-04-25T06:26:23Z</time></trkpt><trkpt lat="59.0923161060" lon="29.9872187432"><ele>81.37</ele><time>2026-04-25T06:26:31Z</time></trkpt><trkpt lat="59.0923125017" lon="29.9872734770"><ele>73.68</ele><time>2026-04-25T06:26:40Z</time></trkpt><trkpt lat="59.0923133399" lon="29.9872789253"><ele>81.37</ele><time>2026-04-25T06:26:41Z</time></trkpt><trkpt lat="59.0923233144" lon="29.9872751534"><ele>84.25</ele><time>2026-04-25T06:26:52Z</time></trkpt><trkpt lat="59.0923680738" lon="29.9872635026"><ele>79.45</ele><time>2026-04-25T06:27:12Z</time></trkpt><trkpt lat="59.0923666488" lon="29.9872648437"><ele>84.25</ele><time>2026-04-25T06:27:13Z</time></trkpt><trkpt lat="59.0923841670" lon="29.9873729702"><ele>83.77</ele><time>2026-04-25T06:27:34Z</time></trkpt><trkpt lat="59.0923819039" lon="29.9875283707"><ele>83.29</ele><time>2026-04-25T06:27:43Z</time></trkpt><trkpt lat="59.0924555808" lon="29.9878752138"><ele>83.29</ele><time>2026-04-25T06:28:00Z</time></trkpt><trkpt lat="59.0924731828" lon="29.9880380742"><ele>82.81</ele><time>2026-04-25T06:28:08Z</time></trkpt><trkpt lat="59.0925056208" lon="29.9882666487"><ele>82.81</ele><time>2026-04-25T06:28:22Z</time></trkpt><trkpt lat="59.0925510507" lon="29.9885145854"><ele>82.81</ele><time>2026-04-25T06:28:35Z</time></trkpt><trkpt lat="59.0925967321" lon="29.9887668807"><ele>82.81</ele><time>2026-04-25T06:28:48Z</time></trkpt><trkpt lat="59.0926709957" lon="29.9890009873"><ele>82.33</ele><time>2026-04-25T06:29:02Z</time></trkpt><trkpt lat="59.0926961415" lon="29.9892415479"><ele>82.33</ele><time>2026-04-25T06:29:15Z</time></trkpt><trkpt lat="59.0927292500" lon="29.9894490838"><ele>81.85</ele><time>2026-04-25T06:29:26Z</time></trkpt><trkpt lat="59.0928115603" lon="29.9897836056"><ele>81.37</ele><time>2026-04-25T06:29:41Z</time></trkpt><trkpt lat="59.0928592533" lon="29.9901503976"><ele>80.89</ele><time>2026-04-25T06:29:57Z</time></trkpt><trkpt lat="59.0928673837" lon="29.9901901279"><ele>77.52</ele><time>2026-04-25T06:29:59Z</time></trkpt><trkpt lat="59.0928794537" lon="29.9902695045"><ele>80.89</ele><time>2026-04-25T06:30:02Z</time></trkpt><trkpt lat="59.0929535497" lon="29.9906027690"><ele>79.93</ele><time>2026-04-25T06:30:20Z</time></trkpt><trkpt lat="59.0929890890" lon="29.9908724986"><ele>79.93</ele><time>2026-04-25T06:30:33Z</time></trkpt><trkpt lat="59.0930324234" lon="29.9911905080"><ele>79.45</ele><time>2026-04-25T06:30:47Z</time></trkpt><trkpt lat="59.0930971317" lon="29.9915014766"><ele>78.97</ele><time>2026-04-25T06:31:00Z</time></trkpt><trkpt lat="59.0931003168" lon="29.9915194139"><ele>78.97</ele><time>2026-04-25T06:31:01Z</time></trkpt><trkpt lat="59.0931338444" lon="29.9916757364"><ele>78.48</ele><time>2026-04-25T06:31:09Z</time></trkpt><trkpt lat="59.0932137240" lon="29.9920084141"><ele>78.00</ele><time>2026-04-25T06:31:23Z</time></trkpt><trkpt lat="59.0932687093" lon="29.9923069775"><ele>78.00</ele><time>2026-04-25T06:31:37Z</time></trkpt><trkpt lat="59.0933086071" lon="29.9925570935"><ele>77.52</ele><time>2026-04-25T06:31:48Z</time></trkpt><trkpt lat="59.0933547914" lon="29.9928275775"><ele>77.52</ele><time>2026-04-25T06:32:02Z</time></trkpt><trkpt lat="59.0934112854" lon="29.9931709003"><ele>77.52</ele><time>2026-04-25T06:32:16Z</time></trkpt><trkpt lat="59.0934628341" lon="29.9935179949"><ele>77.52</ele><time>2026-04-25T06:32:31Z</time></trkpt><trkpt lat="59.0934796818" lon="29.9935997184"><ele>77.04</ele><time>2026-04-25T06:32:35Z</time></trkpt><trkpt lat="59.0934883151" lon="29.9936678633"><ele>77.04</ele><time>2026-04-25T06:32:38Z</time></trkpt><trkpt lat="59.0935650934" lon="29.9939822685"><ele>77.52</ele><time>2026-04-25T06:32:53Z</time></trkpt><trkpt lat="59.0936112776" lon="29.9943288602"><ele>77.04</ele><time>2026-04-25T06:33:09Z</time></trkpt><trkpt lat="59.0936686099" lon="29.9946157727"><ele>76.56</ele><time>2026-04-25T06:33:22Z</time></trkpt><trkpt lat="59.0937423706" lon="29.9949061219"><ele>76.56</ele><time>2026-04-25T06:33:38Z</time></trkpt><trkpt lat="59.0938040614" lon="29.9951402284"><ele>76.08</ele><time>2026-04-25T06:33:52Z</time></trkpt><trkpt lat="59.0938625671" lon="29.9954958726"><ele>75.60</ele><time>2026-04-25T06:34:08Z</time></trkpt><trkpt lat="59.0938938316" lon="29.9958363455"><ele>75.60</ele><time>2026-04-25T06:34:21Z</time></trkpt><trkpt lat="59.0939378366" lon="29.9961674307"><ele>75.12</ele><time>2026-04-25T06:34:35Z</time></trkpt><trkpt lat="59.0939544328" lon="29.9963376671"><ele>75.12</ele><time>2026-04-25T06:34:48Z</time></trkpt><trkpt lat="59.0939525049" lon="29.9963674229"><ele>74.64</ele><time>2026-04-25T06:35:03Z</time></trkpt><trkpt lat="59.0939470567" lon="29.9964374118"><ele>74.16</ele><time>2026-04-25T06:35:25Z</time></trkpt><trkpt lat="59.0939532593" lon="29.9964285269"><ele>73.68</ele><time>2026-04-25T06:35:45Z</time></trkpt><trkpt lat="59.0939620603" lon="29.9964938220"><ele>73.20</ele><time>2026-04-25T06:36:05Z</time></trkpt><trkpt lat="59.0939515829" lon="29.9965065625"><ele>72.72</ele><time>2026-04-25T06:36:32Z</time></trkpt><trkpt lat="59.0940145310" lon="29.9967063032"><ele>72.72</ele><time>2026-04-25T06:36:45Z</time></trkpt><trkpt lat="59.0940440353" lon="29.9968622904"><ele>72.24</ele><time>2026-04-25T06:36:59Z</time></trkpt><trkpt lat="59.0940595418" lon="29.9970573373"><ele>72.24</ele><time>2026-04-25T06:37:20Z</time></trkpt><trkpt lat="59.0941086598" lon="29.9973427411"><ele>72.72</ele><time>2026-04-25T06:37:36Z</time></trkpt><trkpt lat="59.0941660758" lon="29.9975905940"><ele>72.72</ele><time>2026-04-25T06:37:51Z</time></trkpt><trkpt lat="59.0942350589" lon="29.9977373611"><ele>72.72</ele><time>2026-04-25T06:38:05Z</time></trkpt><trkpt lat="59.0942204744" lon="29.9978986289"><ele>73.20</ele><time>2026-04-25T06:38:28Z</time></trkpt><trkpt lat="59.0942648984" lon="29.9981279578"><ele>73.20</ele><time>2026-04-25T06:38:41Z</time></trkpt><trkpt lat="59.0943045449" lon="29.9984090868"><ele>72.72</ele><time>2026-04-25T06:38:56Z</time></trkpt><trkpt lat="59.0943342168" lon="29.9986084085"><ele>73.20</ele><time>2026-04-25T06:39:11Z</time></trkpt><trkpt lat="59.0943545848" lon="29.9986661598"><ele>70.31</ele><time>2026-04-25T06:39:14Z</time></trkpt><trkpt lat="59.0943604521" lon="29.9986799061"><ele>73.20</ele><time>2026-04-25T06:39:15Z</time></trkpt><trkpt lat="59.0944109950" lon="29.9988262542"><ele>71.76</ele><time>2026-04-25T06:39:22Z</time></trkpt><trkpt lat="59.0944467857" lon="29.9989442714"><ele>68.39</ele><time>2026-04-25T06:39:31Z</time></trkpt><trkpt lat="59.0945045371" lon="29.9992306810"><ele>70.31</ele><time>2026-04-25T06:39:48Z</time></trkpt><trkpt lat="59.0945658926" lon="29.9995446671"><ele>70.31</ele><time>2026-04-25T06:40:05Z</time></trkpt><trkpt lat="59.0946486220" lon="29.9999071844"><ele>71.76</ele><time>2026-04-25T06:40:23Z</time></trkpt><trkpt lat="59.0946684033" lon="30.0001481641"><ele>72.24</ele><time>2026-04-25T06:40:41Z</time></trkpt><trkpt lat="59.0947005898" lon="30.0003075879"><ele>73.20</ele><time>2026-04-25T06:40:56Z</time></trkpt><trkpt lat="59.0947388113" lon="30.0007216539"><ele>73.20</ele><time>2026-04-25T06:41:12Z</time></trkpt><trkpt lat="59.0947989933" lon="30.0008997694"><ele>73.68</ele><time>2026-04-25T06:41:24Z</time></trkpt><trkpt lat="59.0948450100" lon="30.0011988357"><ele>74.16</ele><time>2026-04-25T06:41:38Z</time></trkpt><trkpt lat="59.0948514640" lon="30.0012369733"><ele>69.83</ele><time>2026-04-25T06:41:40Z</time></trkpt><trkpt lat="59.0948550683" lon="30.0012572575"><ele>72.72</ele><time>2026-04-25T06:41:41Z</time></trkpt><trkpt lat="59.0948940441" lon="30.0014131609"><ele>74.16</ele><time>2026-04-25T06:41:47Z</time></trkpt><trkpt lat="59.0949540585" lon="30.0016036816"><ele>70.79</ele><time>2026-04-25T06:41:56Z</time></trkpt><trkpt lat="59.0950092953" lon="30.0018798653"><ele>73.20</ele><time>2026-04-25T06:42:11Z</time></trkpt><trkpt lat="59.0950529650" lon="30.0019331742"><ele>73.68</ele><time>2026-04-25T06:42:32Z</time></trkpt><trkpt lat="59.0949864127" lon="30.0019267201"><ele>73.20</ele><time>2026-04-25T06:42:49Z</time></trkpt><trkpt lat="59.0949797910" lon="30.0021304004"><ele>73.20</ele><time>2026-04-25T06:43:06Z</time></trkpt><trkpt lat="59.0950582456" lon="30.0024859607"><ele>73.68</ele><time>2026-04-25T06:43:23Z</time></trkpt><trkpt lat="59.0951198526" lon="30.0028265174"><ele>73.68</ele><time>2026-04-25T06:43:38Z</time></trkpt><trkpt lat="59.0951817110" lon="30.0031125080"><ele>73.68</ele><time>2026-04-25T06:43:52Z</time></trkpt><trkpt lat="59.0951786935" lon="30.0031907111"><ele>74.16</ele><time>2026-04-25T06:44:08Z</time></trkpt><trkpt lat="59.0952363610" lon="30.0032932218"><ele>73.20</ele><time>2026-04-25T06:44:37Z</time></trkpt><trkpt lat="59.0951958764" lon="30.0033279229"><ele>74.16</ele><time>2026-04-25T06:44:58Z</time></trkpt><trkpt lat="59.0952123050" lon="30.0033290964"><ele>73.68</ele><time>2026-04-25T06:45:10Z</time></trkpt><trkpt lat="59.0952146519" lon="30.0033842493"><ele>74.16</ele><time>2026-04-25T06:45:16Z</time></trkpt><trkpt lat="59.0952893347" lon="30.0036375504"><ele>74.64</ele><time>2026-04-25T06:45:29Z</time></trkpt><trkpt lat="59.0953139775" lon="30.0037771091"><ele>74.16</ele><time>2026-04-25T06:45:37Z</time></trkpt><trkpt lat="59.0953439847" lon="30.0039945357"><ele>74.64</ele><time>2026-04-25T06:45:48Z</time></trkpt><trkpt lat="59.0953991376" lon="30.0042973738"><ele>76.08</ele><time>2026-04-25T06:46:03Z</time></trkpt><trkpt lat="59.0954425558" lon="30.0044810213"><ele>75.60</ele><time>2026-04-25T06:46:12Z</time></trkpt><trkpt lat="59.0954889916" lon="30.0047660898"><ele>76.08</ele><time>2026-04-25T06:46:24Z</time></trkpt><trkpt lat="59.0955247823" lon="30.0049566105"><ele>75.60</ele><time>2026-04-25T06:46:38Z</time></trkpt><trkpt lat="59.0956100263" lon="30.0053103268"><ele>76.56</ele><time>2026-04-25T06:46:55Z</time></trkpt><trkpt lat="59.0956187434" lon="30.0053656474"><ele>76.08</ele><time>2026-04-25T06:46:58Z</time></trkpt><trkpt lat="59.0956508461" lon="30.0054667331"><ele>76.08</ele><time>2026-04-25T06:47:03Z</time></trkpt><trkpt lat="59.0956593957" lon="30.0058740098"><ele>75.60</ele><time>2026-04-25T06:47:17Z</time></trkpt><trkpt lat="59.0957117826" lon="30.0061982218"><ele>76.08</ele><time>2026-04-25T06:47:31Z</time></trkpt><trkpt lat="59.0957904886" lon="30.0065391138"><ele>76.08</ele><time>2026-04-25T06:47:47Z</time></trkpt><trkpt lat="59.0958277043" lon="30.0068620685"><ele>76.08</ele><time>2026-04-25T06:48:00Z</time></trkpt><trkpt lat="59.0958965197" lon="30.0071027968"><ele>75.60</ele><time>2026-04-25T06:48:14Z</time></trkpt><trkpt lat="59.0959427878" lon="30.0075608678"><ele>75.12</ele><time>2026-04-25T06:48:31Z</time></trkpt><trkpt lat="59.0959986951" lon="30.0078513846"><ele>75.12</ele><time>2026-04-25T06:48:45Z</time></trkpt><trkpt lat="59.0960599668" lon="30.0082351081"><ele>75.60</ele><time>2026-04-25T06:48:59Z</time></trkpt><trkpt lat="59.0960807540" lon="30.0084953662"><ele>75.12</ele><time>2026-04-25T06:49:12Z</time></trkpt><trkpt lat="59.0961536765" lon="30.0088045746"><ele>74.64</ele><time>2026-04-25T06:49:26Z</time></trkpt><trkpt lat="59.0962033812" lon="30.0090643298"><ele>75.12</ele><time>2026-04-25T06:49:39Z</time></trkpt><trkpt lat="59.0962631442" lon="30.0093644019"><ele>74.16</ele><time>2026-04-25T06:49:54Z</time></trkpt><trkpt lat="59.0963582788" lon="30.0096222293"><ele>74.16</ele><time>2026-04-25T06:50:08Z</time></trkpt><trkpt lat="59.0964326262" lon="30.0100352895"><ele>74.16</ele><time>2026-04-25T06:50:24Z</time></trkpt><trkpt lat="59.0964709315" lon="30.0104377884"><ele>74.16</ele><time>2026-04-25T06:50:40Z</time></trkpt><trkpt lat="59.0965448599" lon="30.0108252838"><ele>73.68</ele><time>2026-04-25T06:50:57Z</time></trkpt><trkpt lat="59.0965503920" lon="30.0108479150"><ele>73.20</ele><time>2026-04-25T06:50:58Z</time></trkpt><trkpt lat="59.0965906251" lon="30.0111682713"><ele>70.31</ele><time>2026-04-25T06:51:13Z</time></trkpt><trkpt lat="59.0965959895" lon="30.0111891422"><ele>71.76</ele><time>2026-04-25T06:51:14Z</time></trkpt><trkpt lat="59.0966078080" lon="30.0112369191"><ele>72.72</ele><time>2026-04-25T06:51:16Z</time></trkpt><trkpt lat="59.0966710076" lon="30.0114583690"><ele>69.35</ele><time>2026-04-25T06:51:25Z</time></trkpt><trkpt lat="59.0967037808" lon="30.0117577706"><ele>67.43</ele><time>2026-04-25T06:51:38Z</time></trkpt><trkpt lat="59.0967051219" lon="30.0117769651"><ele>67.43</ele><time>2026-04-25T06:51:39Z</time></trkpt><trkpt lat="59.0967075527" lon="30.0118280109"><ele>67.43</ele><time>2026-04-25T06:51:42Z</time></trkpt><trkpt lat="59.0967401583" lon="30.0120432582"><ele>65.03</ele><time>2026-04-25T06:51:52Z</time></trkpt><trkpt lat="59.0967389010" lon="30.0120817311"><ele>66.47</ele><time>2026-04-25T06:51:54Z</time></trkpt><trkpt lat="59.0967892762" lon="30.0123925321"><ele>67.43</ele><time>2026-04-25T06:52:07Z</time></trkpt><trkpt lat="59.0968179423" lon="30.0125584099"><ele>67.91</ele><time>2026-04-25T06:52:14Z</time></trkpt><trkpt lat="59.0968247317" lon="30.0126082823"><ele>67.91</ele><time>2026-04-25T06:52:16Z</time></trkpt><trkpt lat="59.0968860872" lon="30.0129903294"><ele>68.39</ele><time>2026-04-25T06:52:34Z</time></trkpt><trkpt lat="59.0969699901" lon="30.0133300480"><ele>67.91</ele><time>2026-04-25T06:52:49Z</time></trkpt><trkpt lat="59.0970379673" lon="30.0136613846"><ele>69.35</ele><time>2026-04-25T06:53:03Z</time></trkpt><trkpt lat="59.0970731713" lon="30.0139188766"><ele>70.31</ele><time>2026-04-25T06:53:19Z</time></trkpt><trkpt lat="59.0970955510" lon="30.0140619557"><ele>70.79</ele><time>2026-04-25T06:53:32Z</time></trkpt><trkpt lat="59.0970784519" lon="30.0141528156"><ele>70.31</ele><time>2026-04-25T06:54:02Z</time></trkpt><trkpt lat="59.0971204452" lon="30.0142834894"><ele>70.79</ele><time>2026-04-25T06:54:22Z</time></trkpt><trkpt lat="59.0971708205" lon="30.0145811308"><ele>70.79</ele><time>2026-04-25T06:54:36Z</time></trkpt><trkpt lat="59.0972229559" lon="30.0148464181"><ele>70.79</ele><time>2026-04-25T06:54:49Z</time></trkpt><trkpt lat="59.0972746722" lon="30.0151433889"><ele>70.79</ele><time>2026-04-25T06:55:05Z</time></trkpt><trkpt lat="59.0973592456" lon="30.0154923275"><ele>70.31</ele><time>2026-04-25T06:55:22Z</time></trkpt><trkpt lat="59.0973915998" lon="30.0156371668"><ele>70.31</ele><time>2026-04-25T06:55:29Z</time></trkpt><trkpt lat="59.0974325873" lon="30.0159081537"><ele>70.31</ele><time>2026-04-25T06:55:43Z</time></trkpt><trkpt lat="59.0974616725" lon="30.0160793960"><ele>66.95</ele><time>2026-04-25T06:55:50Z</time></trkpt><trkpt lat="59.0974672884" lon="30.0161025301"><ele>69.35</ele><time>2026-04-25T06:55:51Z</time></trkpt><trkpt lat="59.0975500178" lon="30.0164028537"><ele>67.43</ele><time>2026-04-25T06:56:05Z</time></trkpt><trkpt lat="59.0975638479" lon="30.0165128242"><ele>64.07</ele><time>2026-04-25T06:56:10Z</time></trkpt><trkpt lat="59.0975725651" lon="30.0165640377"><ele>67.43</ele><time>2026-04-25T06:56:12Z</time></trkpt><trkpt lat="59.0975777619" lon="30.0165937096"><ele>67.43</ele><time>2026-04-25T06:56:13Z</time></trkpt><trkpt lat="59.0976598207" lon="30.0170079432"><ele>68.87</ele><time>2026-04-25T06:56:30Z</time></trkpt><trkpt lat="59.0976853855" lon="30.0173718855"><ele>69.35</ele><time>2026-04-25T06:56:45Z</time></trkpt><trkpt lat="59.0977196675" lon="30.0175836962"><ele>70.79</ele><time>2026-04-25T06:56:57Z</time></trkpt><trkpt lat="59.0977723897" lon="30.0177955907"><ele>71.27</ele><time>2026-04-25T06:57:07Z</time></trkpt><trkpt lat="59.0978215076" lon="30.0180421863"><ele>67.43</ele><time>2026-04-25T06:57:20Z</time></trkpt><trkpt lat="59.0978273749" lon="30.0180655718"><ele>67.43</ele><time>2026-04-25T06:57:21Z</time></trkpt><trkpt lat="59.0978508443" lon="30.0181629695"><ele>70.79</ele><time>2026-04-25T06:57:25Z</time></trkpt><trkpt lat="59.0978520177" lon="30.0181815773"><ele>70.79</ele><time>2026-04-25T06:57:26Z</time></trkpt><trkpt lat="59.0978909936" lon="30.0183910411"><ele>68.39</ele><time>2026-04-25T06:57:35Z</time></trkpt><trkpt lat="59.0979282930" lon="30.0187111460"><ele>65.03</ele><time>2026-04-25T06:57:48Z</time></trkpt><trkpt lat="59.0979264490" lon="30.0187386386"><ele>66.47</ele><time>2026-04-25T06:57:49Z</time></trkpt><trkpt lat="59.0979784168" lon="30.0190114696"><ele>63.10</ele><time>2026-04-25T06:58:02Z</time></trkpt><trkpt lat="59.0979761537" lon="30.0190626830"><ele>63.10</ele><time>2026-04-25T06:58:05Z</time></trkpt><trkpt lat="59.0979639161" lon="30.0191289000"><ele>62.62</ele><time>2026-04-25T06:58:09Z</time></trkpt><trkpt lat="59.0980154648" lon="30.0193629228"><ele>62.62</ele><time>2026-04-25T06:58:22Z</time></trkpt><trkpt lat="59.0980579611" lon="30.0196770765"><ele>64.55</ele><time>2026-04-25T06:58:36Z</time></trkpt><trkpt lat="59.0981224179" lon="30.0199839380"><ele>65.99</ele><time>2026-04-25T06:58:51Z</time></trkpt><trkpt lat="59.0981484856" lon="30.0201632269"><ele>64.55</ele><time>2026-04-25T06:59:03Z</time></trkpt><trkpt lat="59.0981758106" lon="30.0202006940"><ele>67.91</ele><time>2026-04-25T06:59:09Z</time></trkpt><trkpt lat="59.0982203186" lon="30.0204363931"><ele>65.99</ele><time>2026-04-25T06:59:20Z</time></trkpt><trkpt lat="59.0982582886" lon="30.0206374750"><ele>65.51</ele><time>2026-04-25T06:59:32Z</time></trkpt><trkpt lat="59.0982804168" lon="30.0208308455"><ele>68.39</ele><time>2026-04-25T06:59:42Z</time></trkpt><trkpt lat="59.0982655808" lon="30.0208946317"><ele>67.43</ele><time>2026-04-25T06:59:46Z</time></trkpt><trkpt lat="59.0983192250" lon="30.0210464280"><ele>66.95</ele><time>2026-04-25T06:59:51Z</time></trkpt><trkpt lat="59.0983271878" lon="30.0212007388"><ele>67.43</ele><time>2026-04-25T06:59:58Z</time></trkpt><trkpt lat="59.0983411018" lon="30.0212770142"><ele>66.47</ele><time>2026-04-25T07:00:01Z</time></trkpt><trkpt lat="59.0983857773" lon="30.0213920139"><ele>66.47</ele><time>2026-04-25T07:00:07Z</time></trkpt><trkpt lat="59.0983984340" lon="30.0214262959"><ele>67.91</ele><time>2026-04-25T07:00:10Z</time></trkpt><trkpt lat="59.0984381642" lon="30.0217466522"><ele>69.35</ele><time>2026-04-25T07:00:25Z</time></trkpt><trkpt lat="59.0984830074" lon="30.0221154559"><ele>71.27</ele><time>2026-04-25T07:00:40Z</time></trkpt><trkpt lat="59.0985411778" lon="30.0223897956"><ele>72.72</ele><time>2026-04-25T07:00:56Z</time></trkpt><trkpt lat="59.0985870268" lon="30.0224918872"><ele>74.16</ele><time>2026-04-25T07:01:09Z</time></trkpt><trkpt lat="59.0986019466" lon="30.0227372255"><ele>74.16</ele><time>2026-04-25T07:01:25Z</time></trkpt><trkpt lat="59.0986394137" lon="30.0229266565"><ele>74.64</ele><time>2026-04-25T07:01:40Z</time></trkpt><trkpt lat="59.0986627992" lon="30.0230813865"><ele>75.60</ele><time>2026-04-25T07:01:54Z</time></trkpt><trkpt lat="59.0987179521" lon="30.0232302491"><ele>75.60</ele><time>2026-04-25T07:02:18Z</time></trkpt><trkpt lat="59.0987482946" lon="30.0235420559"><ele>75.60</ele><time>2026-04-25T07:02:33Z</time></trkpt><trkpt lat="59.0987462830" lon="30.0235634297"><ele>75.60</ele><time>2026-04-25T07:02:46Z</time></trkpt><trkpt lat="59.0987387393" lon="30.0235219393"><ele>75.60</ele><time>2026-04-25T07:02:59Z</time></trkpt><trkpt lat="59.0987294354" lon="30.0234900042"><ele>75.60</ele><time>2026-04-25T07:03:16Z</time></trkpt><trkpt lat="59.0987182874" lon="30.0235142279"><ele>74.16</ele><time>2026-04-25T07:03:24Z</time></trkpt><trkpt lat="59.0987131745" lon="30.0235169940"><ele>70.79</ele><time>2026-04-25T07:03:26Z</time></trkpt><trkpt lat="59.0987107437" lon="30.0235120486"><ele>70.79</ele><time>2026-04-25T07:03:27Z</time></trkpt><trkpt lat="59.0986874420" lon="30.0235608313"><ele>74.16</ele><time>2026-04-25T07:03:33Z</time></trkpt><trkpt lat="59.0986716002" lon="30.0234537106"><ele>71.27</ele><time>2026-04-25T07:03:47Z</time></trkpt><trkpt lat="59.0986516513" lon="30.0234121364"><ele>74.16</ele><time>2026-04-25T07:04:04Z</time></trkpt><trkpt lat="59.0985561814" lon="30.0237345882"><ele>72.72</ele><time>2026-04-25T07:04:21Z</time></trkpt><trkpt lat="59.0985213965" lon="30.0237891544"><ele>73.68</ele><time>2026-04-25T07:04:38Z</time></trkpt><trkpt lat="59.0984741226" lon="30.0236309879"><ele>74.16</ele><time>2026-04-25T07:04:54Z</time></trkpt><trkpt lat="59.0984579455" lon="30.0236173254"><ele>73.20</ele><time>2026-04-25T07:05:00Z</time></trkpt><trkpt lat="59.0984506533" lon="30.0236009806"><ele>75.12</ele><time>2026-04-25T07:05:03Z</time></trkpt><trkpt lat="59.0983665828" lon="30.0235712249"><ele>75.12</ele><time>2026-04-25T07:05:21Z</time></trkpt><trkpt lat="59.0983018745" lon="30.0234778505"><ele>68.39</ele><time>2026-04-25T07:05:33Z</time></trkpt><trkpt lat="59.0982983541" lon="30.0234715641"><ele>75.60</ele><time>2026-04-25T07:05:34Z</time></trkpt><trkpt lat="59.0982956719" lon="30.0234568119"><ele>75.60</ele><time>2026-04-25T07:05:35Z</time></trkpt><trkpt lat="59.0982762258" lon="30.0234581530"><ele>65.99</ele><time>2026-04-25T07:05:47Z</time></trkpt><trkpt lat="59.0982769802" lon="30.0234632660"><ele>74.64</ele><time>2026-04-25T07:05:48Z</time></trkpt><trkpt lat="59.0982882958" lon="30.0234685466"><ele>76.08</ele><time>2026-04-25T07:05:50Z</time></trkpt><trkpt lat="59.0982888825" lon="30.0234723184"><ele>53.01</ele><time>2026-04-25T07:05:51Z</time></trkpt><trkpt lat="59.0982907265" lon="30.0234748330"><ele>76.08</ele><time>2026-04-25T07:05:52Z</time></trkpt><trkpt lat="59.0982936602" lon="30.0234473404"><ele>75.60</ele><time>2026-04-25T07:06:13Z</time></trkpt><trkpt lat="59.0984224062" lon="30.0235708058"><ele>75.12</ele><time>2026-04-25T07:06:30Z</time></trkpt><trkpt lat="59.0984866954" lon="30.0235143956"><ele>72.24</ele><time>2026-04-25T07:06:45Z</time></trkpt><trkpt lat="59.0984930657" lon="30.0235223584"><ele>75.12</ele><time>2026-04-25T07:06:48Z</time></trkpt><trkpt lat="59.0984923951" lon="30.0235131383"><ele>75.60</ele><time>2026-04-25T07:06:52Z</time></trkpt><trkpt lat="59.0985154454" lon="30.0234095380"><ele>75.60</ele><time>2026-04-25T07:07:09Z</time></trkpt><trkpt lat="59.0984872822" lon="30.0233638566"><ele>73.20</ele><time>2026-04-25T07:07:23Z</time></trkpt><trkpt lat="59.0984760504" lon="30.0233988091"><ele>72.72</ele><time>2026-04-25T07:07:37Z</time></trkpt><trkpt lat="59.0984926466" lon="30.0231837295"><ele>70.79</ele><time>2026-04-25T07:07:54Z</time></trkpt><trkpt lat="59.0984950773" lon="30.0231364556"><ele>73.20</ele><time>2026-04-25T07:07:57Z</time></trkpt><trkpt lat="59.0984632261" lon="30.0229484495"><ele>71.76</ele><time>2026-04-25T07:08:13Z</time></trkpt><trkpt lat="59.0984219871" lon="30.0226876885"><ele>72.72</ele><time>2026-04-25T07:08:32Z</time></trkpt><trkpt lat="59.0984067321" lon="30.0225180387"><ele>72.72</ele><time>2026-04-25T07:08:51Z</time></trkpt><trkpt lat="59.0984228253" lon="30.0222073216"><ele>74.64</ele><time>2026-04-25T07:09:08Z</time></trkpt><trkpt lat="59.0983971767" lon="30.0220976025"><ele>71.76</ele><time>2026-04-25T07:09:19Z</time></trkpt><trkpt lat="59.0983784012" lon="30.0220819283"><ele>75.12</ele><time>2026-04-25T07:09:23Z</time></trkpt><trkpt lat="59.0983720310" lon="30.0220773183"><ele>75.12</ele><time>2026-04-25T07:09:24Z</time></trkpt><trkpt lat="59.0983273555" lon="30.0218391884"><ele>75.60</ele><time>2026-04-25T07:09:40Z</time></trkpt><trkpt lat="59.0983152017" lon="30.0215568859"><ele>75.60</ele><time>2026-04-25T07:09:58Z</time></trkpt><trkpt lat="59.0982617252" lon="30.0213885773"><ele>75.12</ele><time>2026-04-25T07:10:13Z</time></trkpt><trkpt lat="59.0982320532" lon="30.0212175865"><ele>74.64</ele><time>2026-04-25T07:10:29Z</time></trkpt><trkpt lat="59.0982356574" lon="30.0212134793"><ele>69.35</ele><time>2026-04-25T07:10:31Z</time></trkpt><trkpt lat="59.0982325561" lon="30.0212201010"><ele>69.35</ele><time>2026-04-25T07:10:32Z</time></trkpt><trkpt lat="59.0982494876" lon="30.0212197658"><ele>74.16</ele><time>2026-04-25T07:10:37Z</time></trkpt><trkpt lat="59.0982495714" lon="30.0212047622"><ele>75.12</ele><time>2026-04-25T07:10:39Z</time></trkpt><trkpt lat="59.0982042253" lon="30.0209546462"><ele>74.64</ele><time>2026-04-25T07:10:54Z</time></trkpt><trkpt lat="59.0982033033" lon="30.0209481083"><ele>69.83</ele><time>2026-04-25T07:10:57Z</time></trkpt><trkpt lat="59.0982059855" lon="30.0209455937"><ele>71.76</ele><time>2026-04-25T07:10:58Z</time></trkpt><trkpt lat="59.0981929097" lon="30.0209009182"><ele>74.64</ele><time>2026-04-25T07:11:05Z</time></trkpt><trkpt lat="59.0981631540" lon="30.0208239723"><ele>74.16</ele><time>2026-04-25T07:11:16Z</time></trkpt><trkpt lat="59.0981560294" lon="30.0208297558"><ele>72.24</ele><time>2026-04-25T07:11:18Z</time></trkpt><trkpt lat="59.0981724579" lon="30.0208439212"><ele>72.24</ele><time>2026-04-25T07:11:37Z</time></trkpt><trkpt lat="59.0981576219" lon="30.0208328571"><ele>71.27</ele><time>2026-04-25T07:11:54Z</time></trkpt><trkpt lat="59.0981299616" lon="30.0207945518"><ele>72.24</ele><time>2026-04-25T07:12:21Z</time></trkpt><trkpt lat="59.0981328953" lon="30.0207860861"><ele>71.76</ele><time>2026-04-25T07:12:51Z</time></trkpt><trkpt lat="59.0981276985" lon="30.0207792968"><ele>73.68</ele><time>2026-04-25T07:12:53Z</time></trkpt><trkpt lat="59.0981175564" lon="30.0207727589"><ele>72.24</ele><time>2026-04-25T07:12:55Z</time></trkpt><trkpt lat="59.0980955958" lon="30.0207474455"><ele>74.64</ele><time>2026-04-25T07:13:02Z</time></trkpt><trkpt lat="59.0980764851" lon="30.0207680650"><ele>70.79</ele><time>2026-04-25T07:13:26Z</time></trkpt><trkpt lat="59.0980726294" lon="30.0207629520"><ele>74.64</ele><time>2026-04-25T07:13:27Z</time></trkpt><trkpt lat="59.0981252678" lon="30.0208577514"><ele>76.08</ele><time>2026-04-25T07:13:33Z</time></trkpt><trkpt lat="59.0980624035" lon="30.0209051091"><ele>75.12</ele><time>2026-04-25T07:13:45Z</time></trkpt><trkpt lat="59.0979960188" lon="30.0209632795"><ele>74.64</ele><time>2026-04-25T07:14:01Z</time></trkpt><trkpt lat="59.0979538579" lon="30.0209982321"><ele>74.16</ele><time>2026-04-25T07:14:16Z</time></trkpt><trkpt lat="59.0978947654" lon="30.0209802110"><ele>74.16</ele><time>2026-04-25T07:14:34Z</time></trkpt><trkpt lat="59.0978248604" lon="30.0210263953"><ele>75.12</ele><time>2026-04-25T07:14:50Z</time></trkpt><trkpt lat="59.0977853816" lon="30.0211433228"><ele>75.12</ele><time>2026-04-25T07:15:12Z</time></trkpt><trkpt lat="59.0977148060" lon="30.0211623497"><ele>75.60</ele><time>2026-04-25T07:15:28Z</time></trkpt><trkpt lat="59.0976839606" lon="30.0210814644"><ele>76.08</ele><time>2026-04-25T07:15:42Z</time></trkpt><trkpt lat="59.0976240300" lon="30.0210965518"><ele>75.60</ele><time>2026-04-25T07:15:57Z</time></trkpt><trkpt lat="59.0975734033" lon="30.0210639462"><ele>76.08</ele><time>2026-04-25T07:16:14Z</time></trkpt><trkpt lat="59.0974787716" lon="30.0209627766"><ele>75.60</ele><time>2026-04-25T07:16:27Z</time></trkpt><trkpt lat="59.0974426456" lon="30.0209578313"><ele>71.27</ele><time>2026-04-25T07:16:32Z</time></trkpt><trkpt lat="59.0974710602" lon="30.0210139900"><ele>72.72</ele><time>2026-04-25T07:16:35Z</time></trkpt><trkpt lat="59.0974607505" lon="30.0210146606"><ele>76.56</ele><time>2026-04-25T07:16:43Z</time></trkpt><trkpt lat="59.0973999817" lon="30.0209538080"><ele>76.56</ele><time>2026-04-25T07:16:59Z</time></trkpt><trkpt lat="59.0973980539" lon="30.0209541433"><ele>71.76</ele><time>2026-04-25T07:17:00Z</time></trkpt><trkpt lat="59.0973949526" lon="30.0209566578"><ele>63.58</ele><time>2026-04-25T07:17:01Z</time></trkpt><trkpt lat="59.0973931085" lon="30.0209564064"><ele>77.04</ele><time>2026-04-25T07:17:02Z</time></trkpt><trkpt lat="59.0973891690" lon="30.0209532212"><ele>76.56</ele><time>2026-04-25T07:17:03Z</time></trkpt><trkpt lat="59.0973468404" lon="30.0209753495"><ele>72.72</ele><time>2026-04-25T07:17:12Z</time></trkpt><trkpt lat="59.0973405540" lon="30.0209800433"><ele>76.56</ele><time>2026-04-25T07:17:13Z</time></trkpt><trkpt lat="59.0972551424" lon="30.0209533051"><ele>76.08</ele><time>2026-04-25T07:17:32Z</time></trkpt><trkpt lat="59.0971748438" lon="30.0209305901"><ele>76.56</ele><time>2026-04-25T07:17:47Z</time></trkpt><trkpt lat="59.0971686412" lon="30.0209447555"><ele>74.64</ele><time>2026-04-25T07:17:50Z</time></trkpt><trkpt lat="59.0970947128" lon="30.0209058635"><ele>76.08</ele><time>2026-04-25T07:18:09Z</time></trkpt><trkpt lat="59.0970464330" lon="30.0209034327"><ele>76.56</ele><time>2026-04-25T07:18:20Z</time></trkpt><trkpt lat="59.0970462654" lon="30.0208937097"><ele>71.76</ele><time>2026-04-25T07:18:22Z</time></trkpt><trkpt lat="59.0970416553" lon="30.0208963919"><ele>73.68</ele><time>2026-04-25T07:18:23Z</time></trkpt><trkpt lat="59.0970354527" lon="30.0208995771"><ele>75.60</ele><time>2026-04-25T07:18:25Z</time></trkpt><trkpt lat="59.0969489515" lon="30.0208269060"><ele>76.08</ele><time>2026-04-25T07:18:45Z</time></trkpt><trkpt lat="59.0969485324" lon="30.0208247267"><ele>72.72</ele><time>2026-04-25T07:19:00Z</time></trkpt><trkpt lat="59.0969104785" lon="30.0208407361"><ele>73.68</ele><time>2026-04-25T07:19:08Z</time></trkpt><trkpt lat="59.0968824830" lon="30.0208666362"><ele>73.68</ele><time>2026-04-25T07:19:35Z</time></trkpt><trkpt lat="59.0968821477" lon="30.0208662171"><ele>69.35</ele><time>2026-04-25T07:19:36Z</time></trkpt><trkpt lat="59.0968836565" lon="30.0208658818"><ele>69.35</ele><time>2026-04-25T07:19:37Z</time></trkpt><trkpt lat="59.0969390608" lon="30.0208383892"><ele>68.87</ele><time>2026-04-25T07:20:05Z</time></trkpt><trkpt lat="59.0969481133" lon="30.0208402332"><ele>71.27</ele><time>2026-04-25T07:20:12Z</time></trkpt><trkpt lat="59.0969445929" lon="30.0208115671"><ele>72.24</ele><time>2026-04-25T07:20:38Z</time></trkpt><trkpt lat="59.0969154239" lon="30.0207963120"><ele>75.12</ele><time>2026-04-25T07:21:05Z</time></trkpt><trkpt lat="59.0968869254" lon="30.0208217930"><ele>76.56</ele><time>2026-04-25T07:21:30Z</time></trkpt><trkpt lat="59.0968057886" lon="30.0208590087"><ele>77.04</ele><time>2026-04-25T07:21:49Z</time></trkpt><trkpt lat="59.0967548266" lon="30.0208953861"><ele>77.52</ele><time>2026-04-25T07:22:05Z</time></trkpt><trkpt lat="59.0966491308" lon="30.0208901893"><ele>78.00</ele><time>2026-04-25T07:22:24Z</time></trkpt><trkpt lat="59.0966252424" lon="30.0209316798"><ele>78.00</ele><time>2026-04-25T07:22:35Z</time></trkpt><trkpt lat="59.0965987556" lon="30.0210331846"><ele>78.00</ele><time>2026-04-25T07:22:49Z</time></trkpt><trkpt lat="59.0965466201" lon="30.0210978929"><ele>78.00</ele><time>2026-04-25T07:23:06Z</time></trkpt><trkpt lat="59.0964761283" lon="30.0211507827"><ele>78.00</ele><time>2026-04-25T07:23:23Z</time></trkpt><trkpt lat="59.0964266751" lon="30.0211201888"><ele>78.00</ele><time>2026-04-25T07:23:41Z</time></trkpt><trkpt lat="59.0963514056" lon="30.0212438218"><ele>77.04</ele><time>2026-04-25T07:23:57Z</time></trkpt><trkpt lat="59.0963272657" lon="30.0212721527"><ele>72.72</ele><time>2026-04-25T07:24:02Z</time></trkpt><trkpt lat="59.0963261761" lon="30.0212838035"><ele>77.04</ele><time>2026-04-25T07:24:03Z</time></trkpt><trkpt lat="59.0962925646" lon="30.0213045068"><ele>77.52</ele><time>2026-04-25T07:24:19Z</time></trkpt><trkpt lat="59.0962396748" lon="30.0212984718"><ele>77.52</ele><time>2026-04-25T07:24:35Z</time></trkpt><trkpt lat="59.0961734578" lon="30.0213585701"><ele>76.08</ele><time>2026-04-25T07:24:57Z</time></trkpt><trkpt lat="59.0961293690" lon="30.0213968754"><ele>75.12</ele><time>2026-04-25T07:25:15Z</time></trkpt><trkpt lat="59.0961033851" lon="30.0214138068"><ele>76.56</ele><time>2026-04-25T07:25:25Z</time></trkpt><trkpt lat="59.0960421972" lon="30.0214142259"><ele>76.08</ele><time>2026-04-25T07:25:46Z</time></trkpt><trkpt lat="59.0959717054" lon="30.0214324147"><ele>77.04</ele><time>2026-04-25T07:26:02Z</time></trkpt><trkpt lat="59.0959402733" lon="30.0213699695"><ele>77.04</ele><time>2026-04-25T07:26:17Z</time></trkpt><trkpt lat="59.0958982799" lon="30.0214643497"><ele>77.04</ele><time>2026-04-25T07:26:30Z</time></trkpt><trkpt lat="59.0958271176" lon="30.0215746555"><ele>76.56</ele><time>2026-04-25T07:26:47Z</time></trkpt><trkpt lat="59.0958199091" lon="30.0215939339"><ele>73.20</ele><time>2026-04-25T07:26:50Z</time></trkpt><trkpt lat="59.0958178975" lon="30.0215985440"><ele>69.83</ele><time>2026-04-25T07:26:51Z</time></trkpt><trkpt lat="59.0958189033" lon="30.0216014776"><ele>73.68</ele><time>2026-04-25T07:26:52Z</time></trkpt><trkpt lat="59.0958197415" lon="30.0216114521"><ele>76.08</ele><time>2026-04-25T07:26:54Z</time></trkpt><trkpt lat="59.0958163049" lon="30.0216216780"><ele>74.16</ele><time>2026-04-25T07:26:56Z</time></trkpt><trkpt lat="59.0958152991" lon="30.0216277130"><ele>77.04</ele><time>2026-04-25T07:26:57Z</time></trkpt><trkpt lat="59.0958112758" lon="30.0217096042"><ele>72.24</ele><time>2026-04-25T07:27:12Z</time></trkpt><trkpt lat="59.0958106890" lon="30.0217163935"><ele>76.08</ele><time>2026-04-25T07:27:14Z</time></trkpt><trkpt lat="59.0958106890" lon="30.0217142981"><ele>77.52</ele><time>2026-04-25T07:27:16Z</time></trkpt><trkpt lat="59.0958096832" lon="30.0217827782"><ele>76.08</ele><time>2026-04-25T07:27:37Z</time></trkpt><trkpt lat="59.0958253574" lon="30.0217515137"><ele>76.08</ele><time>2026-04-25T07:28:05Z</time></trkpt><trkpt lat="59.0957821067" lon="30.0216722209"><ele>74.64</ele><time>2026-04-25T07:28:24Z</time></trkpt><trkpt lat="59.0957295522" lon="30.0216695387"><ele>71.76</ele><time>2026-04-25T07:28:37Z</time></trkpt><trkpt lat="59.0957236011" lon="30.0216593966"><ele>72.24</ele><time>2026-04-25T07:28:38Z</time></trkpt><trkpt lat="59.0957223438" lon="30.0216833688"><ele>75.12</ele><time>2026-04-25T07:28:40Z</time></trkpt><trkpt lat="59.0956714656" lon="30.0216470752"><ele>75.12</ele><time>2026-04-25T07:28:58Z</time></trkpt><trkpt lat="59.0956131276" lon="30.0216561276"><ele>75.60</ele><time>2026-04-25T07:29:14Z</time></trkpt><trkpt lat="59.0955527779" lon="30.0216588099"><ele>76.08</ele><time>2026-04-25T07:29:33Z</time></trkpt><trkpt lat="59.0955228545" lon="30.0216345862"><ele>76.56</ele><time>2026-04-25T07:29:51Z</time></trkpt><trkpt lat="59.0955062583" lon="30.0217317324"><ele>76.56</ele><time>2026-04-25T07:30:22Z</time></trkpt><trkpt lat="59.0954871476" lon="30.0216666050"><ele>76.56</ele><time>2026-04-25T07:30:49Z</time></trkpt><trkpt lat="59.0954171587" lon="30.0216575526"><ele>75.60</ele><time>2026-04-25T07:31:04Z</time></trkpt><trkpt lat="59.0953259636" lon="30.0216673594"><ele>76.56</ele><time>2026-04-25T07:31:21Z</time></trkpt><trkpt lat="59.0952816233" lon="30.0217307266"><ele>75.12</ele><time>2026-04-25T07:31:36Z</time></trkpt><trkpt lat="59.0952501073" lon="30.0217839517"><ele>76.08</ele><time>2026-04-25T07:31:50Z</time></trkpt><trkpt lat="59.0951819625" lon="30.0218323153"><ele>76.56</ele><time>2026-04-25T07:32:06Z</time></trkpt><trkpt lat="59.0951141529" lon="30.0218988676"><ele>76.56</ele><time>2026-04-25T07:32:22Z</time></trkpt><trkpt lat="59.0950815473" lon="30.0219136197"><ele>76.56</ele><time>2026-04-25T07:32:39Z</time></trkpt><trkpt lat="59.0950606763" lon="30.0218878873"><ele>76.56</ele><time>2026-04-25T07:32:55Z</time></trkpt><trkpt lat="59.0949872509" lon="30.0219259411"><ele>75.60</ele><time>2026-04-25T07:33:09Z</time></trkpt><trkpt lat="59.0949155856" lon="30.0219394360"><ele>77.04</ele><time>2026-04-25T07:33:27Z</time></trkpt><trkpt lat="59.0948479436" lon="30.0219659228"><ele>76.08</ele><time>2026-04-25T07:33:43Z</time></trkpt><trkpt lat="59.0948315151" lon="30.0220831018"><ele>76.56</ele><time>2026-04-25T07:33:59Z</time></trkpt><trkpt lat="59.0948295873" lon="30.0220878795"><ele>75.60</ele><time>2026-04-25T07:34:04Z</time></trkpt><trkpt lat="59.0948258992" lon="30.0220868737"><ele>77.04</ele><time>2026-04-25T07:34:07Z</time></trkpt><trkpt lat="59.0947938804" lon="30.0220589619"><ele>76.56</ele><time>2026-04-25T07:34:25Z</time></trkpt><trkpt lat="59.0947688185" lon="30.0220525078"><ele>76.56</ele><time>2026-04-25T07:34:44Z</time></trkpt><trkpt lat="59.0947307646" lon="30.0220256858"><ele>76.56</ele><time>2026-04-25T07:35:00Z</time></trkpt><trkpt lat="59.0947244782" lon="30.0220201537"><ele>72.24</ele><time>2026-04-25T07:35:05Z</time></trkpt><trkpt lat="59.0947170183" lon="30.0220510829"><ele>75.12</ele><time>2026-04-25T07:35:11Z</time></trkpt><trkpt lat="59.0947195329" lon="30.0220434554"><ele>72.24</ele><time>2026-04-25T07:35:12Z</time></trkpt><trkpt lat="59.0947191976" lon="30.0220346544"><ele>76.08</ele><time>2026-04-25T07:35:15Z</time></trkpt><trkpt lat="59.0946564171" lon="30.0219774898"><ele>73.20</ele><time>2026-04-25T07:35:32Z</time></trkpt><trkpt lat="59.0946551599" lon="30.0219803397"><ele>73.20</ele><time>2026-04-25T07:35:33Z</time></trkpt><trkpt lat="59.0946568362" lon="30.0220017135"><ele>67.91</ele><time>2026-04-25T07:35:37Z</time></trkpt><trkpt lat="59.0946570039" lon="30.0219998695"><ele>75.12</ele><time>2026-04-25T07:35:38Z</time></trkpt><trkpt lat="59.0946576744" lon="30.0220008753"><ele>74.64</ele><time>2026-04-25T07:35:39Z</time></trkpt><trkpt lat="59.0945993364" lon="30.0219947565"><ele>75.60</ele><time>2026-04-25T07:35:54Z</time></trkpt><trkpt lat="59.0945334546" lon="30.0220150407"><ele>76.08</ele><time>2026-04-25T07:36:10Z</time></trkpt><trkpt lat="59.0944884438" lon="30.0220319722"><ele>76.08</ele><time>2026-04-25T07:36:25Z</time></trkpt><trkpt lat="59.0944579337" lon="30.0221328065"><ele>76.56</ele><time>2026-04-25T07:36:43Z</time></trkpt><trkpt lat="59.0944109950" lon="30.0222374965"><ele>77.04</ele><time>2026-04-25T07:36:59Z</time></trkpt><trkpt lat="59.0943551715" lon="30.0222553499"><ele>77.52</ele><time>2026-04-25T07:37:14Z</time></trkpt><trkpt lat="59.0942895412" lon="30.0223496463"><ele>78.00</ele><time>2026-04-25T07:37:31Z</time></trkpt><trkpt lat="59.0942620486" lon="30.0224355608"><ele>78.00</ele><time>2026-04-25T07:37:56Z</time></trkpt><trkpt lat="59.0942669939" lon="30.0224417634"><ele>78.00</ele><time>2026-04-25T07:38:13Z</time></trkpt><trkpt lat="59.0941862762" lon="30.0225259177"><ele>77.52</ele><time>2026-04-25T07:38:31Z</time></trkpt><trkpt lat="59.0941331349" lon="30.0225693360"><ele>78.00</ele><time>2026-04-25T07:38:48Z</time></trkpt><trkpt lat="59.0940748807" lon="30.0226118322"><ele>76.56</ele><time>2026-04-25T07:39:05Z</time></trkpt><trkpt lat="59.0940577816" lon="30.0226427615"><ele>73.68</ele><time>2026-04-25T07:39:19Z</time></trkpt><trkpt lat="59.0940558538" lon="30.0226648897"><ele>75.60</ele><time>2026-04-25T07:39:25Z</time></trkpt><trkpt lat="59.0939612221" lon="30.0226990040"><ele>77.04</ele><time>2026-04-25T07:39:49Z</time></trkpt><trkpt lat="59.0939041413" lon="30.0227582641"><ele>76.08</ele><time>2026-04-25T07:40:10Z</time></trkpt><trkpt lat="59.0938577894" lon="30.0228272472"><ele>76.56</ele><time>2026-04-25T07:40:33Z</time></trkpt><trkpt lat="59.0938178916" lon="30.0228616130"><ele>77.04</ele><time>2026-04-25T07:40:53Z</time></trkpt><trkpt lat="59.0937099326" lon="30.0228855014"><ele>77.52</ele><time>2026-04-25T07:41:14Z</time></trkpt><trkpt lat="59.0936719626" lon="30.0229084678"><ele>78.00</ele><time>2026-04-25T07:41:32Z</time></trkpt><trkpt lat="59.0936153848" lon="30.0229999982"><ele>78.00</ele><time>2026-04-25T07:41:50Z</time></trkpt><trkpt lat="59.0935854614" lon="30.0230576657"><ele>78.48</ele><time>2026-04-25T07:42:02Z</time></trkpt><trkpt lat="59.0935179871" lon="30.0230856612"><ele>78.48</ele><time>2026-04-25T07:42:24Z</time></trkpt><trkpt lat="59.0934612416" lon="30.0231766887"><ele>78.48</ele><time>2026-04-25T07:42:39Z</time></trkpt><trkpt lat="59.0934305638" lon="30.0231792871"><ele>78.48</ele><time>2026-04-25T07:42:56Z</time></trkpt><trkpt lat="59.0933796018" lon="30.0233382080"><ele>78.48</ele><time>2026-04-25T07:43:16Z</time></trkpt><trkpt lat="59.0933213476" lon="30.0234210212"><ele>78.48</ele><time>2026-04-25T07:43:32Z</time></trkpt><trkpt lat="59.0932810307" lon="30.0234920159"><ele>78.48</ele><time>2026-04-25T07:43:52Z</time></trkpt><trkpt lat="59.0932235308" lon="30.0235107075"><ele>78.00</ele><time>2026-04-25T07:44:10Z</time></trkpt><trkpt lat="59.0931521170" lon="30.0236088596"><ele>78.00</ele><time>2026-04-25T07:44:29Z</time></trkpt><trkpt lat="59.0931077767" lon="30.0237012282"><ele>78.48</ele><time>2026-04-25T07:44:42Z</time></trkpt><trkpt lat="59.0930509474" lon="30.0236971211"><ele>78.48</ele><time>2026-04-25T07:44:58Z</time></trkpt><trkpt lat="59.0929937828" lon="30.0237066764"><ele>78.00</ele><time>2026-04-25T07:45:11Z</time></trkpt><trkpt lat="59.0929299966" lon="30.0237531122"><ele>78.97</ele><time>2026-04-25T07:45:34Z</time></trkpt><trkpt lat="59.0928836446" lon="30.0237236079"><ele>79.45</ele><time>2026-04-25T07:45:51Z</time></trkpt><trkpt lat="59.0927561559" lon="30.0237039104"><ele>79.45</ele><time>2026-04-25T07:46:12Z</time></trkpt><trkpt lat="59.0927005000" lon="30.0237997994"><ele>79.45</ele><time>2026-04-25T07:46:40Z</time></trkpt><trkpt lat="59.0927484445" lon="30.0237940997"><ele>79.45</ele><time>2026-04-25T07:47:17Z</time></trkpt><trkpt lat="59.0927489474" lon="30.0237896573"><ele>74.64</ele><time>2026-04-25T07:47:56Z</time></trkpt><trkpt lat="59.0927442536" lon="30.0237858016"><ele>74.64</ele><time>2026-04-25T07:47:57Z</time></trkpt><trkpt lat="59.0927407332" lon="30.0237824488"><ele>78.97</ele><time>2026-04-25T07:47:59Z</time></trkpt><trkpt lat="59.0927683935" lon="30.0238191616"><ele>77.04</ele><time>2026-04-25T07:48:09Z</time></trkpt><trkpt lat="59.0927505400" lon="30.0238836184"><ele>63.10</ele><time>2026-04-25T07:48:11Z</time></trkpt><trkpt lat="59.0927500371" lon="30.0238930900"><ele>65.03</ele><time>2026-04-25T07:48:12Z</time></trkpt><trkpt lat="59.0927538089" lon="30.0239276234"><ele>64.55</ele><time>2026-04-25T07:48:16Z</time></trkpt><trkpt lat="59.0927529708" lon="30.0239267852"><ele>80.89</ele><time>2026-04-25T07:48:18Z</time></trkpt><trkpt lat="59.0927353688" lon="30.0239122007"><ele>79.93</ele><time>2026-04-25T07:48:32Z</time></trkpt><trkpt lat="59.0927235503" lon="30.0239600614"><ele>78.97</ele><time>2026-04-25T07:49:02Z</time></trkpt><trkpt lat="59.0927130729" lon="30.0240472332"><ele>78.48</ele><time>2026-04-25T07:49:35Z</time></trkpt><trkpt lat="59.0927230474" lon="30.0240825210"><ele>78.97</ele><time>2026-04-25T07:50:10Z</time></trkpt><trkpt lat="59.0927582514" lon="30.0241230056"><ele>79.45</ele><time>2026-04-25T07:50:34Z</time></trkpt><trkpt lat="59.0927277412" lon="30.0240042340"><ele>79.45</ele><time>2026-04-25T07:51:02Z</time></trkpt><trkpt lat="59.0927094687" lon="30.0239566248"><ele>79.93</ele><time>2026-04-25T07:51:26Z</time></trkpt><trkpt lat="59.0927157551" lon="30.0239234325"><ele>80.41</ele><time>2026-04-25T07:51:56Z</time></trkpt><trkpt lat="59.0926834010" lon="30.0239403639"><ele>80.89</ele><time>2026-04-25T07:52:26Z</time></trkpt><trkpt lat="59.0926874243" lon="30.0239202473"><ele>80.89</ele><time>2026-04-25T07:52:57Z</time></trkpt><trkpt lat="59.0926782042" lon="30.0239345804"><ele>81.85</ele><time>2026-04-25T07:53:30Z</time></trkpt><trkpt lat="59.0926607698" lon="30.0239408668"><ele>82.33</ele><time>2026-04-25T07:53:58Z</time></trkpt><trkpt lat="59.0926672239" lon="30.0239267014"><ele>82.33</ele><time>2026-04-25T07:54:29Z</time></trkpt><trkpt lat="59.0926783718" lon="30.0239374302"><ele>82.33</ele><time>2026-04-25T07:54:57Z</time></trkpt><trkpt lat="59.0926677268" lon="30.0239563733"><ele>82.81</ele><time>2026-04-25T07:55:22Z</time></trkpt><trkpt lat="59.0926735103" lon="30.0239795912"><ele>82.81</ele><time>2026-04-25T07:55:46Z</time></trkpt><trkpt lat="59.0926703252" lon="30.0240006298"><ele>83.29</ele><time>2026-04-25T07:56:10Z</time></trkpt><trkpt lat="59.0926832333" lon="30.0239459798"><ele>83.77</ele><time>2026-04-25T07:56:37Z</time></trkpt><trkpt lat="59.0927056968" lon="30.0239241868"><ele>83.77</ele><time>2026-04-25T07:57:06Z</time></trkpt><trkpt lat="59.0926766116" lon="30.0239758193"><ele>83.77</ele><time>2026-04-25T07:57:29Z</time></trkpt><trkpt lat="59.0927224606" lon="30.0239520986"><ele>84.25</ele><time>2026-04-25T07:57:59Z</time></trkpt><trkpt lat="59.0927440859" lon="30.0239610672"><ele>84.73</ele><time>2026-04-25T07:58:29Z</time></trkpt><trkpt lat="59.0927276574" lon="30.0239463151"><ele>84.73</ele><time>2026-04-25T07:58:54Z</time></trkpt><trkpt lat="59.0927521326" lon="30.0239114463"><ele>84.73</ele><time>2026-04-25T07:59:26Z</time></trkpt><trkpt lat="59.0926854126" lon="30.0239275396"><ele>84.73</ele><time>2026-04-25T07:59:56Z</time></trkpt><trkpt lat="59.0926990751" lon="30.0239045732"><ele>84.73</ele><time>2026-04-25T08:00:25Z</time></trkpt><trkpt lat="59.0926794615" lon="30.0239827763"><ele>84.73</ele><time>2026-04-25T08:00:56Z</time></trkpt><trkpt lat="59.0927010868" lon="30.0239656772"><ele>85.21</ele><time>2026-04-25T08:01:21Z</time></trkpt><trkpt lat="59.0927253943" lon="30.0239707064"><ele>84.73</ele><time>2026-04-25T08:01:38Z</time></trkpt><trkpt lat="59.0927543119" lon="30.0239756517"><ele>85.21</ele><time>2026-04-25T08:02:01Z</time></trkpt><trkpt lat="59.0927518811" lon="30.0239948463"><ele>85.21</ele><time>2026-04-25T08:02:23Z</time></trkpt><trkpt lat="59.0927497856" lon="30.0240211654"><ele>85.21</ele><time>2026-04-25T08:02:46Z</time></trkpt><trkpt lat="59.0927587543" lon="30.0239946786"><ele>85.21</ele><time>2026-04-25T08:03:04Z</time></trkpt><trkpt lat="59.0927586704" lon="30.0239343289"><ele>85.69</ele><time>2026-04-25T08:03:28Z</time></trkpt><trkpt lat="59.0927583352" lon="30.0239175651"><ele>85.69</ele><time>2026-04-25T08:03:56Z</time></trkpt><trkpt lat="59.0927125700" lon="30.0239490811"><ele>86.18</ele><time>2026-04-25T08:04:27Z</time></trkpt><trkpt lat="59.0927045234" lon="30.0240241829"><ele>86.18</ele><time>2026-04-25T08:04:58Z</time></trkpt><trkpt lat="59.0926901065" lon="30.0239512604"><ele>86.18</ele><time>2026-04-25T08:05:25Z</time></trkpt><trkpt lat="59.0927217901" lon="30.0240286253"><ele>86.66</ele><time>2026-04-25T08:05:56Z</time></trkpt><trkpt lat="59.0926782880" lon="30.0240681041"><ele>82.33</ele><time>2026-04-25T08:06:25Z</time></trkpt><trkpt lat="59.0926773660" lon="30.0240595546"><ele>86.66</ele><time>2026-04-25T08:06:26Z</time></trkpt><trkpt lat="59.0926732589" lon="30.0240533520"><ele>86.66</ele><time>2026-04-25T08:06:27Z</time></trkpt><trkpt lat="59.0926474426" lon="30.0239917450"><ele>82.33</ele><time>2026-04-25T08:06:35Z</time></trkpt><trkpt lat="59.0926471911" lon="30.0239847042"><ele>77.04</ele><time>2026-04-25T08:06:37Z</time></trkpt><trkpt lat="59.0926474426" lon="30.0239844527"><ele>81.37</ele><time>2026-04-25T08:06:38Z</time></trkpt><trkpt lat="59.0926492866" lon="30.0239851233"><ele>83.77</ele><time>2026-04-25T08:06:40Z</time></trkpt><trkpt lat="59.0926533937" lon="30.0239844527"><ele>87.62</ele><time>2026-04-25T08:06:43Z</time></trkpt><trkpt lat="59.0926543158" lon="30.0239853747"><ele>87.14</ele><time>2026-04-25T08:06:44Z</time></trkpt><trkpt lat="59.0926444251" lon="30.0239645038"><ele>83.29</ele><time>2026-04-25T08:06:48Z</time></trkpt><trkpt lat="59.0926421620" lon="30.0239627436"><ele>82.81</ele><time>2026-04-25T08:06:49Z</time></trkpt><trkpt lat="59.0926404856" lon="30.0239675213"><ele>81.37</ele><time>2026-04-25T08:06:51Z</time></trkpt><trkpt lat="59.0926389769" lon="30.0239707902"><ele>88.58</ele><time>2026-04-25T08:06:52Z</time></trkpt><trkpt lat="59.0926403180" lon="30.0239642523"><ele>84.25</ele><time>2026-04-25T08:06:53Z</time></trkpt><trkpt lat="59.0926345345" lon="30.0239544455"><ele>88.10</ele><time>2026-04-25T08:06:55Z</time></trkpt><trkpt lat="59.0926284157" lon="30.0239396095"><ele>88.10</ele><time>2026-04-25T08:06:56Z</time></trkpt><trkpt lat="59.0926250629" lon="30.0239285454"><ele>82.33</ele><time>2026-04-25T08:06:57Z</time></trkpt><trkpt lat="59.0926169325" lon="30.0239173137"><ele>82.33</ele><time>2026-04-25T08:06:58Z</time></trkpt><trkpt lat="59.0926215425" lon="30.0238627475"><ele>87.62</ele><time>2026-04-25T08:07:03Z</time></trkpt><trkpt lat="59.0926999133" lon="30.0237368513"><ele>87.62</ele><time>2026-04-25T08:07:34Z</time></trkpt><trkpt lat="59.0926970635" lon="30.0237933453"><ele>81.85</ele><time>2026-04-25T08:07:40Z</time></trkpt><trkpt lat="59.0927039366" lon="30.0238013081"><ele>81.85</ele><time>2026-04-25T08:07:41Z</time></trkpt><trkpt lat="59.0927078761" lon="30.0237945188"><ele>86.66</ele><time>2026-04-25T08:07:46Z</time></trkpt><trkpt lat="59.0927117318" lon="30.0237961952"><ele>86.66</ele><time>2026-04-25T08:07:47Z</time></trkpt><trkpt lat="59.0927134920" lon="30.0238042418"><ele>83.29</ele><time>2026-04-25T08:07:58Z</time></trkpt><trkpt lat="59.0927274898" lon="30.0238032360"><ele>79.93</ele><time>2026-04-25T08:08:09Z</time></trkpt><trkpt lat="59.0926751029" lon="30.0237570517"><ele>80.89</ele><time>2026-04-25T08:08:37Z</time></trkpt><trkpt lat="59.0926529747" lon="30.0237448979"><ele>78.48</ele><time>2026-04-25T08:08:40Z</time></trkpt><trkpt lat="59.0926637035" lon="30.0237122085"><ele>81.85</ele><time>2026-04-25T08:08:43Z</time></trkpt><trkpt lat="59.0926694870" lon="30.0236954447"><ele>81.85</ele><time>2026-04-25T08:08:44Z</time></trkpt><trkpt lat="59.0926389769" lon="30.0236573070"><ele>83.29</ele><time>2026-04-25T08:09:01Z</time></trkpt><trkpt lat="59.0925328620" lon="30.0237250328"><ele>84.73</ele><time>2026-04-25T08:09:18Z</time></trkpt><trkpt lat="59.0924519766" lon="30.0237763301"><ele>85.69</ele><time>2026-04-25T08:09:35Z</time></trkpt><trkpt lat="59.0923955664" lon="30.0237913337"><ele>86.66</ele><time>2026-04-25T08:09:52Z</time></trkpt><trkpt lat="59.0923460294" lon="30.0237920042"><ele>87.14</ele><time>2026-04-25T08:10:08Z</time></trkpt><trkpt lat="59.0922428481" lon="30.0238260347"><ele>87.62</ele><time>2026-04-25T08:10:25Z</time></trkpt><trkpt lat="59.0921666566" lon="30.0238344166"><ele>87.62</ele><time>2026-04-25T08:10:39Z</time></trkpt><trkpt lat="59.0920925606" lon="30.0238676090"><ele>87.62</ele><time>2026-04-25T08:10:54Z</time></trkpt><trkpt lat="59.0919841826" lon="30.0238959398"><ele>88.10</ele><time>2026-04-25T08:11:08Z</time></trkpt><trkpt lat="59.0919377469" lon="30.0239432137"><ele>87.62</ele><time>2026-04-25T08:11:23Z</time></trkpt><trkpt lat="59.0918609686" lon="30.0239423756"><ele>87.62</ele><time>2026-04-25T08:11:40Z</time></trkpt><trkpt lat="59.0918242559" lon="30.0239472371"><ele>78.97</ele><time>2026-04-25T08:11:44Z</time></trkpt><trkpt lat="59.0918203164" lon="30.0239510089"><ele>85.69</ele><time>2026-04-25T08:11:45Z</time></trkpt><trkpt lat="59.0918097552" lon="30.0239460636"><ele>88.10</ele><time>2026-04-25T08:11:47Z</time></trkpt><trkpt lat="59.0917551890" lon="30.0239785016"><ele>88.10</ele><time>2026-04-25T08:12:03Z</time></trkpt><trkpt lat="59.0916773211" lon="30.0239859615"><ele>87.62</ele><time>2026-04-25T08:12:19Z</time></trkpt><trkpt lat="59.0916089248" lon="30.0240085088"><ele>87.62</ele><time>2026-04-25T08:12:36Z</time></trkpt><trkpt lat="59.0915421210" lon="30.0239546131"><ele>87.14</ele><time>2026-04-25T08:12:51Z</time></trkpt><trkpt lat="59.0914743952" lon="30.0238948502"><ele>87.14</ele><time>2026-04-25T08:13:05Z</time></trkpt><trkpt lat="59.0913302265" lon="30.0239935890"><ele>87.62</ele><time>2026-04-25T08:13:25Z</time></trkpt><trkpt lat="59.0912285540" lon="30.0240324810"><ele>87.62</ele><time>2026-04-25T08:13:42Z</time></trkpt><trkpt lat="59.0911134705" lon="30.0239927508"><ele>87.14</ele><time>2026-04-25T08:13:58Z</time></trkpt><trkpt lat="59.0910785180" lon="30.0240430422"><ele>83.77</ele><time>2026-04-25T08:14:02Z</time></trkpt><trkpt lat="59.0910616703" lon="30.0241392665"><ele>88.10</ele><time>2026-04-25T08:14:08Z</time></trkpt><trkpt lat="59.0910563059" lon="30.0241556112"><ele>87.62</ele><time>2026-04-25T08:14:09Z</time></trkpt><trkpt lat="59.0910060145" lon="30.0242342334"><ele>86.66</ele><time>2026-04-25T08:14:25Z</time></trkpt><trkpt lat="59.0910271369" lon="30.0241839420"><ele>85.21</ele><time>2026-04-25T08:14:59Z</time></trkpt><trkpt lat="59.0909783542" lon="30.0241823494"><ele>86.18</ele><time>2026-04-25T08:15:20Z</time></trkpt><trkpt lat="59.0909025818" lon="30.0242472254"><ele>86.66</ele><time>2026-04-25T08:15:34Z</time></trkpt><trkpt lat="59.0907815471" lon="30.0243453775"><ele>86.66</ele><time>2026-04-25T08:15:53Z</time></trkpt><trkpt lat="59.0906654578" lon="30.0244333036"><ele>87.14</ele><time>2026-04-25T08:16:11Z</time></trkpt><trkpt lat="59.0905420762" lon="30.0244555995"><ele>87.62</ele><time>2026-04-25T08:16:28Z</time></trkpt><trkpt lat="59.0904369671" lon="30.0245154463"><ele>87.62</ele><time>2026-04-25T08:16:43Z</time></trkpt><trkpt lat="59.0904004220" lon="30.0245231576"><ele>86.66</ele><time>2026-04-25T08:16:52Z</time></trkpt><trkpt lat="59.0903790481" lon="30.0245327130"><ele>87.62</ele><time>2026-04-25T08:16:54Z</time></trkpt><trkpt lat="59.0903519746" lon="30.0245685037"><ele>80.89</ele><time>2026-04-25T08:16:56Z</time></trkpt><trkpt lat="59.0903361328" lon="30.0245726109"><ele>85.21</ele><time>2026-04-25T08:16:57Z</time></trkpt><trkpt lat="59.0903347079" lon="30.0246461201"><ele>87.62</ele><time>2026-04-25T08:17:03Z</time></trkpt><trkpt lat="59.0902501345" lon="30.0246315356"><ele>87.14</ele><time>2026-04-25T08:17:17Z</time></trkpt><trkpt lat="59.0901673213" lon="30.0244905520"><ele>87.14</ele><time>2026-04-25T08:17:32Z</time></trkpt><trkpt lat="59.0900075622" lon="30.0244818348"><ele>86.18</ele><time>2026-04-25T08:17:49Z</time></trkpt><trkpt lat="59.0898557659" lon="30.0244868640"><ele>86.18</ele><time>2026-04-25T08:18:07Z</time></trkpt><trkpt lat="59.0897685941" lon="30.0244234130"><ele>86.66</ele><time>2026-04-25T08:18:23Z</time></trkpt><trkpt lat="59.0896724537" lon="30.0245030411"><ele>87.14</ele><time>2026-04-25T08:18:38Z</time></trkpt><trkpt lat="59.0895804204" lon="30.0245140214"><ele>86.18</ele><time>2026-04-25T08:18:55Z</time></trkpt><trkpt lat="59.0894528478" lon="30.0245357305"><ele>87.62</ele><time>2026-04-25T08:19:11Z</time></trkpt><trkpt lat="59.0893950965" lon="30.0245606247"><ele>83.29</ele><time>2026-04-25T08:19:19Z</time></trkpt><trkpt lat="59.0893917438" lon="30.0245695934"><ele>78.48</ele><time>2026-04-25T08:19:20Z</time></trkpt><trkpt lat="59.0893893968" lon="30.0245709345"><ele>78.48</ele><time>2026-04-25T08:19:21Z</time></trkpt><trkpt lat="59.0893869661" lon="30.0246431865"><ele>87.62</ele><time>2026-04-25T08:19:26Z</time></trkpt><trkpt lat="59.0893890616" lon="30.0246409234"><ele>87.62</ele><time>2026-04-25T08:19:27Z</time></trkpt><trkpt lat="59.0893883072" lon="30.0246337149"><ele>86.66</ele><time>2026-04-25T08:19:29Z</time></trkpt><trkpt lat="59.0893750638" lon="30.0245035440"><ele>85.69</ele><time>2026-04-25T08:19:59Z</time></trkpt><trkpt lat="59.0892837010" lon="30.0245617144"><ele>85.69</ele><time>2026-04-25T08:20:33Z</time></trkpt><trkpt lat="59.0892159753" lon="30.0246275123"><ele>85.69</ele><time>2026-04-25T08:20:52Z</time></trkpt><trkpt lat="59.0891077649" lon="30.0247005187"><ele>86.18</ele><time>2026-04-25T08:21:09Z</time></trkpt><trkpt lat="59.0889712237" lon="30.0247025304"><ele>84.73</ele><time>2026-04-25T08:21:27Z</time></trkpt><trkpt lat="59.0889564715" lon="30.0246978365"><ele>81.85</ele><time>2026-04-25T08:21:30Z</time></trkpt><trkpt lat="59.0889521129" lon="30.0247075595"><ele>81.85</ele><time>2026-04-25T08:21:31Z</time></trkpt><trkpt lat="59.0889035817" lon="30.0247572642"><ele>85.69</ele><time>2026-04-25T08:21:36Z</time></trkpt><trkpt lat="59.0888946131" lon="30.0247593597"><ele>85.21</ele><time>2026-04-25T08:21:37Z</time></trkpt><trkpt lat="59.0888732392" lon="30.0247789733"><ele>85.69</ele><time>2026-04-25T08:21:43Z</time></trkpt><trkpt lat="59.0888511110" lon="30.0247765426"><ele>85.69</ele><time>2026-04-25T08:21:47Z</time></trkpt><trkpt lat="59.0888320841" lon="30.0247715972"><ele>78.97</ele><time>2026-04-25T08:22:06Z</time></trkpt><trkpt lat="59.0888667013" lon="30.0247293524"><ele>79.45</ele><time>2026-04-25T08:22:33Z</time></trkpt><trkpt lat="59.0888767596" lon="30.0247444399"><ele>79.93</ele><time>2026-04-25T08:22:34Z</time></trkpt><trkpt lat="59.0888668690" lon="30.0247289333"><ele>77.52</ele><time>2026-04-25T08:22:39Z</time></trkpt><trkpt lat="59.0887201019" lon="30.0247296877"><ele>79.45</ele><time>2026-04-25T08:22:55Z</time></trkpt><trkpt lat="59.0885714069" lon="30.0248003472"><ele>81.37</ele><time>2026-04-25T08:23:13Z</time></trkpt><trkpt lat="59.0884464327" lon="30.0248548295"><ele>82.33</ele><time>2026-04-25T08:23:32Z</time></trkpt><trkpt lat="59.0884157550" lon="30.0249043666"><ele>80.89</ele><time>2026-04-25T08:23:47Z</time></trkpt><trkpt lat="59.0883963928" lon="30.0247672386"><ele>82.81</ele><time>2026-04-25T08:24:17Z</time></trkpt><trkpt lat="59.0883421618" lon="30.0248104893"><ele>83.77</ele><time>2026-04-25T08:24:50Z</time></trkpt><trkpt lat="59.0883079637" lon="30.0248666480"><ele>81.85</ele><time>2026-04-25T08:25:00Z</time></trkpt><trkpt lat="59.0882272460" lon="30.0248850882"><ele>82.33</ele><time>2026-04-25T08:25:16Z</time></trkpt><trkpt lat="59.0880586859" lon="30.0250427518"><ele>83.29</ele><time>2026-04-25T08:25:34Z</time></trkpt><trkpt lat="59.0879980847" lon="30.0251585059"><ele>80.41</ele><time>2026-04-25T08:25:48Z</time></trkpt><trkpt lat="59.0879446920" lon="30.0251884293"><ele>80.41</ele><time>2026-04-25T08:26:17Z</time></trkpt><trkpt lat="59.0878490545" lon="30.0251928717"><ele>80.89</ele><time>2026-04-25T08:26:32Z</time></trkpt><trkpt lat="59.0877493937" lon="30.0251919497"><ele>82.33</ele><time>2026-04-25T08:26:49Z</time></trkpt><trkpt lat="59.0876669157" lon="30.0252647046"><ele>80.89</ele><time>2026-04-25T08:26:59Z</time></trkpt><trkpt lat="59.0876402613" lon="30.0253071170"><ele>82.81</ele><time>2026-04-25T08:27:04Z</time></trkpt><trkpt lat="59.0876270179" lon="30.0252956338"><ele>81.37</ele><time>2026-04-25T08:27:07Z</time></trkpt><trkpt lat="59.0876226593" lon="30.0252945442"><ele>80.89</ele><time>2026-04-25T08:27:08Z</time></trkpt><trkpt lat="59.0876054764" lon="30.0253034290"><ele>75.12</ele><time>2026-04-25T08:27:10Z</time></trkpt><trkpt lat="59.0875998605" lon="30.0253032614"><ele>81.85</ele><time>2026-04-25T08:27:11Z</time></trkpt><trkpt lat="59.0875940770" lon="30.0253103022"><ele>80.89</ele><time>2026-04-25T08:27:12Z</time></trkpt><trkpt lat="59.0875331406" lon="30.0253973063"><ele>81.37</ele><time>2026-04-25T08:27:24Z</time></trkpt><trkpt lat="59.0874629002" lon="30.0254282355"><ele>80.41</ele><time>2026-04-25T08:27:34Z</time></trkpt><trkpt lat="59.0873862896" lon="30.0254751742"><ele>78.97</ele><time>2026-04-25T08:27:46Z</time></trkpt><trkpt lat="59.0873421170" lon="30.0254709832"><ele>78.97</ele><time>2026-04-25T08:28:11Z</time></trkpt><trkpt lat="59.0873256046" lon="30.0254564825"><ele>76.08</ele><time>2026-04-25T08:28:27Z</time></trkpt><trkpt lat="59.0872385167" lon="30.0255190115"><ele>80.41</ele><time>2026-04-25T08:28:46Z</time></trkpt><trkpt lat="59.0872438811" lon="30.0254986435"><ele>80.41</ele><time>2026-04-25T08:28:47Z</time></trkpt><trkpt lat="59.0872419532" lon="30.0253350288"><ele>83.29</ele><time>2026-04-25T08:29:13Z</time></trkpt><trkpt lat="59.0873219166" lon="30.0253735017"><ele>85.69</ele><time>2026-04-25T08:29:40Z</time></trkpt><trkpt lat="59.0873097628" lon="30.0254208595"><ele>88.10</ele><time>2026-04-25T08:30:10Z</time></trkpt><trkpt lat="59.0873271134" lon="30.0255011581"><ele>85.69</ele><time>2026-04-25T08:30:18Z</time></trkpt><trkpt lat="59.0873594675" lon="30.0255175866"><ele>87.14</ele><time>2026-04-25T08:30:24Z</time></trkpt><trkpt lat="59.0873336513" lon="30.0256305747"><ele>87.14</ele><time>2026-04-25T08:30:43Z</time></trkpt><trkpt lat="59.0873118583" lon="30.0259707961"><ele>87.62</ele><time>2026-04-25T08:31:05Z</time></trkpt><trkpt lat="59.0872899815" lon="30.0261030626"><ele>88.10</ele><time>2026-04-25T08:31:23Z</time></trkpt><trkpt lat="59.0873129480" lon="30.0263780728"><ele>89.54</ele><time>2026-04-25T08:31:43Z</time></trkpt><trkpt lat="59.0873414464" lon="30.0266074017"><ele>90.50</ele><time>2026-04-25T08:32:01Z</time></trkpt><trkpt lat="59.0874116868" lon="30.0269861799"><ele>91.46</ele><time>2026-04-25T08:32:20Z</time></trkpt><trkpt lat="59.0874465555" lon="30.0271699950"><ele>91.94</ele><time>2026-04-25T08:32:37Z</time></trkpt><trkpt lat="59.0874420293" lon="30.0273610186"><ele>91.94</ele><time>2026-04-25T08:32:54Z</time></trkpt><trkpt lat="59.0874313843" lon="30.0276600849"><ele>92.42</ele><time>2026-04-25T08:33:09Z</time></trkpt><trkpt lat="59.0874609724" lon="30.0278744102"><ele>92.90</ele><time>2026-04-25T08:33:25Z</time></trkpt><trkpt lat="59.0875253454" lon="30.0280552916"><ele>93.39</ele><time>2026-04-25T08:33:41Z</time></trkpt><trkpt lat="59.0875897184" lon="30.0282702036"><ele>93.39</ele><time>2026-04-25T08:33:57Z</time></trkpt><trkpt lat="59.0876298677" lon="30.0284601375"><ele>93.39</ele><time>2026-04-25T08:34:15Z</time></trkpt><trkpt lat="59.0876648203" lon="30.0286229979"><ele>88.10</ele><time>2026-04-25T08:34:24Z</time></trkpt><trkpt lat="59.0876668319" lon="30.0286518317"><ele>88.10</ele><time>2026-04-25T08:34:25Z</time></trkpt><trkpt lat="59.0876645688" lon="30.0286635663"><ele>92.90</ele><time>2026-04-25T08:34:29Z</time></trkpt><trkpt lat="59.0876672510" lon="30.0286587048"><ele>92.42</ele><time>2026-04-25T08:34:30Z</time></trkpt><trkpt lat="59.0877051372" lon="30.0287400093"><ele>90.02</ele><time>2026-04-25T08:34:50Z</time></trkpt><trkpt lat="59.0876903012" lon="30.0289550889"><ele>90.02</ele><time>2026-04-25T08:35:09Z</time></trkpt><trkpt lat="59.0877363179" lon="30.0291508064"><ele>89.54</ele><time>2026-04-25T08:35:26Z</time></trkpt><trkpt lat="59.0877871960" lon="30.0292564183"><ele>90.02</ele><time>2026-04-25T08:35:46Z</time></trkpt><trkpt lat="59.0877586976" lon="30.0292984117"><ele>90.98</ele><time>2026-04-25T08:36:21Z</time></trkpt><trkpt lat="59.0877605416" lon="30.0292741880"><ele>87.62</ele><time>2026-04-25T08:36:33Z</time></trkpt><trkpt lat="59.0877638943" lon="30.0292741042"><ele>87.62</ele><time>2026-04-25T08:36:34Z</time></trkpt><trkpt lat="59.0877864417" lon="30.0292490423"><ele>89.06</ele><time>2026-04-25T08:36:40Z</time></trkpt><trkpt lat="59.0878066421" lon="30.0294291694"><ele>88.58</ele><time>2026-04-25T08:36:56Z</time></trkpt><trkpt lat="59.0877692588" lon="30.0296291616"><ele>88.10</ele><time>2026-04-25T08:37:10Z</time></trkpt><trkpt lat="59.0877930634" lon="30.0297543872"><ele>88.10</ele><time>2026-04-25T08:37:21Z</time></trkpt><trkpt lat="59.0878575202" lon="30.0299484283"><ele>88.58</ele><time>2026-04-25T08:37:36Z</time></trkpt><trkpt lat="59.0879058000" lon="30.0300510228"><ele>88.58</ele><time>2026-04-25T08:37:48Z</time></trkpt><trkpt lat="59.0879369806" lon="30.0301746558"><ele>89.06</ele><time>2026-04-25T08:38:00Z</time></trkpt><trkpt lat="59.0879359748" lon="30.0303305592"><ele>89.54</ele><time>2026-04-25T08:38:14Z</time></trkpt><trkpt lat="59.0879598632" lon="30.0304384343"><ele>90.02</ele><time>2026-04-25T08:38:30Z</time></trkpt><trkpt lat="59.0879990067" lon="30.0305691920"><ele>90.50</ele><time>2026-04-25T08:38:44Z</time></trkpt><trkpt lat="59.0880650561" lon="30.0307024643"><ele>90.50</ele><time>2026-04-25T08:39:03Z</time></trkpt><trkpt lat="59.0880720969" lon="30.0308391731"><ele>90.98</ele><time>2026-04-25T08:39:19Z</time></trkpt><trkpt lat="59.0880428441" lon="30.0309150293"><ele>90.50</ele><time>2026-04-25T08:39:38Z</time></trkpt><trkpt lat="59.0880622063" lon="30.0309944898"><ele>90.50</ele><time>2026-04-25T08:39:58Z</time></trkpt><trkpt lat="59.0881021880" lon="30.0311042089"><ele>90.98</ele><time>2026-04-25T08:40:16Z</time></trkpt><trkpt lat="59.0881280042" lon="30.0312120840"><ele>90.02</ele><time>2026-04-25T08:40:34Z</time></trkpt><trkpt lat="59.0881242324" lon="30.0313609466"><ele>90.50</ele><time>2026-04-25T08:40:48Z</time></trkpt><trkpt lat="59.0881254058" lon="30.0315196160"><ele>90.50</ele><time>2026-04-25T08:41:05Z</time></trkpt><trkpt lat="59.0881238971" lon="30.0315968134"><ele>86.18</ele><time>2026-04-25T08:41:19Z</time></trkpt><trkpt lat="59.0881258249" lon="30.0315957237"><ele>87.62</ele><time>2026-04-25T08:41:20Z</time></trkpt><trkpt lat="59.0881240647" lon="30.0316005014"><ele>89.54</ele><time>2026-04-25T08:41:22Z</time></trkpt><trkpt lat="59.0881152637" lon="30.0318087917"><ele>90.02</ele><time>2026-04-25T08:41:41Z</time></trkpt><trkpt lat="59.0881614480" lon="30.0319439918"><ele>89.54</ele><time>2026-04-25T08:41:56Z</time></trkpt><trkpt lat="59.0881684050" lon="30.0320859812"><ele>89.54</ele><time>2026-04-25T08:42:13Z</time></trkpt><trkpt lat="59.0881956462" lon="30.0321262982"><ele>84.73</ele><time>2026-04-25T08:42:27Z</time></trkpt><trkpt lat="59.0882337000" lon="30.0320973806"><ele>89.54</ele><time>2026-04-25T08:42:34Z</time></trkpt><trkpt lat="59.0882356279" lon="30.0320977159"><ele>89.54</ele><time>2026-04-25T08:42:35Z</time></trkpt><trkpt lat="59.0881964006" lon="30.0321282260"><ele>87.14</ele><time>2026-04-25T08:42:54Z</time></trkpt><trkpt lat="59.0881945565" lon="30.0321672019"><ele>85.69</ele><time>2026-04-25T08:43:23Z</time></trkpt><trkpt lat="59.0882333647" lon="30.0321573950"><ele>87.14</ele><time>2026-04-25T08:44:00Z</time></trkpt><trkpt lat="59.0883148368" lon="30.0322529487"><ele>86.66</ele><time>2026-04-25T08:44:18Z</time></trkpt><trkpt lat="59.0883438382" lon="30.0323868915"><ele>87.62</ele><time>2026-04-25T08:44:34Z</time></trkpt><trkpt lat="59.0883719176" lon="30.0325377658"><ele>88.10</ele><time>2026-04-25T08:44:49Z</time></trkpt><trkpt lat="59.0883187763" lon="30.0327069126"><ele>88.10</ele><time>2026-04-25T08:45:05Z</time></trkpt><trkpt lat="59.0883523878" lon="30.0328981876"><ele>88.10</ele><time>2026-04-25T08:45:21Z</time></trkpt><trkpt lat="59.0883327741" lon="30.0329861138"><ele>88.10</ele><time>2026-04-25T08:45:37Z</time></trkpt><trkpt lat="59.0883674752" lon="30.0331540033"><ele>88.10</ele><time>2026-04-25T08:45:54Z</time></trkpt><trkpt lat="59.0884271543" lon="30.0332943164"><ele>88.10</ele><time>2026-04-25T08:46:12Z</time></trkpt><trkpt lat="59.0884353686" lon="30.0334005151"><ele>87.62</ele><time>2026-04-25T08:46:30Z</time></trkpt><trkpt lat="59.0884299204" lon="30.0335716736"><ele>87.62</ele><time>2026-04-25T08:46:45Z</time></trkpt><trkpt lat="59.0884503722" lon="30.0336798839"><ele>80.41</ele><time>2026-04-25T08:47:00Z</time></trkpt><trkpt lat="59.0884561557" lon="30.0336684007"><ele>87.14</ele><time>2026-04-25T08:47:01Z</time></trkpt><trkpt lat="59.0884507913" lon="30.0336680654"><ele>87.14</ele><time>2026-04-25T08:47:02Z</time></trkpt><trkpt lat="59.0884484444" lon="30.0336511340"><ele>86.18</ele><time>2026-04-25T08:47:06Z</time></trkpt><trkpt lat="59.0884570777" lon="30.0336594321"><ele>82.33</ele><time>2026-04-25T08:47:20Z</time></trkpt><trkpt lat="59.0884543955" lon="30.0336569175"><ele>87.62</ele><time>2026-04-25T08:47:22Z</time></trkpt><trkpt lat="59.0884554014" lon="30.0336660538"><ele>86.18</ele><time>2026-04-25T08:47:23Z</time></trkpt><trkpt lat="59.0884227119" lon="30.0338161737"><ele>86.66</ele><time>2026-04-25T08:47:41Z</time></trkpt><trkpt lat="59.0884036850" lon="30.0339700654"><ele>85.69</ele><time>2026-04-25T08:48:04Z</time></trkpt><trkpt lat="59.0884122346" lon="30.0340854004"><ele>85.69</ele><time>2026-04-25T08:48:18Z</time></trkpt><trkpt lat="59.0884346142" lon="30.0340380426"><ele>84.25</ele><time>2026-04-25T08:48:28Z</time></trkpt><trkpt lat="59.0884458460" lon="30.0340448320"><ele>87.62</ele><time>2026-04-25T08:48:41Z</time></trkpt><trkpt lat="59.0883549862" lon="30.0340636075"><ele>86.18</ele><time>2026-04-25T08:49:11Z</time></trkpt><trkpt lat="59.0883892681" lon="30.0340092089"><ele>86.18</ele><time>2026-04-25T08:49:39Z</time></trkpt><trkpt lat="59.0883339476" lon="30.0341552217"><ele>86.66</ele><time>2026-04-25T08:50:02Z</time></trkpt><trkpt lat="59.0883274935" lon="30.0341916829"><ele>83.29</ele><time>2026-04-25T08:50:17Z</time></trkpt><trkpt lat="59.0883326903" lon="30.0341871567"><ele>84.73</ele><time>2026-04-25T08:50:18Z</time></trkpt><trkpt lat="59.0883417428" lon="30.0341807865"><ele>81.37</ele><time>2026-04-25T08:50:20Z</time></trkpt><trkpt lat="59.0883426648" lon="30.0341813732"><ele>85.21</ele><time>2026-04-25T08:50:21Z</time></trkpt><trkpt lat="59.0884375479" lon="30.0341046788"><ele>85.21</ele><time>2026-04-25T08:50:38Z</time></trkpt><trkpt lat="59.0884492826" lon="30.0340781920"><ele>79.45</ele><time>2026-04-25T08:50:53Z</time></trkpt><trkpt lat="59.0884487797" lon="30.0340755936"><ele>78.97</ele><time>2026-04-25T08:50:54Z</time></trkpt><trkpt lat="59.0884528030" lon="30.0340848975"><ele>75.60</ele><time>2026-04-25T08:51:01Z</time></trkpt><trkpt lat="59.0884721652" lon="30.0340724923"><ele>77.52</ele><time>2026-04-25T08:51:11Z</time></trkpt><trkpt lat="59.0884540603" lon="30.0340847299"><ele>76.08</ele><time>2026-04-25T08:51:16Z</time></trkpt><trkpt lat="59.0884481929" lon="30.0340808742"><ele>78.00</ele><time>2026-04-25T08:51:21Z</time></trkpt><trkpt lat="59.0884698182" lon="30.0340933632"><ele>76.08</ele><time>2026-04-25T08:51:28Z</time></trkpt><trkpt lat="59.0885685571" lon="30.0341779366"><ele>78.97</ele><time>2026-04-25T08:51:48Z</time></trkpt><trkpt lat="59.0886725765" lon="30.0341272261"><ele>80.89</ele><time>2026-04-25T08:52:08Z</time></trkpt><trkpt lat="59.0887247957" lon="30.0341299921"><ele>83.29</ele><time>2026-04-25T08:52:30Z</time></trkpt><trkpt lat="59.0887273941" lon="30.0341645256"><ele>86.18</ele><time>2026-04-25T08:52:54Z</time></trkpt><trkpt lat="59.0888107102" lon="30.0341750868"><ele>87.62</ele><time>2026-04-25T08:53:09Z</time></trkpt><trkpt lat="59.0888859797" lon="30.0341962930"><ele>88.10</ele><time>2026-04-25T08:53:29Z</time></trkpt><trkpt lat="59.0889803600" lon="30.0341039244"><ele>89.54</ele><time>2026-04-25T08:53:49Z</time></trkpt><trkpt lat="59.0890761651" lon="30.0340528786"><ele>90.02</ele><time>2026-04-25T08:54:05Z</time></trkpt><trkpt lat="59.0891427174" lon="30.0340206083"><ele>90.50</ele><time>2026-04-25T08:54:19Z</time></trkpt><trkpt lat="59.0891989600" lon="30.0339871645"><ele>90.98</ele><time>2026-04-25T08:54:35Z</time></trkpt><trkpt lat="59.0892825276" lon="30.0339910202"><ele>90.98</ele><time>2026-04-25T08:54:53Z</time></trkpt><trkpt lat="59.0893392731" lon="30.0340274815"><ele>91.46</ele><time>2026-04-25T08:55:07Z</time></trkpt><trkpt lat="59.0893501695" lon="30.0340083707"><ele>86.66</ele><time>2026-04-25T08:55:09Z</time></trkpt><trkpt lat="59.0893669333" lon="30.0339813810"><ele>88.58</ele><time>2026-04-25T08:55:10Z</time></trkpt><trkpt lat="59.0893513430" lon="30.0339315087"><ele>91.94</ele><time>2026-04-25T08:55:15Z</time></trkpt><trkpt lat="59.0893542767" lon="30.0339305867"><ele>90.98</ele><time>2026-04-25T08:55:16Z</time></trkpt><trkpt lat="59.0894332342" lon="30.0339840632"><ele>90.50</ele><time>2026-04-25T08:55:33Z</time></trkpt><trkpt lat="59.0895297937" lon="30.0340631884"><ele>90.02</ele><time>2026-04-25T08:55:49Z</time></trkpt><trkpt lat="59.0896217432" lon="30.0340338517"><ele>89.54</ele><time>2026-04-25T08:56:14Z</time></trkpt><trkpt lat="59.0896841884" lon="30.0340108015"><ele>87.14</ele><time>2026-04-25T08:56:22Z</time></trkpt><trkpt lat="59.0897152852" lon="30.0339770224"><ele>89.54</ele><time>2026-04-25T08:56:28Z</time></trkpt><trkpt lat="59.0896780696" lon="30.0340805389"><ele>89.06</ele><time>2026-04-25T08:56:53Z</time></trkpt><trkpt lat="59.0896166302" lon="30.0342065189"><ele>88.58</ele><time>2026-04-25T08:57:21Z</time></trkpt><trkpt lat="59.0896479785" lon="30.0341719855"><ele>89.06</ele><time>2026-04-25T08:57:54Z</time></trkpt><trkpt lat="59.0896503255" lon="30.0341833849"><ele>90.02</ele><time>2026-04-25T08:58:25Z</time></trkpt><trkpt lat="59.0897493996" lon="30.0340402219"><ele>90.02</ele><time>2026-04-25T08:58:43Z</time></trkpt><trkpt lat="59.0898040496" lon="30.0338298362"><ele>90.50</ele><time>2026-04-25T08:59:02Z</time></trkpt><trkpt lat="59.0898473840" lon="30.0336988270"><ele>90.50</ele><time>2026-04-25T08:59:22Z</time></trkpt><trkpt lat="59.0898997709" lon="30.0336760283"><ele>90.50</ele><time>2026-04-25T08:59:40Z</time></trkpt><trkpt lat="59.0899804886" lon="30.0336425006"><ele>90.98</ele><time>2026-04-25T08:59:56Z</time></trkpt><trkpt lat="59.0900665708" lon="30.0336425006"><ele>91.46</ele><time>2026-04-25T09:00:15Z</time></trkpt><trkpt lat="59.0901501384" lon="30.0336091407"><ele>91.46</ele><time>2026-04-25T09:00:29Z</time></trkpt><trkpt lat="59.0902612824" lon="30.0335932989"><ele>91.94</ele><time>2026-04-25T09:00:48Z</time></trkpt><trkpt lat="59.0903549921" lon="30.0334656425"><ele>91.94</ele><time>2026-04-25T09:01:05Z</time></trkpt><trkpt lat="59.0903860889" lon="30.0334527344"><ele>92.42</ele><time>2026-04-25T09:01:20Z</time></trkpt><trkpt lat="59.0904734284" lon="30.0333361421"><ele>92.42</ele><time>2026-04-25T09:01:37Z</time></trkpt><trkpt lat="59.0905002505" lon="30.0332468748"><ele>89.06</ele><time>2026-04-25T09:01:48Z</time></trkpt><trkpt lat="59.0904937126" lon="30.0332442764"><ele>89.06</ele><time>2026-04-25T09:01:49Z</time></trkpt><trkpt lat="59.0904913656" lon="30.0331987627"><ele>90.50</ele><time>2026-04-25T09:01:54Z</time></trkpt><trkpt lat="59.0905051958" lon="30.0332223997"><ele>91.94</ele><time>2026-04-25T09:01:57Z</time></trkpt><trkpt lat="59.0905636176" lon="30.0331614632"><ele>91.46</ele><time>2026-04-25T09:02:16Z</time></trkpt><trkpt lat="59.0906765219" lon="30.0331272651"><ele>90.98</ele><time>2026-04-25T09:02:38Z</time></trkpt><trkpt lat="59.0907240473" lon="30.0330674183"><ele>91.46</ele><time>2026-04-25T09:02:57Z</time></trkpt><trkpt lat="59.0907821339" lon="30.0329912268"><ele>91.46</ele><time>2026-04-25T09:03:15Z</time></trkpt><trkpt lat="59.0908339340" lon="30.0329516642"><ele>90.02</ele><time>2026-04-25T09:03:25Z</time></trkpt><trkpt lat="59.0908526257" lon="30.0328649115"><ele>90.50</ele><time>2026-04-25T09:03:44Z</time></trkpt><trkpt lat="59.0908392146" lon="30.0329417735"><ele>90.02</ele><time>2026-04-25T09:04:06Z</time></trkpt><trkpt lat="59.0908348560" lon="30.0328463875"><ele>90.02</ele><time>2026-04-25T09:04:30Z</time></trkpt><trkpt lat="59.0909057669" lon="30.0329675060"><ele>90.50</ele><time>2026-04-25T09:05:01Z</time></trkpt><trkpt lat="59.0909201000" lon="30.0328970142"><ele>88.58</ele><time>2026-04-25T09:05:17Z</time></trkpt><trkpt lat="59.0909079462" lon="30.0328790769"><ele>86.66</ele><time>2026-04-25T09:05:19Z</time></trkpt><trkpt lat="59.0908702277" lon="30.0327990297"><ele>86.66</ele><time>2026-04-25T09:05:26Z</time></trkpt><trkpt lat="59.0908662044" lon="30.0327801704"><ele>91.94</ele><time>2026-04-25T09:05:27Z</time></trkpt><trkpt lat="59.0908643603" lon="30.0327792484"><ele>91.94</ele><time>2026-04-25T09:05:28Z</time></trkpt><trkpt lat="59.0909152385" lon="30.0329117663"><ele>90.98</ele><time>2026-04-25T09:05:56Z</time></trkpt><trkpt lat="59.0908855665" lon="30.0327896420"><ele>91.94</ele><time>2026-04-25T09:06:16Z</time></trkpt><trkpt lat="59.0908957087" lon="30.0327704474"><ele>91.94</ele><time>2026-04-25T09:06:35Z</time></trkpt><trkpt lat="59.0908189304" lon="30.0328021310"><ele>90.98</ele><time>2026-04-25T09:07:02Z</time></trkpt><trkpt lat="59.0908404719" lon="30.0326277036"><ele>92.42</ele><time>2026-04-25T09:07:25Z</time></trkpt><trkpt lat="59.0908262227" lon="30.0326541904"><ele>92.42</ele><time>2026-04-25T09:07:35Z</time></trkpt><trkpt lat="59.0908268932" lon="30.0326703675"><ele>90.98</ele><time>2026-04-25T09:07:38Z</time></trkpt><trkpt lat="59.0908325091" lon="30.0326675177"><ele>92.42</ele><time>2026-04-25T09:07:43Z</time></trkpt><trkpt lat="59.0908375382" lon="30.0327064935"><ele>91.46</ele><time>2026-04-25T09:07:52Z</time></trkpt><trkpt lat="59.0910100378" lon="30.0329652429"><ele>91.94</ele><time>2026-04-25T09:08:16Z</time></trkpt><trkpt lat="59.0911278874" lon="30.0328691024"><ele>91.94</ele><time>2026-04-25T09:08:36Z</time></trkpt><trkpt lat="59.0911224391" lon="30.0328505784"><ele>91.94</ele><time>2026-04-25T09:08:59Z</time></trkpt><trkpt lat="59.0911487583" lon="30.0328880455"><ele>91.46</ele><time>2026-04-25T09:09:27Z</time></trkpt><trkpt lat="59.0911335871" lon="30.0329079106"><ele>91.46</ele><time>2026-04-25T09:09:54Z</time></trkpt><trkpt lat="59.0911485907" lon="30.0329214055"><ele>92.90</ele><time>2026-04-25T09:10:22Z</time></trkpt><trkpt lat="59.0912081022" lon="30.0328358263"><ele>92.90</ele><time>2026-04-25T09:10:53Z</time></trkpt><trkpt lat="59.0911261272" lon="30.0329197291"><ele>92.42</ele><time>2026-04-25T09:11:19Z</time></trkpt><trkpt lat="59.0911021549" lon="30.0329352356"><ele>92.90</ele><time>2026-04-25T09:11:43Z</time></trkpt><trkpt lat="59.0910485107" lon="30.0329420250"><ele>93.39</ele><time>2026-04-25T09:12:09Z</time></trkpt><trkpt lat="59.0910157375" lon="30.0330074877"><ele>93.39</ele><time>2026-04-25T09:12:36Z</time></trkpt><trkpt lat="59.0910376143" lon="30.0329806656"><ele>93.39</ele><time>2026-04-25T09:13:04Z</time></trkpt><trkpt lat="59.0910311602" lon="30.0329785701"><ele>92.90</ele><time>2026-04-25T09:13:37Z</time></trkpt><trkpt lat="59.0910282265" lon="30.0328404363"><ele>93.39</ele><time>2026-04-25T09:14:06Z</time></trkpt><trkpt lat="59.0909989737" lon="30.0328487344"><ele>93.39</ele><time>2026-04-25T09:14:31Z</time></trkpt><trkpt lat="59.0910627600" lon="30.0328286178"><ele>93.39</ele><time>2026-04-25T09:14:55Z</time></trkpt><trkpt lat="59.0910974611" lon="30.0328692701"><ele>93.87</ele><time>2026-04-25T09:15:17Z</time></trkpt><trkpt lat="59.0911568049" lon="30.0328856986"><ele>93.39</ele><time>2026-04-25T09:15:36Z</time></trkpt><trkpt lat="59.0912083536" lon="30.0328411907"><ele>93.87</ele><time>2026-04-25T09:15:53Z</time></trkpt><trkpt lat="59.0913260356" lon="30.0327857863"><ele>94.35</ele><time>2026-04-25T09:16:11Z</time></trkpt><trkpt lat="59.0913769975" lon="30.0326697808"><ele>89.06</ele><time>2026-04-25T09:16:21Z</time></trkpt><trkpt lat="59.0913831163" lon="30.0326665118"><ele>93.87</ele><time>2026-04-25T09:16:22Z</time></trkpt><trkpt lat="59.0914653428" lon="30.0325603969"><ele>94.35</ele><time>2026-04-25T09:16:41Z</time></trkpt><trkpt lat="59.0915694460" lon="30.0323961955"><ele>94.35</ele><time>2026-04-25T09:17:03Z</time></trkpt><trkpt lat="59.0916326456" lon="30.0323353428"><ele>94.35</ele><time>2026-04-25T09:17:21Z</time></trkpt><trkpt lat="59.0917388443" lon="30.0322179962"><ele>95.31</ele><time>2026-04-25T09:17:40Z</time></trkpt><trkpt lat="59.0917736292" lon="30.0321726501"><ele>95.31</ele><time>2026-04-25T09:17:55Z</time></trkpt><trkpt lat="59.0918434504" lon="30.0320943631"><ele>94.83</ele><time>2026-04-25T09:18:14Z</time></trkpt><trkpt lat="59.0918760560" lon="30.0320489332"><ele>94.83</ele><time>2026-04-25T09:18:32Z</time></trkpt><trkpt lat="59.0919510741" lon="30.0319724064"><ele>94.83</ele><time>2026-04-25T09:18:50Z</time></trkpt><trkpt lat="59.0920036286" lon="30.0319913495"><ele>91.46</ele><time>2026-04-25T09:19:03Z</time></trkpt><trkpt lat="59.0920049697" lon="30.0319750048"><ele>88.10</ele><time>2026-04-25T09:19:04Z</time></trkpt><trkpt lat="59.0920063946" lon="30.0319384597"><ele>92.90</ele><time>2026-04-25T09:19:05Z</time></trkpt><trkpt lat="59.0920100827" lon="30.0319229532"><ele>92.90</ele><time>2026-04-25T09:19:06Z</time></trkpt><trkpt lat="59.0920193866" lon="30.0318771880"><ele>94.35</ele><time>2026-04-25T09:19:11Z</time></trkpt><trkpt lat="59.0921238251" lon="30.0318000745"><ele>94.35</ele><time>2026-04-25T09:19:32Z</time></trkpt><trkpt lat="59.0921749547" lon="30.0317450892"><ele>94.35</ele><time>2026-04-25T09:19:55Z</time></trkpt><trkpt lat="59.0922357235" lon="30.0316363759"><ele>94.35</ele><time>2026-04-25T09:20:12Z</time></trkpt><trkpt lat="59.0923007671" lon="30.0316652097"><ele>94.35</ele><time>2026-04-25T09:20:26Z</time></trkpt><trkpt lat="59.0923759528" lon="30.0314871781"><ele>94.35</ele><time>2026-04-25T09:20:44Z</time></trkpt><trkpt lat="59.0924717579" lon="30.0313916244"><ele>94.35</ele><time>2026-04-25T09:20:59Z</time></trkpt><trkpt lat="59.0924756136" lon="30.0313845836"><ele>89.54</ele><time>2026-04-25T09:21:05Z</time></trkpt><trkpt lat="59.0924688242" lon="30.0313548278"><ele>92.90</ele><time>2026-04-25T09:21:06Z</time></trkpt><trkpt lat="59.0925036930" lon="30.0312327035"><ele>92.42</ele><time>2026-04-25T09:21:22Z</time></trkpt><trkpt lat="59.0924506355" lon="30.0313231442"><ele>93.39</ele><time>2026-04-25T09:21:44Z</time></trkpt><trkpt lat="59.0924656391" lon="30.0314704143"><ele>92.90</ele><time>2026-04-25T09:22:17Z</time></trkpt><trkpt lat="59.0925618634" lon="30.0313662272"><ele>92.90</ele><time>2026-04-25T09:22:51Z</time></trkpt><trkpt lat="59.0926393121" lon="30.0313430931"><ele>89.06</ele><time>2026-04-25T09:23:01Z</time></trkpt><trkpt lat="59.0926923696" lon="30.0312492996"><ele>91.94</ele><time>2026-04-25T09:23:08Z</time></trkpt><trkpt lat="59.0926954709" lon="30.0312394928"><ele>90.50</ele><time>2026-04-25T09:23:09Z</time></trkpt><trkpt lat="59.0927702375" lon="30.0311692525"><ele>92.42</ele><time>2026-04-25T09:23:27Z</time></trkpt><trkpt lat="59.0928896796" lon="30.0311718509"><ele>92.42</ele><time>2026-04-25T09:23:49Z</time></trkpt><trkpt lat="59.0929549746" lon="30.0311318692"><ele>91.94</ele><time>2026-04-25T09:24:08Z</time></trkpt><trkpt lat="59.0929742530" lon="30.0310446136"><ele>91.94</ele><time>2026-04-25T09:24:27Z</time></trkpt><trkpt lat="59.0930683818" lon="30.0309561007"><ele>93.87</ele><time>2026-04-25T09:24:45Z</time></trkpt><trkpt lat="59.0930776019" lon="30.0308953319"><ele>90.02</ele><time>2026-04-25T09:24:47Z</time></trkpt><trkpt lat="59.0930786077" lon="30.0308864471"><ele>90.02</ele><time>2026-04-25T09:24:48Z</time></trkpt><trkpt lat="59.0931233671" lon="30.0308491476"><ele>92.42</ele><time>2026-04-25T09:25:02Z</time></trkpt><trkpt lat="59.0932716429" lon="30.0308060646"><ele>92.42</ele><time>2026-04-25T09:25:23Z</time></trkpt><trkpt lat="59.0934397001" lon="30.0307194795"><ele>91.94</ele><time>2026-04-25T09:25:42Z</time></trkpt><trkpt lat="59.0935378522" lon="30.0307009555"><ele>91.94</ele><time>2026-04-25T09:26:02Z</time></trkpt><trkpt lat="59.0936707892" lon="30.0305662584"><ele>91.94</ele><time>2026-04-25T09:26:21Z</time></trkpt><trkpt lat="59.0937339887" lon="30.0304195751"><ele>92.42</ele><time>2026-04-25T09:26:41Z</time></trkpt><trkpt lat="59.0938354097" lon="30.0304316450"><ele>91.46</ele><time>2026-04-25T09:26:58Z</time></trkpt><trkpt lat="59.0938465577" lon="30.0303919148"><ele>86.66</ele><time>2026-04-25T09:27:05Z</time></trkpt><trkpt lat="59.0938471444" lon="30.0304018054"><ele>86.66</ele><time>2026-04-25T09:27:06Z</time></trkpt><trkpt lat="59.0938719548" lon="30.0304101035"><ele>92.42</ele><time>2026-04-25T09:27:10Z</time></trkpt><trkpt lat="59.0938748047" lon="30.0304070022"><ele>91.94</ele><time>2026-04-25T09:27:11Z</time></trkpt><trkpt lat="59.0938933287" lon="30.0304163899"><ele>88.58</ele><time>2026-04-25T09:27:17Z</time></trkpt><trkpt lat="59.0940304566" lon="30.0303997099"><ele>90.50</ele><time>2026-04-25T09:27:38Z</time></trkpt><trkpt lat="59.0941198077" lon="30.0303262845"><ele>89.54</ele><time>2026-04-25T09:27:57Z</time></trkpt><trkpt lat="59.0941965021" lon="30.0302749872"><ele>88.58</ele><time>2026-04-25T09:28:07Z</time></trkpt><trkpt lat="59.0942179598" lon="30.0303102750"><ele>90.02</ele><time>2026-04-25T09:28:09Z</time></trkpt><trkpt lat="59.0943193808" lon="30.0302465726"><ele>90.98</ele><time>2026-04-25T09:28:27Z</time></trkpt><trkpt lat="59.0944234002" lon="30.0303423777"><ele>90.98</ele><time>2026-04-25T09:28:47Z</time></trkpt><trkpt lat="59.0945181996" lon="30.0302514341"><ele>85.21</ele><time>2026-04-25T09:29:04Z</time></trkpt><trkpt lat="59.0945192054" lon="30.0302436389"><ele>89.54</ele><time>2026-04-25T09:29:05Z</time></trkpt><trkpt lat="59.0945028607" lon="30.0301924255"><ele>90.50</ele><time>2026-04-25T09:29:11Z</time></trkpt><trkpt lat="59.0945654735" lon="30.0302768312"><ele>90.02</ele><time>2026-04-25T09:29:31Z</time></trkpt><trkpt lat="59.0945996717" lon="30.0303390250"><ele>88.58</ele><time>2026-04-25T09:29:58Z</time></trkpt><trkpt lat="59.0946258232" lon="30.0302956067"><ele>89.54</ele><time>2026-04-25T09:30:28Z</time></trkpt><trkpt lat="59.0946176089" lon="30.0301982928"><ele>89.54</ele><time>2026-04-25T09:30:54Z</time></trkpt><trkpt lat="59.0945874341" lon="30.0303432159"><ele>89.06</ele><time>2026-04-25T09:31:26Z</time></trkpt><trkpt lat="59.0946047008" lon="30.0303221773"><ele>88.58</ele><time>2026-04-25T09:31:58Z</time></trkpt><trkpt lat="59.0946773719" lon="30.0301035773"><ele>88.58</ele><time>2026-04-25T09:32:17Z</time></trkpt><trkpt lat="59.0947404876" lon="30.0301887374"><ele>88.58</ele><time>2026-04-25T09:32:36Z</time></trkpt><trkpt lat="59.0948162600" lon="30.0302323233"><ele>89.06</ele><time>2026-04-25T09:32:55Z</time></trkpt><trkpt lat="59.0948988218" lon="30.0302047469"><ele>89.06</ele><time>2026-04-25T09:33:11Z</time></trkpt><trkpt lat="59.0949120652" lon="30.0302010588"><ele>89.06</ele><time>2026-04-25T09:33:12Z</time></trkpt><trkpt lat="59.0949504543" lon="30.0301511865"><ele>84.25</ele><time>2026-04-25T09:33:17Z</time></trkpt><trkpt lat="59.0949511249" lon="30.0301582273"><ele>87.14</ele><time>2026-04-25T09:33:18Z</time></trkpt><trkpt lat="59.0950057749" lon="30.0300870650"><ele>87.62</ele><time>2026-04-25T09:33:39Z</time></trkpt><trkpt lat="59.0951030049" lon="30.0301112887"><ele>88.10</ele><time>2026-04-25T09:33:52Z</time></trkpt><trkpt lat="59.0952215251" lon="30.0301505998"><ele>87.62</ele><time>2026-04-25T09:34:09Z</time></trkpt><trkpt lat="59.0953019913" lon="30.0300568901"><ele>87.62</ele><time>2026-04-25T09:34:24Z</time></trkpt><trkpt lat="59.0954487585" lon="30.0298904255"><ele>88.10</ele><time>2026-04-25T09:34:41Z</time></trkpt><trkpt lat="59.0955117904" lon="30.0297852326"><ele>87.62</ele><time>2026-04-25T09:34:58Z</time></trkpt><trkpt lat="59.0956143849" lon="30.0296717416"><ele>88.58</ele><time>2026-04-25T09:35:15Z</time></trkpt><trkpt lat="59.0956765786" lon="30.0296120625"><ele>87.62</ele><time>2026-04-25T09:35:32Z</time></trkpt><trkpt lat="59.0957796760" lon="30.0295775291"><ele>88.10</ele><time>2026-04-25T09:35:46Z</time></trkpt><trkpt lat="59.0959239285" lon="30.0294797961"><ele>88.10</ele><time>2026-04-25T09:36:04Z</time></trkpt><trkpt lat="59.0960039757" lon="30.0293584261"><ele>87.62</ele><time>2026-04-25T09:36:17Z</time></trkpt><trkpt lat="59.0961264353" lon="30.0292890240"><ele>87.14</ele><time>2026-04-25T09:36:32Z</time></trkpt><trkpt lat="59.0961726196" lon="30.0292737689"><ele>88.10</ele><time>2026-04-25T09:36:46Z</time></trkpt><trkpt lat="59.0962277725" lon="30.0293523911"><ele>87.14</ele><time>2026-04-25T09:37:00Z</time></trkpt><trkpt lat="59.0962754656" lon="30.0293160137"><ele>86.66</ele><time>2026-04-25T09:37:13Z</time></trkpt><trkpt lat="59.0963390842" lon="30.0293116551"><ele>86.66</ele><time>2026-04-25T09:37:30Z</time></trkpt><trkpt lat="59.0962908883" lon="30.0293676462"><ele>86.18</ele><time>2026-04-25T09:37:55Z</time></trkpt><trkpt lat="59.0964247473" lon="30.0293399859"><ele>85.21</ele><time>2026-04-25T09:38:19Z</time></trkpt><trkpt lat="59.0964383259" lon="30.0292411633"><ele>84.25</ele><time>2026-04-25T09:38:41Z</time></trkpt><trkpt lat="59.0964611247" lon="30.0292203762"><ele>84.73</ele><time>2026-04-25T09:39:04Z</time></trkpt><trkpt lat="59.0965631325" lon="30.0291695818"><ele>84.73</ele><time>2026-04-25T09:39:25Z</time></trkpt><trkpt lat="59.0966247395" lon="30.0291187037"><ele>85.69</ele><time>2026-04-25T09:39:39Z</time></trkpt><trkpt lat="59.0967497136" lon="30.0290249102"><ele>85.69</ele><time>2026-04-25T09:39:59Z</time></trkpt><trkpt lat="59.0968881827" lon="30.0289478805"><ele>86.18</ele><time>2026-04-25T09:40:17Z</time></trkpt><trkpt lat="59.0969316848" lon="30.0289824978"><ele>86.18</ele><time>2026-04-25T09:40:34Z</time></trkpt><trkpt lat="59.0970258974" lon="30.0290679932"><ele>86.66</ele><time>2026-04-25T09:40:50Z</time></trkpt><trkpt lat="59.0971096326" lon="30.0290553365"><ele>86.66</ele><time>2026-04-25T09:41:02Z</time></trkpt><trkpt lat="59.0972445812" lon="30.0289377384"><ele>86.18</ele><time>2026-04-25T09:41:18Z</time></trkpt><trkpt lat="59.0973556414" lon="30.0288307853"><ele>86.66</ele><time>2026-04-25T09:41:35Z</time></trkpt><trkpt lat="59.0975041687" lon="30.0288111717"><ele>86.18</ele><time>2026-04-25T09:41:54Z</time></trkpt><trkpt lat="59.0975549631" lon="30.0286772288"><ele>86.18</ele><time>2026-04-25T09:42:11Z</time></trkpt><trkpt lat="59.0976274665" lon="30.0287040509"><ele>83.29</ele><time>2026-04-25T09:42:24Z</time></trkpt><trkpt lat="59.0976252872" lon="30.0286980160"><ele>83.29</ele><time>2026-04-25T09:42:25Z</time></trkpt><trkpt lat="59.0976355132" lon="30.0286708586"><ele>86.18</ele><time>2026-04-25T09:42:29Z</time></trkpt><trkpt lat="59.0976357646" lon="30.0286634825"><ele>86.18</ele><time>2026-04-25T09:42:30Z</time></trkpt><trkpt lat="59.0976380277" lon="30.0286383368"><ele>82.81</ele><time>2026-04-25T09:42:35Z</time></trkpt><trkpt lat="59.0976374410" lon="30.0286382530"><ele>85.21</ele><time>2026-04-25T09:42:38Z</time></trkpt><trkpt lat="59.0976747405" lon="30.0288229063"><ele>82.81</ele><time>2026-04-25T09:43:12Z</time></trkpt><trkpt lat="59.0977165662" lon="30.0287513249"><ele>83.77</ele><time>2026-04-25T09:43:47Z</time></trkpt><trkpt lat="59.0978196636" lon="30.0286934059"><ele>83.77</ele><time>2026-04-25T09:44:04Z</time></trkpt><trkpt lat="59.0978609025" lon="30.0286514964"><ele>84.25</ele><time>2026-04-25T09:44:22Z</time></trkpt><trkpt lat="59.0979728848" lon="30.0286400970"><ele>84.73</ele><time>2026-04-25T09:44:41Z</time></trkpt><trkpt lat="59.0980584640" lon="30.0285711978"><ele>84.25</ele><time>2026-04-25T09:44:59Z</time></trkpt><trkpt lat="59.0982185584" lon="30.0284740515"><ele>84.73</ele><time>2026-04-25T09:45:17Z</time></trkpt><trkpt lat="59.0982794110" lon="30.0284283701"><ele>84.73</ele><time>2026-04-25T09:45:35Z</time></trkpt><trkpt lat="59.0983813349" lon="30.0283058267"><ele>84.73</ele><time>2026-04-25T09:45:54Z</time></trkpt><trkpt lat="59.0984786488" lon="30.0282780826"><ele>79.45</ele><time>2026-04-25T09:46:08Z</time></trkpt><trkpt lat="59.0984633099" lon="30.0282350834"><ele>82.33</ele><time>2026-04-25T09:46:10Z</time></trkpt><trkpt lat="59.0984674171" lon="30.0282087643"><ele>82.81</ele><time>2026-04-25T09:46:22Z</time></trkpt><trkpt lat="59.0984743740" lon="30.0280949380"><ele>82.33</ele><time>2026-04-25T09:46:44Z</time></trkpt><trkpt lat="59.0984704345" lon="30.0280467421"><ele>65.51</ele><time>2026-04-25T09:47:11Z</time></trkpt><trkpt lat="59.0984683391" lon="30.0280442275"><ele>68.39</ele><time>2026-04-25T09:47:12Z</time></trkpt><trkpt lat="59.0984669141" lon="30.0280418806"><ele>72.72</ele><time>2026-04-25T09:47:13Z</time></trkpt><trkpt lat="59.0984586999" lon="30.0280091912"><ele>76.08</ele><time>2026-04-25T09:47:18Z</time></trkpt><trkpt lat="59.0984441992" lon="30.0279995520"><ele>77.52</ele><time>2026-04-25T09:47:21Z</time></trkpt><trkpt lat="59.0984395891" lon="30.0280992966"><ele>80.89</ele><time>2026-04-25T09:47:35Z</time></trkpt><trkpt lat="59.0984287765" lon="30.0281185750"><ele>76.56</ele><time>2026-04-25T09:47:39Z</time></trkpt><trkpt lat="59.0984288603" lon="30.0281355903"><ele>76.56</ele><time>2026-04-25T09:47:40Z</time></trkpt><trkpt lat="59.0984320454" lon="30.0281577185"><ele>78.00</ele><time>2026-04-25T09:47:42Z</time></trkpt><trkpt lat="59.0985000227" lon="30.0281831995"><ele>80.41</ele><time>2026-04-25T09:48:10Z</time></trkpt><trkpt lat="59.0985237435" lon="30.0281916652"><ele>77.52</ele><time>2026-04-25T09:48:21Z</time></trkpt><trkpt lat="59.0985428542" lon="30.0281940121"><ele>77.52</ele><time>2026-04-25T09:48:45Z</time></trkpt><trkpt lat="59.0985347237" lon="30.0281345844"><ele>70.79</ele><time>2026-04-25T09:49:02Z</time></trkpt><trkpt lat="59.0985293593" lon="30.0281369314"><ele>74.16</ele><time>2026-04-25T09:49:03Z</time></trkpt><trkpt lat="59.0985213965" lon="30.0281402841"><ele>75.60</ele><time>2026-04-25T09:49:05Z</time></trkpt><trkpt lat="59.0984975081" lon="30.0281350035"><ele>79.45</ele><time>2026-04-25T09:49:09Z</time></trkpt><trkpt lat="59.0984955803" lon="30.0281326566"><ele>79.45</ele><time>2026-04-25T09:49:10Z</time></trkpt><trkpt lat="59.0984374937" lon="30.0281453971"><ele>79.93</ele><time>2026-04-25T09:49:36Z</time></trkpt><trkpt lat="59.0984283574" lon="30.0279463269"><ele>80.41</ele><time>2026-04-25T09:50:02Z</time></trkpt><trkpt lat="59.0983848553" lon="30.0279444829"><ele>76.08</ele><time>2026-04-25T09:50:25Z</time></trkpt><trkpt lat="59.0983861964" lon="30.0279526971"><ele>68.39</ele><time>2026-04-25T09:50:26Z</time></trkpt><trkpt lat="59.0984021220" lon="30.0279665273"><ele>85.21</ele><time>2026-04-25T09:50:27Z</time></trkpt><trkpt lat="59.0983996913" lon="30.0279667787"><ele>84.25</ele><time>2026-04-25T09:50:28Z</time></trkpt><trkpt lat="59.0983882081" lon="30.0281062536"><ele>83.77</ele><time>2026-04-25T09:50:42Z</time></trkpt><trkpt lat="59.0984068997" lon="30.0282198284"><ele>82.81</ele><time>2026-04-25T09:50:57Z</time></trkpt><trkpt lat="59.0984274354" lon="30.0283339061"><ele>80.89</ele><time>2026-04-25T09:51:31Z</time></trkpt><trkpt lat="59.0984592028" lon="30.0283365045"><ele>80.89</ele><time>2026-04-25T09:52:04Z</time></trkpt><trkpt lat="59.0984990168" lon="30.0282548647"><ele>80.89</ele><time>2026-04-25T09:52:32Z</time></trkpt><trkpt lat="59.0984593704" lon="30.0281657651"><ele>81.37</ele><time>2026-04-25T09:53:07Z</time></trkpt><trkpt lat="59.0984452888" lon="30.0281737279"><ele>81.85</ele><time>2026-04-25T09:53:39Z</time></trkpt><trkpt lat="59.0984608792" lon="30.0281684473"><ele>81.85</ele><time>2026-04-25T09:54:01Z</time></trkpt><trkpt lat="59.0984668303" lon="30.0281281304"><ele>82.33</ele><time>2026-04-25T09:54:30Z</time></trkpt><trkpt lat="59.0984736197" lon="30.0281970296"><ele>82.81</ele><time>2026-04-25T09:54:57Z</time></trkpt><trkpt lat="59.0984483063" lon="30.0282179005"><ele>83.29</ele><time>2026-04-25T09:55:37Z</time></trkpt><trkpt lat="59.0983947460" lon="30.0282512605"><ele>83.77</ele><time>2026-04-25T09:56:06Z</time></trkpt><trkpt lat="59.0984317102" lon="30.0282108597"><ele>83.77</ele><time>2026-04-25T09:56:41Z</time></trkpt><trkpt lat="59.0984614659" lon="30.0281723030"><ele>84.25</ele><time>2026-04-25T09:57:12Z</time></trkpt><trkpt lat="59.0984721109" lon="30.0281778350"><ele>84.73</ele><time>2026-04-25T09:57:38Z</time></trkpt><trkpt lat="59.0984650701" lon="30.0281738956"><ele>85.21</ele><time>2026-04-25T09:58:12Z</time></trkpt><trkpt lat="59.0984693449" lon="30.0281270407"><ele>85.21</ele><time>2026-04-25T09:58:47Z</time></trkpt><trkpt lat="59.0984428581" lon="30.0280948542"><ele>85.69</ele><time>2026-04-25T09:59:13Z</time></trkpt><trkpt lat="59.0984385833" lon="30.0281106122"><ele>85.69</ele><time>2026-04-25T09:59:39Z</time></trkpt><trkpt lat="59.0984510724" lon="30.0281198323"><ele>86.18</ele><time>2026-04-25T10:00:07Z</time></trkpt><trkpt lat="59.0984696802" lon="30.0281852949"><ele>86.18</ele><time>2026-04-25T10:00:44Z</time></trkpt><trkpt lat="59.0984509885" lon="30.0281853788"><ele>85.69</ele><time>2026-04-25T10:01:21Z</time></trkpt><trkpt lat="59.0984447021" lon="30.0281573832"><ele>86.18</ele><time>2026-04-25T10:01:53Z</time></trkpt><trkpt lat="59.0984880365" lon="30.0281495042"><ele>86.66</ele><time>2026-04-25T10:02:31Z</time></trkpt><trkpt lat="59.0984644834" lon="30.0281219278"><ele>86.18</ele><time>2026-04-25T10:03:05Z</time></trkpt><trkpt lat="59.0984579455" lon="30.0281659327"><ele>86.18</ele><time>2026-04-25T10:03:34Z</time></trkpt><trkpt lat="59.0984715242" lon="30.0281317346"><ele>86.18</ele><time>2026-04-25T10:03:48Z</time></trkpt><trkpt lat="59.0984717757" lon="30.0281394459"><ele>81.37</ele><time>2026-04-25T10:03:53Z</time></trkpt><trkpt lat="59.0984678362" lon="30.0281432178"><ele>85.21</ele><time>2026-04-25T10:03:57Z</time></trkpt><trkpt lat="59.0984649025" lon="30.0281457324"><ele>81.37</ele><time>2026-04-25T10:03:59Z</time></trkpt><trkpt lat="59.0984650701" lon="30.0281460676"><ele>84.73</ele><time>2026-04-25T10:04:00Z</time></trkpt><trkpt lat="59.0984607115" lon="30.0281542819"><ele>81.37</ele><time>2026-04-25T10:04:03Z</time></trkpt><trkpt lat="59.0984545089" lon="30.0281567965"><ele>88.10</ele><time>2026-04-25T10:04:05Z</time></trkpt><trkpt lat="59.0984529164" lon="30.0281552877"><ele>87.62</ele><time>2026-04-25T10:04:06Z</time></trkpt><trkpt lat="59.0984514076" lon="30.0281460676"><ele>86.66</ele><time>2026-04-25T10:04:08Z</time></trkpt><trkpt lat="59.0984493960" lon="30.0281385239"><ele>88.10</ele><time>2026-04-25T10:04:11Z</time></trkpt><trkpt lat="59.0984498989" lon="30.0281349197"><ele>83.77</ele><time>2026-04-25T10:04:13Z</time></trkpt><trkpt lat="59.0984514076" lon="30.0281296391"><ele>84.25</ele><time>2026-04-25T10:04:14Z</time></trkpt><trkpt lat="59.0984573588" lon="30.0281256158"><ele>79.93</ele><time>2026-04-25T10:04:16Z</time></trkpt><trkpt lat="59.0984597895" lon="30.0281265378"><ele>86.66</ele><time>2026-04-25T10:04:17Z</time></trkpt><trkpt lat="59.0984638128" lon="30.0281244423"><ele>88.10</ele><time>2026-04-25T10:04:19Z</time></trkpt><trkpt lat="59.0984649863" lon="30.0281578023"><ele>86.66</ele><time>2026-04-25T10:04:35Z</time></trkpt><trkpt lat="59.0984642319" lon="30.0281597301"><ele>88.58</ele><time>2026-04-25T10:04:38Z</time></trkpt><trkpt lat="59.0984742064" lon="30.0281228498"><ele>86.18</ele><time>2026-04-25T10:05:00Z</time></trkpt><trkpt lat="59.0984745417" lon="30.0281209219"><ele>83.29</ele><time>2026-04-25T10:05:02Z</time></trkpt><trkpt lat="59.0984783974" lon="30.0281233527"><ele>82.33</ele><time>2026-04-25T10:05:04Z</time></trkpt><trkpt lat="59.0984607115" lon="30.0281107798"><ele>84.73</ele><time>2026-04-25T10:05:16Z</time></trkpt><trkpt lat="59.0984861925" lon="30.0281334110"><ele>84.25</ele><time>2026-04-25T10:05:42Z</time></trkpt><trkpt lat="59.0985139366" lon="30.0280680321"><ele>84.73</ele><time>2026-04-25T10:06:13Z</time></trkpt><trkpt lat="59.0985251684" lon="30.0280531123"><ele>83.29</ele><time>2026-04-25T10:06:27Z</time></trkpt><trkpt lat="59.0985055547" lon="30.0280230213"><ele>85.21</ele><time>2026-04-25T10:06:48Z</time></trkpt><trkpt lat="59.0984830074" lon="30.0279610790"><ele>85.21</ele><time>2026-04-25T10:07:04Z</time></trkpt><trkpt lat="59.0984790679" lon="30.0277906749"><ele>85.69</ele><time>2026-04-25T10:07:21Z</time></trkpt><trkpt lat="59.0984279383" lon="30.0276114698"><ele>86.18</ele><time>2026-04-25T10:07:36Z</time></trkpt><trkpt lat="59.0983727854" lon="30.0274837296"><ele>87.62</ele><time>2026-04-25T10:07:56Z</time></trkpt><trkpt lat="59.0983318817" lon="30.0273205340"><ele>88.10</ele><time>2026-04-25T10:08:12Z</time></trkpt><trkpt lat="59.0983136091" lon="30.0272915326"><ele>88.58</ele><time>2026-04-25T10:08:22Z</time></trkpt><trkpt lat="59.0982931573" lon="30.0272020139"><ele>89.06</ele><time>2026-04-25T10:08:39Z</time></trkpt><trkpt lat="59.0982509963" lon="30.0271060411"><ele>89.06</ele><time>2026-04-25T10:08:57Z</time></trkpt><trkpt lat="59.0982344002" lon="30.0269886944"><ele>89.54</ele><time>2026-04-25T10:09:14Z</time></trkpt><trkpt lat="59.0982514992" lon="30.0268046279"><ele>89.54</ele><time>2026-04-25T10:09:31Z</time></trkpt><trkpt lat="59.0982509125" lon="30.0265870336"><ele>90.02</ele><time>2026-04-25T10:09:50Z</time></trkpt><trkpt lat="59.0982162114" lon="30.0264934916"><ele>87.62</ele><time>2026-04-25T10:09:55Z</time></trkpt><trkpt lat="59.0981869586" lon="30.0265002809"><ele>90.02</ele><time>2026-04-25T10:10:02Z</time></trkpt><trkpt lat="59.0981793310" lon="30.0264847744"><ele>88.58</ele><time>2026-04-25T10:10:04Z</time></trkpt><trkpt lat="59.0981700271" lon="30.0263130292"><ele>89.06</ele><time>2026-04-25T10:10:27Z</time></trkpt><trkpt lat="59.0981886350" lon="30.0261645019"><ele>89.06</ele><time>2026-04-25T10:10:44Z</time></trkpt><trkpt lat="59.0982082486" lon="30.0260561239"><ele>89.06</ele><time>2026-04-25T10:11:00Z</time></trkpt><trkpt lat="59.0981899761" lon="30.0259728916"><ele>89.06</ele><time>2026-04-25T10:11:09Z</time></trkpt><trkpt lat="59.0981769003" lon="30.0259712152"><ele>88.58</ele><time>2026-04-25T10:11:17Z</time></trkpt><trkpt lat="59.0981652495" lon="30.0258934312"><ele>88.58</ele><time>2026-04-25T10:11:33Z</time></trkpt><trkpt lat="59.0981136169" lon="30.0258108694"><ele>88.10</ele><time>2026-04-25T10:11:53Z</time></trkpt><trkpt lat="59.0980745573" lon="30.0257939380"><ele>85.21</ele><time>2026-04-25T10:12:06Z</time></trkpt><trkpt lat="59.0980771556" lon="30.0258186646"><ele>84.25</ele><time>2026-04-25T10:12:25Z</time></trkpt><trkpt lat="59.0980564523" lon="30.0258190837"><ele>85.69</ele><time>2026-04-25T10:12:43Z</time></trkpt><trkpt lat="59.0980524290" lon="30.0258063432"><ele>85.21</ele><time>2026-04-25T10:13:05Z</time></trkpt><trkpt lat="59.0980481543" lon="30.0258101150"><ele>84.73</ele><time>2026-04-25T10:13:35Z</time></trkpt><trkpt lat="59.0980380122" lon="30.0258210115"><ele>84.73</ele><time>2026-04-25T10:13:52Z</time></trkpt><trkpt lat="59.0980669297" lon="30.0257644337"><ele>80.89</ele><time>2026-04-25T10:14:12Z</time></trkpt><trkpt lat="59.0980645828" lon="30.0257632602"><ele>80.41</ele><time>2026-04-25T10:14:14Z</time></trkpt><trkpt lat="59.0980839450" lon="30.0258512702"><ele>80.89</ele><time>2026-04-25T10:14:44Z</time></trkpt><trkpt lat="59.0981568675" lon="30.0259049144"><ele>83.29</ele><time>2026-04-25T10:15:14Z</time></trkpt><trkpt lat="59.0981996153" lon="30.0257694628"><ele>83.29</ele><time>2026-04-25T10:15:39Z</time></trkpt><trkpt lat="59.0981655009" lon="30.0257821195"><ele>79.93</ele><time>2026-04-25T10:16:04Z</time></trkpt><trkpt lat="59.0981342364" lon="30.0257837120"><ele>78.97</ele><time>2026-04-25T10:16:20Z</time></trkpt><trkpt lat="59.0980977751" lon="30.0259085186"><ele>82.81</ele><time>2026-04-25T10:16:50Z</time></trkpt><trkpt lat="59.0980780777" lon="30.0259611569"><ele>84.73</ele><time>2026-04-25T10:17:15Z</time></trkpt><trkpt lat="59.0980701149" lon="30.0259038247"><ele>83.77</ele><time>2026-04-25T10:17:40Z</time></trkpt><trkpt lat="59.0980691090" lon="30.0259116199"><ele>87.14</ele><time>2026-04-25T10:17:42Z</time></trkpt><trkpt lat="59.0980689414" lon="30.0259128772"><ele>87.62</ele><time>2026-04-25T10:17:43Z</time></trkpt><trkpt lat="59.0980742220" lon="30.0258693751"><ele>88.10</ele><time>2026-04-25T10:18:00Z</time></trkpt><trkpt lat="59.0980812628" lon="30.0257586502"><ele>89.06</ele><time>2026-04-25T10:18:24Z</time></trkpt><trkpt lat="59.0980670974" lon="30.0255511142"><ele>89.54</ele><time>2026-04-25T10:18:41Z</time></trkpt><trkpt lat="59.0980788320" lon="30.0254777726"><ele>90.02</ele><time>2026-04-25T10:18:59Z</time></trkpt><trkpt lat="59.0980254393" lon="30.0253106374"><ele>91.46</ele><time>2026-04-25T10:19:17Z</time></trkpt><trkpt lat="59.0980069153" lon="30.0252170116"><ele>91.94</ele><time>2026-04-25T10:19:33Z</time></trkpt><trkpt lat="59.0980644990" lon="30.0250782073"><ele>92.90</ele><time>2026-04-25T10:19:53Z</time></trkpt><trkpt lat="59.0980924107" lon="30.0249816477"><ele>92.42</ele><time>2026-04-25T10:20:14Z</time></trkpt><trkpt lat="59.0980891418" lon="30.0249707513"><ele>93.39</ele><time>2026-04-25T10:20:25Z</time></trkpt><trkpt lat="59.0981043968" lon="30.0247628801"><ele>92.90</ele><time>2026-04-25T10:20:46Z</time></trkpt><trkpt lat="59.0981207415" lon="30.0246405881"><ele>92.90</ele><time>2026-04-25T10:21:03Z</time></trkpt><trkpt lat="59.0981179755" lon="30.0244286098"><ele>93.39</ele><time>2026-04-25T10:21:17Z</time></trkpt><trkpt lat="59.0981185623" lon="30.0242870394"><ele>93.39</ele><time>2026-04-25T10:21:35Z</time></trkpt><trkpt lat="59.0980983619" lon="30.0241410267"><ele>93.39</ele><time>2026-04-25T10:21:54Z</time></trkpt><trkpt lat="59.0981108509" lon="30.0240566209"><ele>93.39</ele><time>2026-04-25T10:22:12Z</time></trkpt><trkpt lat="59.0981022175" lon="30.0239570439"><ele>93.39</ele><time>2026-04-25T10:22:40Z</time></trkpt><trkpt lat="59.0980663430" lon="30.0239061657"><ele>92.90</ele><time>2026-04-25T10:23:08Z</time></trkpt><trkpt lat="59.0980668459" lon="30.0238831155"><ele>89.54</ele><time>2026-04-25T10:23:11Z</time></trkpt><trkpt lat="59.0980676841" lon="30.0238780025"><ele>90.98</ele><time>2026-04-25T10:23:12Z</time></trkpt><trkpt lat="59.0980661754" lon="30.0238761585"><ele>92.90</ele><time>2026-04-25T10:23:14Z</time></trkpt><trkpt lat="59.0980686061" lon="30.0238990411"><ele>87.14</ele><time>2026-04-25T10:23:19Z</time></trkpt><trkpt lat="59.0980681870" lon="30.0239073392"><ele>87.14</ele><time>2026-04-25T10:23:20Z</time></trkpt><trkpt lat="59.0980586316" lon="30.0239084288"><ele>88.58</ele><time>2026-04-25T10:23:43Z</time></trkpt><trkpt lat="59.0980750602" lon="30.0238965265"><ele>88.58</ele><time>2026-04-25T10:24:12Z</time></trkpt><trkpt lat="59.0981008764" lon="30.0239137094"><ele>89.06</ele><time>2026-04-25T10:24:37Z</time></trkpt><trkpt lat="59.0980933327" lon="30.0239318144"><ele>90.50</ele><time>2026-04-25T10:25:10Z</time></trkpt><trkpt lat="59.0980689414" lon="30.0239740591"><ele>90.50</ele><time>2026-04-25T10:25:36Z</time></trkpt><trkpt lat="59.0980800893" lon="30.0240101852"><ele>90.02</ele><time>2026-04-25T10:26:10Z</time></trkpt><trkpt lat="59.0980584640" lon="30.0239567924"><ele>90.50</ele><time>2026-04-25T10:26:39Z</time></trkpt><trkpt lat="59.0980593022" lon="30.0239440519"><ele>90.02</ele><time>2026-04-25T10:27:06Z</time></trkpt><trkpt lat="59.0980748925" lon="30.0238967780"><ele>90.50</ele><time>2026-04-25T10:27:32Z</time></trkpt><trkpt lat="59.0980516747" lon="30.0239019748"><ele>87.62</ele><time>2026-04-25T10:27:45Z</time></trkpt><trkpt lat="59.0980494954" lon="30.0238933414"><ele>87.62</ele><time>2026-04-25T10:27:46Z</time></trkpt><trkpt lat="59.0980933327" lon="30.0238505937"><ele>87.62</ele><time>2026-04-25T10:28:05Z</time></trkpt><trkpt lat="59.0981761459" lon="30.0238854624"><ele>87.62</ele><time>2026-04-25T10:28:21Z</time></trkpt><trkpt lat="59.0982703585" lon="30.0238697883"><ele>88.10</ele><time>2026-04-25T10:28:43Z</time></trkpt><trkpt lat="59.0983597934" lon="30.0239793397"><ele>89.06</ele><time>2026-04-25T10:29:00Z</time></trkpt><trkpt lat="59.0984669980" lon="30.0240361691"><ele>89.54</ele><time>2026-04-25T10:29:19Z</time></trkpt><trkpt lat="59.0985565167" lon="30.0239202473"><ele>90.02</ele><time>2026-04-25T10:29:36Z</time></trkpt><trkpt lat="59.0986287687" lon="30.0238808524"><ele>90.50</ele><time>2026-04-25T10:29:56Z</time></trkpt><trkpt lat="59.0986569319" lon="30.0236796029"><ele>90.98</ele><time>2026-04-25T10:30:13Z</time></trkpt><trkpt lat="59.0987459477" lon="30.0236201752"><ele>90.98</ele><time>2026-04-25T10:30:32Z</time></trkpt><trkpt lat="59.0987795591" lon="30.0235218555"><ele>90.98</ele><time>2026-04-25T10:30:47Z</time></trkpt><trkpt lat="59.0987704229" lon="30.0235101208"><ele>90.98</ele><time>2026-04-25T10:30:48Z</time></trkpt><trkpt lat="59.0987100732" lon="30.0231793709"><ele>91.46</ele><time>2026-04-25T10:31:05Z</time></trkpt><trkpt lat="59.0986416768" lon="30.0228083041"><ele>91.94</ele><time>2026-04-25T10:31:21Z</time></trkpt><trkpt lat="59.0986325406" lon="30.0225875247"><ele>91.94</ele><time>2026-04-25T10:31:35Z</time></trkpt><trkpt lat="59.0985918045" lon="30.0224411767"><ele>92.42</ele><time>2026-04-25T10:31:48Z</time></trkpt><trkpt lat="59.0985492244" lon="30.0221545994"><ele>91.94</ele><time>2026-04-25T10:32:00Z</time></trkpt><trkpt lat="59.0984842647" lon="30.0217842031"><ele>92.42</ele><time>2026-04-25T10:32:18Z</time></trkpt><trkpt lat="59.0984255075" lon="30.0214801077"><ele>91.94</ele><time>2026-04-25T10:32:31Z</time></trkpt><trkpt lat="59.0983535908" lon="30.0211300794"><ele>91.94</ele><time>2026-04-25T10:32:47Z</time></trkpt><trkpt lat="59.0983172972" lon="30.0209177658"><ele>92.42</ele><time>2026-04-25T10:33:01Z</time></trkpt><trkpt lat="59.0982653294" lon="30.0206078030"><ele>91.94</ele><time>2026-04-25T10:33:14Z</time></trkpt><trkpt lat="59.0982385073" lon="30.0202816632"><ele>91.94</ele><time>2026-04-25T10:33:29Z</time></trkpt><trkpt lat="59.0981665067" lon="30.0199463870"><ele>91.94</ele><time>2026-04-25T10:33:44Z</time></trkpt><trkpt lat="59.0980879683" lon="30.0196012203"><ele>91.46</ele><time>2026-04-25T10:33:58Z</time></trkpt><trkpt lat="59.0980754793" lon="30.0194485858"><ele>91.94</ele><time>2026-04-25T10:34:04Z</time></trkpt><trkpt lat="59.0980017185" lon="30.0190579891"><ele>91.46</ele><time>2026-04-25T10:34:20Z</time></trkpt><trkpt lat="59.0979764052" lon="30.0187499542"><ele>90.98</ele><time>2026-04-25T10:34:34Z</time></trkpt><trkpt lat="59.0979664307" lon="30.0186194479"><ele>90.98</ele><time>2026-04-25T10:34:39Z</time></trkpt><trkpt lat="59.0979282092" lon="30.0184856728"><ele>90.98</ele><time>2026-04-25T10:34:43Z</time></trkpt><trkpt lat="59.0978526883" lon="30.0181208923"><ele>90.98</ele><time>2026-04-25T10:35:00Z</time></trkpt><trkpt lat="59.0977854654" lon="30.0177623145"><ele>90.98</ele><time>2026-04-25T10:35:16Z</time></trkpt><trkpt lat="59.0977386106" lon="30.0174621586"><ele>91.46</ele><time>2026-04-25T10:35:30Z</time></trkpt><trkpt lat="59.0977355931" lon="30.0174223445"><ele>91.46</ele><time>2026-04-25T10:35:32Z</time></trkpt><trkpt lat="59.0977354255" lon="30.0173696224"><ele>91.46</ele><time>2026-04-25T10:35:34Z</time></trkpt><trkpt lat="59.0976623353" lon="30.0170107093"><ele>91.46</ele><time>2026-04-25T10:35:49Z</time></trkpt><trkpt lat="59.0975868981" lon="30.0166849047"><ele>90.98</ele><time>2026-04-25T10:36:03Z</time></trkpt><trkpt lat="59.0975482576" lon="30.0164426677"><ele>90.98</ele><time>2026-04-25T10:36:14Z</time></trkpt><trkpt lat="59.0974943619" lon="30.0160938129"><ele>90.50</ele><time>2026-04-25T10:36:28Z</time></trkpt><trkpt lat="59.0974591579" lon="30.0158593711"><ele>90.50</ele><time>2026-04-25T10:36:37Z</time></trkpt><trkpt lat="59.0973967128" lon="30.0155530125"><ele>90.50</ele><time>2026-04-25T10:36:51Z</time></trkpt><trkpt lat="59.0973644424" lon="30.0153157208"><ele>90.02</ele><time>2026-04-25T10:37:02Z</time></trkpt><trkpt lat="59.0972921066" lon="30.0149996392"><ele>90.02</ele><time>2026-04-25T10:37:16Z</time></trkpt><trkpt lat="59.0972760133" lon="30.0149120484"><ele>90.02</ele><time>2026-04-25T10:37:21Z</time></trkpt><trkpt lat="59.0972116403" lon="30.0145968888"><ele>90.50</ele><time>2026-04-25T10:37:35Z</time></trkpt><trkpt lat="59.0971346945" lon="30.0143153407"><ele>90.02</ele><time>2026-04-25T10:37:50Z</time></trkpt><trkpt lat="59.0970773622" lon="30.0140190404"><ele>90.02</ele><time>2026-04-25T10:38:04Z</time></trkpt><trkpt lat="59.0970212035" lon="30.0137399230"><ele>89.54</ele><time>2026-04-25T10:38:16Z</time></trkpt><trkpt lat="59.0969821438" lon="30.0135760568"><ele>90.02</ele><time>2026-04-25T10:38:24Z</time></trkpt><trkpt lat="59.0969180223" lon="30.0132062472"><ele>89.54</ele><time>2026-04-25T10:38:38Z</time></trkpt><trkpt lat="59.0968737658" lon="30.0128884055"><ele>89.54</ele><time>2026-04-25T10:38:51Z</time></trkpt><trkpt lat="59.0968273301" lon="30.0126382057"><ele>89.54</ele><time>2026-04-25T10:39:02Z</time></trkpt><trkpt lat="59.0968098957" lon="30.0125409756"><ele>89.54</ele><time>2026-04-25T10:39:06Z</time></trkpt><trkpt lat="59.0967392363" lon="30.0121466909"><ele>89.54</ele><time>2026-04-25T10:39:21Z</time></trkpt><trkpt lat="59.0966836642" lon="30.0117630512"><ele>89.06</ele><time>2026-04-25T10:39:36Z</time></trkpt><trkpt lat="59.0965958219" lon="30.0112595502"><ele>89.06</ele><time>2026-04-25T10:39:52Z</time></trkpt><trkpt lat="59.0965567622" lon="30.0108555425"><ele>89.06</ele><time>2026-04-25T10:40:07Z</time></trkpt><trkpt lat="59.0965075605" lon="30.0105581526"><ele>89.06</ele><time>2026-04-25T10:40:20Z</time></trkpt><trkpt lat="59.0964845940" lon="30.0104447454"><ele>89.06</ele><time>2026-04-25T10:40:25Z</time></trkpt><trkpt lat="59.0964153595" lon="30.0100290868"><ele>89.54</ele><time>2026-04-25T10:40:42Z</time></trkpt><trkpt lat="59.0963587817" lon="30.0098284241"><ele>89.54</ele><time>2026-04-25T10:40:52Z</time></trkpt><trkpt lat="59.0962803271" lon="30.0093411002"><ele>89.06</ele><time>2026-04-25T10:41:12Z</time></trkpt><trkpt lat="59.0962282754" lon="30.0090162177"><ele>88.58</ele><time>2026-04-25T10:41:26Z</time></trkpt><trkpt lat="59.0961479768" lon="30.0085834600"><ele>88.58</ele><time>2026-04-25T10:41:42Z</time></trkpt><trkpt lat="59.0961030498" lon="30.0082354434"><ele>88.58</ele><time>2026-04-25T10:41:55Z</time></trkpt><trkpt lat="59.0960660018" lon="30.0081020035"><ele>88.10</ele><time>2026-04-25T10:42:00Z</time></trkpt><trkpt lat="59.0960548539" lon="30.0079848245"><ele>88.58</ele><time>2026-04-25T10:42:05Z</time></trkpt><trkpt lat="59.0959858708" lon="30.0076218881"><ele>88.10</ele><time>2026-04-25T10:42:20Z</time></trkpt><trkpt lat="59.0959069133" lon="30.0072560180"><ele>88.10</ele><time>2026-04-25T10:42:35Z</time></trkpt><trkpt lat="59.0958476532" lon="30.0069510005"><ele>88.10</ele><time>2026-04-25T10:42:51Z</time></trkpt><trkpt lat="59.0958078392" lon="30.0066514313"><ele>88.58</ele><time>2026-04-25T10:43:04Z</time></trkpt><trkpt lat="59.0957418736" lon="30.0063594896"><ele>88.58</ele><time>2026-04-25T10:43:16Z</time></trkpt><trkpt lat="59.0956966951" lon="30.0060128141"><ele>88.58</ele><time>2026-04-25T10:43:31Z</time></trkpt><trkpt lat="59.0956858825" lon="30.0058626942"><ele>88.58</ele><time>2026-04-25T10:43:37Z</time></trkpt><trkpt lat="59.0956804343" lon="30.0058055297"><ele>88.58</ele><time>2026-04-25T10:43:39Z</time></trkpt><trkpt lat="59.0955824498" lon="30.0053586904"><ele>88.58</ele><time>2026-04-25T10:43:56Z</time></trkpt><trkpt lat="59.0955151431" lon="30.0049880426"><ele>88.58</ele><time>2026-04-25T10:44:11Z</time></trkpt><trkpt lat="59.0955074318" lon="30.0049243402"><ele>88.58</ele><time>2026-04-25T10:44:14Z</time></trkpt><trkpt lat="59.0954790171" lon="30.0047203247"><ele>88.58</ele><time>2026-04-25T10:44:23Z</time></trkpt><trkpt lat="59.0954263788" lon="30.0044049975"><ele>88.58</ele><time>2026-04-25T10:44:37Z</time></trkpt><trkpt lat="59.0953657776" lon="30.0040824618"><ele>88.58</ele><time>2026-04-25T10:44:51Z</time></trkpt><trkpt lat="59.0953348484" lon="30.0039425679"><ele>88.10</ele><time>2026-04-25T10:44:58Z</time></trkpt><trkpt lat="59.0952916816" lon="30.0036008377"><ele>88.10</ele><time>2026-04-25T10:45:12Z</time></trkpt><trkpt lat="59.0952339303" lon="30.0032430980"><ele>88.10</ele><time>2026-04-25T10:45:26Z</time></trkpt><trkpt lat="59.0951843094" lon="30.0029293634"><ele>88.10</ele><time>2026-04-25T10:45:39Z</time></trkpt><trkpt lat="59.0951395500" lon="30.0026520900"><ele>88.10</ele><time>2026-04-25T10:45:52Z</time></trkpt><trkpt lat="59.0951378737" lon="30.0026278663"><ele>88.10</ele><time>2026-04-25T10:45:53Z</time></trkpt><trkpt lat="59.0950525459" lon="30.0022153929"><ele>88.58</ele><time>2026-04-25T10:46:09Z</time></trkpt><trkpt lat="59.0949831437" lon="30.0018158276"><ele>88.58</ele><time>2026-04-25T10:46:24Z</time></trkpt><trkpt lat="59.0949436650" lon="30.0014889333"><ele>89.06</ele><time>2026-04-25T10:46:39Z</time></trkpt><trkpt lat="59.0948549844" lon="30.0011323672"><ele>89.06</ele><time>2026-04-25T10:46:53Z</time></trkpt><trkpt lat="59.0948387235" lon="30.0010521524"><ele>89.06</ele><time>2026-04-25T10:46:57Z</time></trkpt><trkpt lat="59.0947709139" lon="30.0006907247"><ele>89.06</ele><time>2026-04-25T10:47:13Z</time></trkpt><trkpt lat="59.0947570838" lon="30.0006332248"><ele>89.06</ele><time>2026-04-25T10:47:16Z</time></trkpt><trkpt lat="59.0946777910" lon="30.0002700370"><ele>89.54</ele><time>2026-04-25T10:47:30Z</time></trkpt><trkpt lat="59.0946399048" lon="29.9999561347"><ele>89.54</ele><time>2026-04-25T10:47:44Z</time></trkpt><trkpt lat="59.0945539065" lon="29.9994934537"><ele>90.02</ele><time>2026-04-25T10:48:01Z</time></trkpt><trkpt lat="59.0945089795" lon="29.9992984068"><ele>90.02</ele><time>2026-04-25T10:48:09Z</time></trkpt><trkpt lat="59.0944511443" lon="29.9990405794"><ele>90.50</ele><time>2026-04-25T10:48:24Z</time></trkpt><trkpt lat="59.0944097377" lon="29.9987356458"><ele>90.50</ele><time>2026-04-25T10:48:36Z</time></trkpt><trkpt lat="59.0943702590" lon="29.9984069075"><ele>90.50</ele><time>2026-04-25T10:48:49Z</time></trkpt><trkpt lat="59.0942801535" lon="29.9980379362"><ele>90.98</ele><time>2026-04-25T10:49:05Z</time></trkpt><trkpt lat="59.0942241624" lon="29.9976973794"><ele>90.98</ele><time>2026-04-25T10:49:19Z</time></trkpt><trkpt lat="59.0941653214" lon="29.9973175954"><ele>90.98</ele><time>2026-04-25T10:49:33Z</time></trkpt><trkpt lat="59.0941354819" lon="29.9969685730"><ele>90.98</ele><time>2026-04-25T10:49:46Z</time></trkpt><trkpt lat="59.0940950811" lon="29.9966612924"><ele>90.98</ele><time>2026-04-25T10:49:59Z</time></trkpt><trkpt lat="59.0940529201" lon="29.9963353202"><ele>90.98</ele><time>2026-04-25T10:50:13Z</time></trkpt><trkpt lat="59.0940069873" lon="29.9961138703"><ele>91.46</ele><time>2026-04-25T10:50:22Z</time></trkpt><trkpt lat="59.0939631499" lon="29.9958817754"><ele>91.46</ele><time>2026-04-25T10:50:31Z</time></trkpt><trkpt lat="59.0938988607" lon="29.9954509456"><ele>91.46</ele><time>2026-04-25T10:50:47Z</time></trkpt><trkpt lat="59.0937978588" lon="29.9949330278"><ele>91.94</ele><time>2026-04-25T10:51:05Z</time></trkpt><trkpt lat="59.0937781613" lon="29.9948470294"><ele>91.94</ele><time>2026-04-25T10:51:08Z</time></trkpt><trkpt lat="59.0937176440" lon="29.9947391544"><ele>91.94</ele><time>2026-04-25T10:51:22Z</time></trkpt><trkpt lat="59.0937073343" lon="29.9946017750"><ele>91.94</ele><time>2026-04-25T10:51:33Z</time></trkpt><trkpt lat="59.0936868824" lon="29.9944806565"><ele>91.94</ele><time>2026-04-25T10:51:39Z</time></trkpt><trkpt lat="59.0936645865" lon="29.9942008685"><ele>91.94</ele><time>2026-04-25T10:51:54Z</time></trkpt><trkpt lat="59.0936707053" lon="29.9941428658"><ele>91.94</ele><time>2026-04-25T10:51:57Z</time></trkpt><trkpt lat="59.0936793387" lon="29.9941059854"><ele>91.94</ele><time>2026-04-25T10:51:59Z</time></trkpt><trkpt lat="59.0936088469" lon="29.9937074259"><ele>91.46</ele><time>2026-04-25T10:52:15Z</time></trkpt><trkpt lat="59.0935067553" lon="29.9933423102"><ele>91.46</ele><time>2026-04-25T10:52:32Z</time></trkpt><trkpt lat="59.0934852138" lon="29.9932841398"><ele>91.46</ele><time>2026-04-25T10:52:35Z</time></trkpt><trkpt lat="59.0934615768" lon="29.9931725767"><ele>91.46</ele><time>2026-04-25T10:52:40Z</time></trkpt><trkpt lat="59.0934459865" lon="29.9930129852"><ele>91.46</ele><time>2026-04-25T10:52:47Z</time></trkpt><trkpt lat="59.0933921747" lon="29.9926601071"><ele>91.46</ele><time>2026-04-25T10:53:03Z</time></trkpt><trkpt lat="59.0933182463" lon="29.9923094921"><ele>90.98</ele><time>2026-04-25T10:53:20Z</time></trkpt><trkpt lat="59.0932644345" lon="29.9920787383"><ele>90.98</ele><time>2026-04-25T10:53:33Z</time></trkpt><trkpt lat="59.0932540409" lon="29.9920170475"><ele>90.98</ele><time>2026-04-25T10:53:36Z</time></trkpt><trkpt lat="59.0932355169" lon="29.9918598030"><ele>90.50</ele><time>2026-04-25T10:53:43Z</time></trkpt><trkpt lat="59.0931971278" lon="29.9917083420"><ele>90.50</ele><time>2026-04-25T10:53:49Z</time></trkpt><trkpt lat="59.0931853093" lon="29.9916002993"><ele>90.50</ele><time>2026-04-25T10:53:53Z</time></trkpt><trkpt lat="59.0931084473" lon="29.9911697209"><ele>90.50</ele><time>2026-04-25T10:54:08Z</time></trkpt><trkpt lat="59.0930277295" lon="29.9908211175"><ele>90.50</ele><time>2026-04-25T10:54:23Z</time></trkpt><trkpt lat="59.0929511189" lon="29.9904860090"><ele>90.50</ele><time>2026-04-25T10:54:37Z</time></trkpt><trkpt lat="59.0929011628" lon="29.9901503138"><ele>90.50</ele><time>2026-04-25T10:54:52Z</time></trkpt><trkpt lat="59.0928105544" lon="29.9896084238"><ele>90.50</ele><time>2026-04-25T10:55:11Z</time></trkpt><trkpt lat="59.0927872527" lon="29.9894922506"><ele>90.50</ele><time>2026-04-25T10:55:16Z</time></trkpt><trkpt lat="59.0927746799" lon="29.9893480819"><ele>90.50</ele><time>2026-04-25T10:55:24Z</time></trkpt><trkpt lat="59.0927230474" lon="29.9890091177"><ele>90.50</ele><time>2026-04-25T10:55:37Z</time></trkpt><trkpt lat="59.0926918667" lon="29.9889140669"><ele>90.50</ele><time>2026-04-25T10:55:40Z</time></trkpt><trkpt lat="59.0925829019" lon="29.9884912837"><ele>90.02</ele><time>2026-04-25T10:55:57Z</time></trkpt><trkpt lat="59.0925223008" lon="29.9881568458"><ele>90.02</ele><time>2026-04-25T10:56:10Z</time></trkpt><trkpt lat="59.0924793854" lon="29.9878859427"><ele>90.02</ele><time>2026-04-25T10:56:22Z</time></trkpt><trkpt lat="59.0924135875" lon="29.9874742236"><ele>89.06</ele><time>2026-04-25T10:56:39Z</time></trkpt><trkpt lat="59.0923674870" lon="29.9873220921"><ele>89.54</ele><time>2026-04-25T10:56:55Z</time></trkpt><trkpt lat="59.0923451912" lon="29.9872343335"><ele>89.06</ele><time>2026-04-25T10:57:20Z</time></trkpt><trkpt lat="59.0923318639" lon="29.9872547016"><ele>89.06</ele><time>2026-04-25T10:57:39Z</time></trkpt><trkpt lat="59.0923022758" lon="29.9873564579"><ele>88.58</ele><time>2026-04-25T10:58:05Z</time></trkpt><trkpt lat="59.0923091490" lon="29.9873339944"><ele>88.10</ele><time>2026-04-25T10:58:31Z</time></trkpt><trkpt lat="59.0923204646" lon="29.9873055797"><ele>82.81</ele><time>2026-04-25T10:58:37Z</time></trkpt><trkpt lat="59.0923213027" lon="29.9873009697"><ele>83.29</ele><time>2026-04-25T10:58:38Z</time></trkpt><trkpt lat="59.0923418384" lon="29.9872757401"><ele>81.85</ele><time>2026-04-25T10:58:55Z</time></trkpt><trkpt lat="59.0923277568" lon="29.9873000477"><ele>80.89</ele><time>2026-04-25T10:59:16Z</time></trkpt><trkpt lat="59.0923436824" lon="29.9873151351"><ele>81.37</ele><time>2026-04-25T10:59:33Z</time></trkpt><trkpt lat="59.0923289303" lon="29.9873381853"><ele>75.12</ele><time>2026-04-25T11:00:03Z</time></trkpt><trkpt lat="59.0923261642" lon="29.9873363413"><ele>67.91</ele><time>2026-04-25T11:00:04Z</time></trkpt><trkpt lat="59.0923306905" lon="29.9873360898"><ele>73.20</ele><time>2026-04-25T11:00:08Z</time></trkpt><trkpt lat="59.0923316125" lon="29.9873380177"><ele>72.72</ele><time>2026-04-25T11:00:09Z</time></trkpt><trkpt lat="59.0923330374" lon="29.9873346649"><ele>78.00</ele><time>2026-04-25T11:00:18Z</time></trkpt><trkpt lat="59.0923326183" lon="29.9873346649"><ele>77.04</ele><time>2026-04-25T11:00:19Z</time></trkpt><trkpt lat="59.0923329536" lon="29.9873320665"><ele>80.89</ele><time>2026-04-25T11:00:28Z</time></trkpt><trkpt lat="59.0923239011" lon="29.9873056635"><ele>85.21</ele><time>2026-04-25T11:00:31Z</time></trkpt><trkpt lat="59.0923058800" lon="29.9872768298"><ele>88.10</ele><time>2026-04-25T11:00:32Z</time></trkpt><trkpt lat="59.0923073888" lon="29.9872580543"><ele>88.10</ele><time>2026-04-25T11:00:33Z</time></trkpt><trkpt lat="59.0922937263" lon="29.9872443918"><ele>87.14</ele><time>2026-04-25T11:01:00Z</time></trkpt><trkpt lat="59.0922958218" lon="29.9872506782"><ele>85.21</ele><time>2026-04-25T11:01:07Z</time></trkpt><trkpt lat="59.0922994260" lon="29.9872474931"><ele>82.33</ele><time>2026-04-25T11:01:11Z</time></trkpt><trkpt lat="59.0922997613" lon="29.9872458167"><ele>83.29</ele><time>2026-04-25T11:01:12Z</time></trkpt><trkpt lat="59.0922658145" lon="29.9872127082"><ele>85.21</ele><time>2026-04-25T11:01:38Z</time></trkpt><trkpt lat="59.0922617912" lon="29.9872130435"><ele>83.29</ele><time>2026-04-25T11:01:40Z</time></trkpt><trkpt lat="59.0922529064" lon="29.9872602336"><ele>88.10</ele><time>2026-04-25T11:02:14Z</time></trkpt><trkpt lat="59.0922597796" lon="29.9872624967"><ele>88.10</ele><time>2026-04-25T11:02:15Z</time></trkpt><trkpt lat="59.0922773816" lon="29.9872531090"><ele>84.73</ele><time>2026-04-25T11:02:19Z</time></trkpt><trkpt lat="59.0922784712" lon="29.9872516841"><ele>86.18</ele><time>2026-04-25T11:02:20Z</time></trkpt><trkpt lat="59.0922767948" lon="29.9872486666"><ele>86.66</ele><time>2026-04-25T11:02:25Z</time></trkpt><trkpt lat="59.0922717657" lon="29.9872571323"><ele>85.69</ele><time>2026-04-25T11:02:47Z</time></trkpt><trkpt lat="59.0922757052" lon="29.9872681964"><ele>86.66</ele><time>2026-04-25T11:03:02Z</time></trkpt><trkpt lat="59.0922794770" lon="29.9872769136"><ele>85.21</ele><time>2026-04-25T11:03:36Z</time></trkpt><trkpt lat="59.0922954865" lon="29.9872602336"><ele>85.21</ele><time>2026-04-25T11:04:21Z</time></trkpt><trkpt lat="59.0922923014" lon="29.9872568808"><ele>87.14</ele><time>2026-04-25T11:04:23Z</time></trkpt><trkpt lat="59.0923116636" lon="29.9872729741"><ele>85.69</ele><time>2026-04-25T11:04:57Z</time></trkpt><trkpt lat="59.0922858473" lon="29.9872975331"><ele>85.69</ele><time>2026-04-25T11:05:35Z</time></trkpt><trkpt lat="59.0922841709" lon="29.9872769974"><ele>85.21</ele><time>2026-04-25T11:06:16Z</time></trkpt><trkpt lat="59.0922743641" lon="29.9872159772"><ele>84.25</ele><time>2026-04-25T11:06:53Z</time></trkpt><trkpt lat="59.0922622103" lon="29.9872853793"><ele>79.93</ele><time>2026-04-25T11:07:22Z</time></trkpt><trkpt lat="59.0922857635" lon="29.9872505944"><ele>84.25</ele><time>2026-04-25T11:07:24Z</time></trkpt><trkpt lat="59.0922943968" lon="29.9872600660"><ele>85.21</ele><time>2026-04-25T11:07:26Z</time></trkpt><trkpt lat="59.0923151001" lon="29.9873426277"><ele>86.18</ele><time>2026-04-25T11:07:46Z</time></trkpt><trkpt lat="59.0923460294" lon="29.9875830207"><ele>86.18</ele><time>2026-04-25T11:08:06Z</time></trkpt><trkpt lat="59.0924005117" lon="29.9876068253"><ele>87.14</ele><time>2026-04-25T11:08:36Z</time></trkpt><trkpt lat="59.0923932195" lon="29.9876714498"><ele>87.62</ele><time>2026-04-25T11:08:49Z</time></trkpt><trkpt lat="59.0924103186" lon="29.9876584578"><ele>88.10</ele><time>2026-04-25T11:09:04Z</time></trkpt><trkpt lat="59.0924029425" lon="29.9876423646"><ele>88.10</ele><time>2026-04-25T11:09:18Z</time></trkpt><trkpt lat="59.0923724324" lon="29.9874002952"><ele>88.58</ele><time>2026-04-25T11:09:33Z</time></trkpt><trkpt lat="59.0923392400" lon="29.9873869680"><ele>89.06</ele><time>2026-04-25T11:09:47Z</time></trkpt><trkpt lat="59.0923189558" lon="29.9874664284"><ele>89.54</ele><time>2026-04-25T11:10:07Z</time></trkpt><trkpt lat="59.0923561715" lon="29.9874888081"><ele>89.54</ele><time>2026-04-25T11:10:21Z</time></trkpt><trkpt lat="59.0923876036" lon="29.9875948392"><ele>89.54</ele><time>2026-04-25T11:10:36Z</time></trkpt><trkpt lat="59.0923718456" lon="29.9874246027"><ele>90.02</ele><time>2026-04-25T11:10:53Z</time></trkpt><trkpt lat="59.0924181137" lon="29.9875371717"><ele>90.50</ele><time>2026-04-25T11:11:15Z</time></trkpt><trkpt lat="59.0924279206" lon="29.9878703523"><ele>90.02</ele><time>2026-04-25T11:11:33Z</time></trkpt><trkpt lat="59.0925007593" lon="29.9882356357"><ele>89.54</ele><time>2026-04-25T11:11:50Z</time></trkpt><trkpt lat="59.0925045311" lon="29.9882553332"><ele>89.54</ele><time>2026-04-25T11:11:51Z</time></trkpt><trkpt lat="59.0925580915" lon="29.9886118155"><ele>89.06</ele><time>2026-04-25T11:12:06Z</time></trkpt><trkpt lat="59.0926015936" lon="29.9887906015"><ele>89.06</ele><time>2026-04-25T11:12:14Z</time></trkpt><trkpt lat="59.0926735103" lon="29.9891502690"><ele>88.58</ele><time>2026-04-25T11:12:29Z</time></trkpt><trkpt lat="59.0927295852" lon="29.9894324876"><ele>88.10</ele><time>2026-04-25T11:12:42Z</time></trkpt><trkpt lat="59.0927345306" lon="29.9895401113"><ele>88.10</ele><time>2026-04-25T11:12:46Z</time></trkpt><trkpt lat="59.0927554015" lon="29.9897789117"><ele>88.10</ele><time>2026-04-25T11:12:54Z</time></trkpt><trkpt lat="59.0927830618" lon="29.9899966735"><ele>88.10</ele><time>2026-04-25T11:13:03Z</time></trkpt><trkpt lat="59.0928624384" lon="29.9903083965"><ele>87.62</ele><time>2026-04-25T11:13:18Z</time></trkpt><trkpt lat="59.0928709041" lon="29.9903985020"><ele>88.10</ele><time>2026-04-25T11:13:22Z</time></trkpt><trkpt lat="59.0929234587" lon="29.9907628633"><ele>87.62</ele><time>2026-04-25T11:13:34Z</time></trkpt><trkpt lat="59.0929219499" lon="29.9908604287"><ele>87.62</ele><time>2026-04-25T11:13:37Z</time></trkpt><trkpt lat="59.0929930285" lon="29.9912446551"><ele>87.14</ele><time>2026-04-25T11:13:53Z</time></trkpt><trkpt lat="59.0930681303" lon="29.9915175699"><ele>87.62</ele><time>2026-04-25T11:14:07Z</time></trkpt><trkpt lat="59.0931162424" lon="29.9916865490"><ele>87.62</ele><time>2026-04-25T11:14:16Z</time></trkpt><trkpt lat="59.0931901708" lon="29.9920363259"><ele>87.62</ele><time>2026-04-25T11:14:33Z</time></trkpt><trkpt lat="59.0932658594" lon="29.9923467916"><ele>87.62</ele><time>2026-04-25T11:14:47Z</time></trkpt><trkpt lat="59.0932888258" lon="29.9924356397"><ele>87.62</ele><time>2026-04-25T11:14:51Z</time></trkpt><trkpt lat="59.0933266282" lon="29.9927544035"><ele>87.62</ele><time>2026-04-25T11:15:07Z</time></trkpt><trkpt lat="59.0934003890" lon="29.9931270629"><ele>87.62</ele><time>2026-04-25T11:15:25Z</time></trkpt><trkpt lat="59.0934698749" lon="29.9934233632"><ele>87.62</ele><time>2026-04-25T11:15:38Z</time></trkpt><trkpt lat="59.0935185738" lon="29.9937118683"><ele>87.14</ele><time>2026-04-25T11:15:51Z</time></trkpt><trkpt lat="59.0935890656" lon="29.9940052349"><ele>86.66</ele><time>2026-04-25T11:16:05Z</time></trkpt><trkpt lat="59.0936222579" lon="29.9943322130"><ele>86.66</ele><time>2026-04-25T11:16:19Z</time></trkpt><trkpt lat="59.0936830267" lon="29.9946687464"><ele>86.66</ele><time>2026-04-25T11:16:33Z</time></trkpt><trkpt lat="59.0937064961" lon="29.9947660603"><ele>86.66</ele><time>2026-04-25T11:16:38Z</time></trkpt><trkpt lat="59.0937222540" lon="29.9949790444"><ele>87.14</ele><time>2026-04-25T11:16:47Z</time></trkpt><trkpt lat="59.0937582962" lon="29.9953403044"><ele>87.14</ele><time>2026-04-25T11:17:03Z</time></trkpt><trkpt lat="59.0938005410" lon="29.9955560546"><ele>86.66</ele><time>2026-04-25T11:17:13Z</time></trkpt><trkpt lat="59.0938515868" lon="29.9959414545"><ele>86.18</ele><time>2026-04-25T11:17:28Z</time></trkpt><trkpt lat="59.0939199831" lon="29.9962757248"><ele>86.66</ele><time>2026-04-25T11:17:41Z</time></trkpt><trkpt lat="59.0939402673" lon="29.9964258447"><ele>86.66</ele><time>2026-04-25T11:17:48Z</time></trkpt><trkpt lat="59.0939568635" lon="29.9966901261"><ele>86.66</ele><time>2026-04-25T11:17:58Z</time></trkpt><trkpt lat="59.0940323845" lon="29.9971202854"><ele>86.18</ele><time>2026-04-25T11:18:15Z</time></trkpt><trkpt lat="59.0940852743" lon="29.9975466728"><ele>86.18</ele><time>2026-04-25T11:18:31Z</time></trkpt><trkpt lat="59.0941423550" lon="29.9978182465"><ele>86.66</ele><time>2026-04-25T11:18:42Z</time></trkpt><trkpt lat="59.0942106675" lon="29.9981848709"><ele>86.66</ele><time>2026-04-25T11:18:58Z</time></trkpt><trkpt lat="59.0942520741" lon="29.9985022936"><ele>86.66</ele><time>2026-04-25T11:19:12Z</time></trkpt><trkpt lat="59.0942733642" lon="29.9986175448"><ele>86.18</ele><time>2026-04-25T11:19:17Z</time></trkpt><trkpt lat="59.0943723544" lon="29.9990258273"><ele>86.66</ele><time>2026-04-25T11:19:35Z</time></trkpt><trkpt lat="59.0944472887" lon="29.9993009213"><ele>86.66</ele><time>2026-04-25T11:19:46Z</time></trkpt><trkpt lat="59.0944613703" lon="29.9993575830"><ele>86.66</ele><time>2026-04-25T11:19:48Z</time></trkpt><trkpt lat="59.0945185348" lon="29.9996849801"><ele>86.66</ele><time>2026-04-25T11:20:02Z</time></trkpt><trkpt lat="59.0945973247" lon="30.0000974536"><ele>86.66</ele><time>2026-04-25T11:20:18Z</time></trkpt><trkpt lat="59.0946105681" lon="30.0001729745"><ele>86.66</ele><time>2026-04-25T11:20:21Z</time></trkpt><trkpt lat="59.0946217999" lon="30.0002516806"><ele>86.66</ele><time>2026-04-25T11:20:24Z</time></trkpt><trkpt lat="59.0946420003" lon="30.0004581269"><ele>84.25</ele><time>2026-04-25T11:20:31Z</time></trkpt><trkpt lat="59.0947191976" lon="30.0006737933"><ele>85.21</ele><time>2026-04-25T11:20:38Z</time></trkpt><trkpt lat="59.0947304294" lon="30.0009812415"><ele>84.25</ele><time>2026-04-25T11:20:51Z</time></trkpt><trkpt lat="59.0947419126" lon="30.0011860952"><ele>83.77</ele><time>2026-04-25T11:21:00Z</time></trkpt><trkpt lat="59.0947989095" lon="30.0015131570"><ele>83.77</ele><time>2026-04-25T11:21:12Z</time></trkpt><trkpt lat="59.0948079620" lon="30.0016301684"><ele>83.29</ele><time>2026-04-25T11:21:16Z</time></trkpt><trkpt lat="59.0948635340" lon="30.0019335095"><ele>83.29</ele><time>2026-04-25T11:21:30Z</time></trkpt><trkpt lat="59.0948677249" lon="30.0020214356"><ele>83.29</ele><time>2026-04-25T11:21:34Z</time></trkpt><trkpt lat="59.0948968939" lon="30.0023443904"><ele>83.77</ele><time>2026-04-25T11:21:50Z</time></trkpt><trkpt lat="59.0949037671" lon="30.0024025608"><ele>84.25</ele><time>2026-04-25T11:21:53Z</time></trkpt><trkpt lat="59.0949516278" lon="30.0026363321"><ele>83.77</ele><time>2026-04-25T11:22:02Z</time></trkpt><trkpt lat="59.0950117260" lon="30.0028547645"><ele>83.77</ele><time>2026-04-25T11:22:11Z</time></trkpt><trkpt lat="59.0950440802" lon="30.0032327883"><ele>84.25</ele><time>2026-04-25T11:22:25Z</time></trkpt><trkpt lat="59.0950893424" lon="30.0034413300"><ele>84.25</ele><time>2026-04-25T11:22:34Z</time></trkpt><trkpt lat="59.0951145720" lon="30.0035393145"><ele>84.25</ele><time>2026-04-25T11:22:39Z</time></trkpt><trkpt lat="59.0951359458" lon="30.0037608482"><ele>84.25</ele><time>2026-04-25T11:22:48Z</time></trkpt><trkpt lat="59.0951680485" lon="30.0039950386"><ele>84.73</ele><time>2026-04-25T11:22:58Z</time></trkpt><trkpt lat="59.0951881651" lon="30.0041588210"><ele>84.25</ele><time>2026-04-25T11:23:04Z</time></trkpt><trkpt lat="59.0952449106" lon="30.0044718850"><ele>84.25</ele><time>2026-04-25T11:23:18Z</time></trkpt><trkpt lat="59.0952644404" lon="30.0045249425"><ele>84.25</ele><time>2026-04-25T11:23:20Z</time></trkpt><trkpt lat="59.0953423921" lon="30.0048879627"><ele>84.25</ele><time>2026-04-25T11:23:34Z</time></trkpt><trkpt lat="59.0953592397" lon="30.0049953349"><ele>84.25</ele><time>2026-04-25T11:23:38Z</time></trkpt><trkpt lat="59.0954299830" lon="30.0051760487"><ele>83.77</ele><time>2026-04-25T11:23:46Z</time></trkpt><trkpt lat="59.0954874828" lon="30.0055784639"><ele>83.77</ele><time>2026-04-25T11:24:01Z</time></trkpt><trkpt lat="59.0954814479" lon="30.0056600198"><ele>84.25</ele><time>2026-04-25T11:24:04Z</time></trkpt><trkpt lat="59.0955384448" lon="30.0061105471"><ele>83.77</ele><time>2026-04-25T11:24:19Z</time></trkpt><trkpt lat="59.0955714695" lon="30.0063255429"><ele>83.77</ele><time>2026-04-25T11:24:31Z</time></trkpt><trkpt lat="59.0956368484" lon="30.0066987053"><ele>83.29</ele><time>2026-04-25T11:24:46Z</time></trkpt><trkpt lat="59.0957153868" lon="30.0069373380"><ele>83.77</ele><time>2026-04-25T11:25:00Z</time></trkpt><trkpt lat="59.0957623255" lon="30.0073148590"><ele>82.81</ele><time>2026-04-25T11:25:15Z</time></trkpt><trkpt lat="59.0957860462" lon="30.0074936450"><ele>82.81</ele><time>2026-04-25T11:25:22Z</time></trkpt><trkpt lat="59.0958115272" lon="30.0076192059"><ele>82.81</ele><time>2026-04-25T11:25:27Z</time></trkpt><trkpt lat="59.0958616510" lon="30.0078345370"><ele>82.33</ele><time>2026-04-25T11:25:35Z</time></trkpt><trkpt lat="59.0959018003" lon="30.0079782028"><ele>82.33</ele><time>2026-04-25T11:25:40Z</time></trkpt><trkpt lat="59.0959258564" lon="30.0081445836"><ele>82.33</ele><time>2026-04-25T11:25:46Z</time></trkpt><trkpt lat="59.0959755611" lon="30.0085096993"><ele>81.85</ele><time>2026-04-25T11:26:02Z</time></trkpt><trkpt lat="59.0959901456" lon="30.0085791852"><ele>81.85</ele><time>2026-04-25T11:26:05Z</time></trkpt><trkpt lat="59.0960219130" lon="30.0086727273"><ele>81.85</ele><time>2026-04-25T11:26:10Z</time></trkpt><trkpt lat="59.0960981883" lon="30.0090281200"><ele>81.37</ele><time>2026-04-25T11:26:24Z</time></trkpt><trkpt lat="59.0961427800" lon="30.0091763120"><ele>81.85</ele><time>2026-04-25T11:26:31Z</time></trkpt><trkpt lat="59.0961719491" lon="30.0093212351"><ele>81.85</ele><time>2026-04-25T11:26:37Z</time></trkpt><trkpt lat="59.0962447040" lon="30.0097140949"><ele>81.85</ele><time>2026-04-25T11:26:50Z</time></trkpt><trkpt lat="59.0962750465" lon="30.0098779611"><ele>81.85</ele><time>2026-04-25T11:26:57Z</time></trkpt><trkpt lat="59.0963493101" lon="30.0101865828"><ele>81.85</ele><time>2026-04-25T11:27:10Z</time></trkpt><trkpt lat="59.0963568538" lon="30.0102562364"><ele>81.85</ele><time>2026-04-25T11:27:13Z</time></trkpt><trkpt lat="59.0964335483" lon="30.0106262136"><ele>81.37</ele><time>2026-04-25T11:27:28Z</time></trkpt><trkpt lat="59.0965028666" lon="30.0108495075"><ele>81.37</ele><time>2026-04-25T11:27:38Z</time></trkpt><trkpt lat="59.0965674073" lon="30.0111935847"><ele>80.89</ele><time>2026-04-25T11:27:53Z</time></trkpt><trkpt lat="59.0966213029" lon="30.0115596224"><ele>80.89</ele><time>2026-04-25T11:28:07Z</time></trkpt><trkpt lat="59.0966366418" lon="30.0117514841"><ele>80.89</ele><time>2026-04-25T11:28:14Z</time></trkpt><trkpt lat="59.0966892801" lon="30.0120094791"><ele>80.89</ele><time>2026-04-25T11:28:24Z</time></trkpt><trkpt lat="59.0967279207" lon="30.0122097228"><ele>80.89</ele><time>2026-04-25T11:28:34Z</time></trkpt><trkpt lat="59.0967497975" lon="30.0123289973"><ele>80.41</ele><time>2026-04-25T11:28:39Z</time></trkpt><trkpt lat="59.0968015976" lon="30.0127172470"><ele>80.41</ele><time>2026-04-25T11:28:54Z</time></trkpt><trkpt lat="59.0968811419" lon="30.0130243599"><ele>79.93</ele><time>2026-04-25T11:29:07Z</time></trkpt><trkpt lat="59.0968962293" lon="30.0133815128"><ele>79.93</ele><time>2026-04-25T11:29:18Z</time></trkpt><trkpt lat="59.0969579201" lon="30.0136432797"><ele>79.45</ele><time>2026-04-25T11:29:28Z</time></trkpt><trkpt lat="59.0969932079" lon="30.0140377320"><ele>79.45</ele><time>2026-04-25T11:29:44Z</time></trkpt><trkpt lat="59.0970066190" lon="30.0141082238"><ele>78.97</ele><time>2026-04-25T11:29:49Z</time></trkpt><trkpt lat="59.0970751829" lon="30.0143394805"><ele>78.97</ele><time>2026-04-25T11:30:00Z</time></trkpt><trkpt lat="59.0971294139" lon="30.0146454200"><ele>78.48</ele><time>2026-04-25T11:30:14Z</time></trkpt><trkpt lat="59.0971296653" lon="30.0146962143"><ele>78.48</ele><time>2026-04-25T11:30:16Z</time></trkpt><trkpt lat="59.0971357003" lon="30.0148137286"><ele>78.48</ele><time>2026-04-25T11:30:20Z</time></trkpt><trkpt lat="59.0971530508" lon="30.0149114616"><ele>78.48</ele><time>2026-04-25T11:30:23Z</time></trkpt><trkpt lat="59.0971698985" lon="30.0150444824"><ele>78.48</ele><time>2026-04-25T11:30:30Z</time></trkpt><trkpt lat="59.0972014144" lon="30.0153268687"><ele>78.48</ele><time>2026-04-25T11:30:43Z</time></trkpt><trkpt lat="59.0972382948" lon="30.0155904796"><ele>78.00</ele><time>2026-04-25T11:30:56Z</time></trkpt><trkpt lat="59.0972623508" lon="30.0156946667"><ele>78.00</ele><time>2026-04-25T11:31:03Z</time></trkpt><trkpt lat="59.0973611735" lon="30.0159927271"><ele>78.00</ele><time>2026-04-25T11:31:18Z</time></trkpt><trkpt lat="59.0973889176" lon="30.0161470380"><ele>77.52</ele><time>2026-04-25T11:31:23Z</time></trkpt><trkpt lat="59.0974348504" lon="30.0164774526"><ele>77.52</ele><time>2026-04-25T11:31:38Z</time></trkpt><trkpt lat="59.0974832978" lon="30.0167512894"><ele>78.00</ele><time>2026-04-25T11:31:53Z</time></trkpt><trkpt lat="59.0975667816" lon="30.0170646887"><ele>77.52</ele><time>2026-04-25T11:32:07Z</time></trkpt><trkpt lat="59.0975833777" lon="30.0171946082"><ele>77.52</ele><time>2026-04-25T11:32:11Z</time></trkpt><trkpt lat="59.0976125468" lon="30.0175353326"><ele>78.00</ele><time>2026-04-25T11:32:26Z</time></trkpt><trkpt lat="59.0976386145" lon="30.0176646654"><ele>78.00</ele><time>2026-04-25T11:32:31Z</time></trkpt><trkpt lat="59.0976775903" lon="30.0178501569"><ele>78.00</ele><time>2026-04-25T11:32:39Z</time></trkpt><trkpt lat="59.0977053344" lon="30.0180406775"><ele>78.00</ele><time>2026-04-25T11:32:47Z</time></trkpt><trkpt lat="59.0977205895" lon="30.0180944055"><ele>76.56</ele><time>2026-04-25T11:32:49Z</time></trkpt><trkpt lat="59.0977967810" lon="30.0182350539"><ele>76.56</ele><time>2026-04-25T11:32:54Z</time></trkpt><trkpt lat="59.0978178196" lon="30.0185943022"><ele>74.64</ele><time>2026-04-25T11:33:09Z</time></trkpt><trkpt lat="59.0978645068" lon="30.0188876688"><ele>74.64</ele><time>2026-04-25T11:33:21Z</time></trkpt><trkpt lat="59.0978992078" lon="30.0191263016"><ele>74.64</ele><time>2026-04-25T11:33:33Z</time></trkpt><trkpt lat="59.0979381837" lon="30.0192398764"><ele>75.12</ele><time>2026-04-25T11:33:38Z</time></trkpt><trkpt lat="59.0979543608" lon="30.0193693768"><ele>75.12</ele><time>2026-04-25T11:33:42Z</time></trkpt><trkpt lat="59.0979950968" lon="30.0196408667"><ele>75.12</ele><time>2026-04-25T11:33:55Z</time></trkpt><trkpt lat="59.0980541892" lon="30.0198645797"><ele>76.08</ele><time>2026-04-25T11:34:10Z</time></trkpt><trkpt lat="59.0981232561" lon="30.0201306213"><ele>76.56</ele><time>2026-04-25T11:34:23Z</time></trkpt><trkpt lat="59.0981359966" lon="30.0204317831"><ele>76.56</ele><time>2026-04-25T11:34:37Z</time></trkpt><trkpt lat="59.0981784090" lon="30.0206284225"><ele>77.04</ele><time>2026-04-25T11:34:51Z</time></trkpt><trkpt lat="59.0982370824" lon="30.0208706595"><ele>77.52</ele><time>2026-04-25T11:35:03Z</time></trkpt><trkpt lat="59.0982639045" lon="30.0210994016"><ele>77.52</ele><time>2026-04-25T11:35:15Z</time></trkpt><trkpt lat="59.0982670896" lon="30.0211211946"><ele>77.04</ele><time>2026-04-25T11:35:16Z</time></trkpt><trkpt lat="59.0983031318" lon="30.0213719811"><ele>77.04</ele><time>2026-04-25T11:35:28Z</time></trkpt><trkpt lat="59.0983592067" lon="30.0216515176"><ele>77.04</ele><time>2026-04-25T11:35:42Z</time></trkpt><trkpt lat="59.0984051395" lon="30.0219776575"><ele>77.04</ele><time>2026-04-25T11:35:54Z</time></trkpt><trkpt lat="59.0984610468" lon="30.0222559366"><ele>77.04</ele><time>2026-04-25T11:36:09Z</time></trkpt><trkpt lat="59.0984769724" lon="30.0223342236"><ele>77.04</ele><time>2026-04-25T11:36:13Z</time></trkpt><trkpt lat="59.0985164512" lon="30.0225702580"><ele>77.04</ele><time>2026-04-25T11:36:26Z</time></trkpt><trkpt lat="59.0985151939" lon="30.0225960743"><ele>77.04</ele><time>2026-04-25T11:36:28Z</time></trkpt><trkpt lat="59.0985479672" lon="30.0227758661"><ele>77.04</ele><time>2026-04-25T11:36:40Z</time></trkpt><trkpt lat="59.0985650662" lon="30.0228522252"><ele>73.20</ele><time>2026-04-25T11:36:51Z</time></trkpt><trkpt lat="59.0986023657" lon="30.0230101403"><ele>73.20</ele><time>2026-04-25T11:37:03Z</time></trkpt><trkpt lat="59.0986368153" lon="30.0232980587"><ele>72.72</ele><time>2026-04-25T11:37:14Z</time></trkpt><trkpt lat="59.0986880288" lon="30.0235129707"><ele>72.72</ele><time>2026-04-25T11:37:28Z</time></trkpt><trkpt lat="59.0986834187" lon="30.0235238671"><ele>73.20</ele><time>2026-04-25T11:37:41Z</time></trkpt><trkpt lat="59.0986697562" lon="30.0235067680"><ele>74.64</ele><time>2026-04-25T11:37:56Z</time></trkpt><trkpt lat="59.0986483824" lon="30.0235910900"><ele>74.16</ele><time>2026-04-25T11:38:10Z</time></trkpt><trkpt lat="59.0986741148" lon="30.0236141402"><ele>70.79</ele><time>2026-04-25T11:38:21Z</time></trkpt><trkpt lat="59.0986731090" lon="30.0236191694"><ele>70.79</ele><time>2026-04-25T11:38:22Z</time></trkpt><trkpt lat="59.0986706782" lon="30.0236228574"><ele>65.99</ele><time>2026-04-25T11:38:34Z</time></trkpt><trkpt lat="59.0986710135" lon="30.0236175768"><ele>69.35</ele><time>2026-04-25T11:38:35Z</time></trkpt><trkpt lat="59.0986643918" lon="30.0235931017"><ele>70.31</ele><time>2026-04-25T11:38:59Z</time></trkpt><trkpt lat="59.0986488014" lon="30.0236421358"><ele>69.35</ele><time>2026-04-25T11:39:17Z</time></trkpt><trkpt lat="59.0986251645" lon="30.0236905832"><ele>65.51</ele><time>2026-04-25T11:39:29Z</time></trkpt><trkpt lat="59.0986286849" lon="30.0236936845"><ele>69.35</ele><time>2026-04-25T11:39:32Z</time></trkpt><trkpt lat="59.0986354742" lon="30.0237006415"><ele>69.83</ele><time>2026-04-25T11:39:34Z</time></trkpt><trkpt lat="59.0986207221" lon="30.0236609112"><ele>69.35</ele><time>2026-04-25T11:39:58Z</time></trkpt><trkpt lat="59.0986146871" lon="30.0236652698"><ele>72.24</ele><time>2026-04-25T11:40:05Z</time></trkpt><trkpt lat="59.0986029524" lon="30.0238123722"><ele>73.20</ele><time>2026-04-25T11:40:21Z</time></trkpt><trkpt lat="59.0984973405" lon="30.0239725504"><ele>74.64</ele><time>2026-04-25T11:40:39Z</time></trkpt><trkpt lat="59.0984940715" lon="30.0241067447"><ele>75.60</ele><time>2026-04-25T11:40:56Z</time></trkpt><trkpt lat="59.0984587837" lon="30.0241758954"><ele>77.52</ele><time>2026-04-25T11:41:15Z</time></trkpt><trkpt lat="59.0984374098" lon="30.0243364088"><ele>78.00</ele><time>2026-04-25T11:41:29Z</time></trkpt><trkpt lat="59.0984074865" lon="30.0244976766"><ele>78.97</ele><time>2026-04-25T11:41:46Z</time></trkpt><trkpt lat="59.0984084085" lon="30.0246913824"><ele>79.45</ele><time>2026-04-25T11:41:59Z</time></trkpt><trkpt lat="59.0983754676" lon="30.0247721002"><ele>79.93</ele><time>2026-04-25T11:42:11Z</time></trkpt><trkpt lat="59.0983383358" lon="30.0248794723"><ele>80.41</ele><time>2026-04-25T11:42:25Z</time></trkpt><trkpt lat="59.0983010363" lon="30.0250032730"><ele>80.89</ele><time>2026-04-25T11:42:37Z</time></trkpt><trkpt lat="59.0982763935" lon="30.0251389761"><ele>74.64</ele><time>2026-04-25T11:42:49Z</time></trkpt><trkpt lat="59.0982703585" lon="30.0251346175"><ele>78.97</ele><time>2026-04-25T11:42:50Z</time></trkpt><trkpt lat="59.0982873738" lon="30.0251627807"><ele>80.41</ele><time>2026-04-25T11:43:03Z</time></trkpt><trkpt lat="59.0982813388" lon="30.0250738487"><ele>78.97</ele><time>2026-04-25T11:43:21Z</time></trkpt><trkpt lat="59.0982631501" lon="30.0251005031"><ele>79.45</ele><time>2026-04-25T11:43:47Z</time></trkpt><trkpt lat="59.0982557740" lon="30.0250487030"><ele>78.97</ele><time>2026-04-25T11:44:19Z</time></trkpt><trkpt lat="59.0981723741" lon="30.0252837315"><ele>78.97</ele><time>2026-04-25T11:44:34Z</time></trkpt><trkpt lat="59.0981347393" lon="30.0253234617"><ele>79.45</ele><time>2026-04-25T11:44:52Z</time></trkpt><trkpt lat="59.0980772395" lon="30.0254865736"><ele>79.45</ele><time>2026-04-25T11:45:10Z</time></trkpt><trkpt lat="59.0980587993" lon="30.0254714023"><ele>75.12</ele><time>2026-04-25T11:45:19Z</time></trkpt><trkpt lat="59.0980568714" lon="30.0254695583"><ele>77.04</ele><time>2026-04-25T11:45:20Z</time></trkpt><trkpt lat="59.0981139522" lon="30.0255155750"><ele>78.48</ele><time>2026-04-25T11:45:35Z</time></trkpt><trkpt lat="59.0980790835" lon="30.0256343465"><ele>78.48</ele><time>2026-04-25T11:45:49Z</time></trkpt><trkpt lat="59.0979973599" lon="30.0257636793"><ele>78.48</ele><time>2026-04-25T11:46:05Z</time></trkpt><trkpt lat="59.0979696997" lon="30.0258791819"><ele>72.72</ele><time>2026-04-25T11:46:15Z</time></trkpt><trkpt lat="59.0979701187" lon="30.0259034056"><ele>77.04</ele><time>2026-04-25T11:46:16Z</time></trkpt><trkpt lat="59.0979546960" lon="30.0260269549"><ele>77.04</ele><time>2026-04-25T11:46:33Z</time></trkpt><trkpt lat="59.0979316458" lon="30.0261017215"><ele>77.04</ele><time>2026-04-25T11:46:54Z</time></trkpt><trkpt lat="59.0978947654" lon="30.0260192435"><ele>77.04</ele><time>2026-04-25T11:47:24Z</time></trkpt><trkpt lat="59.0978361759" lon="30.0259999651"><ele>78.00</ele><time>2026-04-25T11:47:45Z</time></trkpt><trkpt lat="59.0978108626" lon="30.0259983726"><ele>78.97</ele><time>2026-04-25T11:48:02Z</time></trkpt><trkpt lat="59.0977418795" lon="30.0259884819"><ele>79.93</ele><time>2026-04-25T11:48:19Z</time></trkpt><trkpt lat="59.0976460744" lon="30.0260290504"><ele>79.93</ele><time>2026-04-25T11:48:34Z</time></trkpt><trkpt lat="59.0975962020" lon="30.0260292180"><ele>80.89</ele><time>2026-04-25T11:48:48Z</time></trkpt><trkpt lat="59.0975174960" lon="30.0260225963"><ele>81.37</ele><time>2026-04-25T11:49:05Z</time></trkpt><trkpt lat="59.0974464174" lon="30.0260862987"><ele>81.85</ele><time>2026-04-25T11:49:21Z</time></trkpt><trkpt lat="59.0973537136" lon="30.0261069182"><ele>82.33</ele><time>2026-04-25T11:49:37Z</time></trkpt><trkpt lat="59.0972947050" lon="30.0261344947"><ele>82.33</ele><time>2026-04-25T11:49:53Z</time></trkpt><trkpt lat="59.0972215310" lon="30.0261891447"><ele>82.81</ele><time>2026-04-25T11:50:11Z</time></trkpt><trkpt lat="59.0971555654" lon="30.0262805074"><ele>82.81</ele><time>2026-04-25T11:50:26Z</time></trkpt><trkpt lat="59.0970852412" lon="30.0262967683"><ele>82.81</ele><time>2026-04-25T11:50:43Z</time></trkpt><trkpt lat="59.0970072057" lon="30.0263473112"><ele>82.81</ele><time>2026-04-25T11:50:59Z</time></trkpt><trkpt lat="59.0969683975" lon="30.0264114328"><ele>82.33</ele><time>2026-04-25T11:51:12Z</time></trkpt><trkpt lat="59.0969230514" lon="30.0264427811"><ele>81.85</ele><time>2026-04-25T11:51:25Z</time></trkpt><trkpt lat="59.0968865063" lon="30.0264851097"><ele>81.37</ele><time>2026-04-25T11:51:41Z</time></trkpt><trkpt lat="59.0968052018" lon="30.0264716148"><ele>81.37</ele><time>2026-04-25T11:51:57Z</time></trkpt><trkpt lat="59.0967368893" lon="30.0265334733"><ele>81.37</ele><time>2026-04-25T11:52:11Z</time></trkpt><trkpt lat="59.0966830775" lon="30.0265405979"><ele>81.37</ele><time>2026-04-25T11:52:24Z</time></trkpt><trkpt lat="59.0966475382" lon="30.0264518335"><ele>81.85</ele><time>2026-04-25T11:52:40Z</time></trkpt><trkpt lat="59.0965681616" lon="30.0264325552"><ele>81.85</ele><time>2026-04-25T11:52:54Z</time></trkpt><trkpt lat="59.0964625496" lon="30.0264523365"><ele>82.33</ele><time>2026-04-25T11:53:12Z</time></trkpt><trkpt lat="59.0963975899" lon="30.0265309587"><ele>82.33</ele><time>2026-04-25T11:53:28Z</time></trkpt><trkpt lat="59.0963133518" lon="30.0265493989"><ele>82.81</ele><time>2026-04-25T11:53:45Z</time></trkpt><trkpt lat="59.0963172913" lon="30.0265414361"><ele>78.00</ele><time>2026-04-25T11:53:58Z</time></trkpt><trkpt lat="59.0963164531" lon="30.0265431963"><ele>80.41</ele><time>2026-04-25T11:53:59Z</time></trkpt><trkpt lat="59.0963225719" lon="30.0265399273"><ele>82.33</ele><time>2026-04-25T11:54:01Z</time></trkpt><trkpt lat="59.0962799918" lon="30.0265122671"><ele>80.89</ele><time>2026-04-25T11:54:19Z</time></trkpt><trkpt lat="59.0962719452" lon="30.0264824275"><ele>74.16</ele><time>2026-04-25T11:54:30Z</time></trkpt><trkpt lat="59.0962869488" lon="30.0264882110"><ele>69.35</ele><time>2026-04-25T11:54:41Z</time></trkpt><trkpt lat="59.0962763876" lon="30.0265250914"><ele>70.31</ele><time>2026-04-25T11:54:49Z</time></trkpt><trkpt lat="59.0962524153" lon="30.0265126023"><ele>68.87</ele><time>2026-04-25T11:54:57Z</time></trkpt><trkpt lat="59.0962424409" lon="30.0264912285"><ele>71.76</ele><time>2026-04-25T11:55:04Z</time></trkpt><trkpt lat="59.0962648205" lon="30.0263335649"><ele>72.72</ele><time>2026-04-25T11:55:31Z</time></trkpt><trkpt lat="59.0962574445" lon="30.0264321361"><ele>76.08</ele><time>2026-04-25T11:55:42Z</time></trkpt><trkpt lat="59.0962917265" lon="30.0264634844"><ele>78.48</ele><time>2026-04-25T11:56:09Z</time></trkpt><trkpt lat="59.0962156188" lon="30.0265152846"><ele>79.93</ele><time>2026-04-25T11:56:40Z</time></trkpt><trkpt lat="59.0962356515" lon="30.0265290309"><ele>76.56</ele><time>2026-04-25T11:56:52Z</time></trkpt><trkpt lat="59.0962372441" lon="30.0265263487"><ele>80.41</ele><time>2026-04-25T11:56:54Z</time></trkpt><trkpt lat="59.0962417703" lon="30.0265226606"><ele>80.89</ele><time>2026-04-25T11:56:55Z</time></trkpt><trkpt lat="59.0962427761" lon="30.0265516620"><ele>81.85</ele><time>2026-04-25T11:57:15Z</time></trkpt><trkpt lat="59.0961903892" lon="30.0266538374"><ele>81.85</ele><time>2026-04-25T11:57:30Z</time></trkpt><trkpt lat="59.0961524192" lon="30.0267711002"><ele>82.81</ele><time>2026-04-25T11:57:47Z</time></trkpt><trkpt lat="59.0960877948" lon="30.0268256664"><ele>83.29</ele><time>2026-04-25T11:58:05Z</time></trkpt><trkpt lat="59.0960232541" lon="30.0269197114"><ele>83.29</ele><time>2026-04-25T11:58:21Z</time></trkpt><trkpt lat="59.0959598031" lon="30.0270383991"><ele>83.77</ele><time>2026-04-25T11:58:37Z</time></trkpt><trkpt lat="59.0958570410" lon="30.0271472801"><ele>83.77</ele><time>2026-04-25T11:58:56Z</time></trkpt><trkpt lat="59.0957968589" lon="30.0272005890"><ele>84.25</ele><time>2026-04-25T11:59:12Z</time></trkpt><trkpt lat="59.0957313962" lon="30.0272964779"><ele>84.73</ele><time>2026-04-25T11:59:27Z</time></trkpt><trkpt lat="59.0956627484" lon="30.0273445062"><ele>84.73</ele><time>2026-04-25T11:59:45Z</time></trkpt><trkpt lat="59.0956002194" lon="30.0273788720"><ele>84.73</ele><time>2026-04-25T11:59:58Z</time></trkpt><trkpt lat="59.0955498442" lon="30.0274347793"><ele>85.21</ele><time>2026-04-25T12:00:13Z</time></trkpt><trkpt lat="59.0955083538" lon="30.0275020022"><ele>85.21</ele><time>2026-04-25T12:00:27Z</time></trkpt><trkpt lat="59.0954232775" lon="30.0275453366"><ele>84.73</ele><time>2026-04-25T12:00:44Z</time></trkpt><trkpt lat="59.0953423083" lon="30.0276032556"><ele>85.21</ele><time>2026-04-25T12:01:05Z</time></trkpt><trkpt lat="59.0952663682" lon="30.0276768487"><ele>85.69</ele><time>2026-04-25T12:01:24Z</time></trkpt><trkpt lat="59.0952201001" lon="30.0277788565"><ele>85.69</ele><time>2026-04-25T12:01:42Z</time></trkpt><trkpt lat="59.0951350238" lon="30.0279064290"><ele>85.21</ele><time>2026-04-25T12:02:00Z</time></trkpt><trkpt lat="59.0951179247" lon="30.0279663596"><ele>83.29</ele><time>2026-04-25T12:02:17Z</time></trkpt><trkpt lat="59.0951119736" lon="30.0280573871"><ele>80.41</ele><time>2026-04-25T12:02:26Z</time></trkpt><trkpt lat="59.0951117221" lon="30.0280586444"><ele>80.89</ele><time>2026-04-25T12:02:27Z</time></trkpt><trkpt lat="59.0951115545" lon="30.0280619133"><ele>85.21</ele><time>2026-04-25T12:02:29Z</time></trkpt><trkpt lat="59.0951104648" lon="30.0280620810"><ele>84.73</ele><time>2026-04-25T12:02:30Z</time></trkpt><trkpt lat="59.0950833075" lon="30.0280469097"><ele>80.89</ele><time>2026-04-25T12:02:39Z</time></trkpt><trkpt lat="59.0951390471" lon="30.0280746538"><ele>80.89</ele><time>2026-04-25T12:03:05Z</time></trkpt><trkpt lat="59.0951586608" lon="30.0280707143"><ele>84.73</ele><time>2026-04-25T12:03:11Z</time></trkpt><trkpt lat="59.0951626841" lon="30.0280711334"><ele>84.73</ele><time>2026-04-25T12:03:12Z</time></trkpt><trkpt lat="59.0951724071" lon="30.0280704629"><ele>81.37</ele><time>2026-04-25T12:03:14Z</time></trkpt><trkpt lat="59.0951760113" lon="30.0280695409"><ele>80.89</ele><time>2026-04-25T12:03:15Z</time></trkpt><trkpt lat="59.0951819625" lon="30.0280599855"><ele>78.97</ele><time>2026-04-25T12:03:19Z</time></trkpt><trkpt lat="59.0951802023" lon="30.0280604884"><ele>84.73</ele><time>2026-04-25T12:03:22Z</time></trkpt><trkpt lat="59.0952052642" lon="30.0279930979"><ele>84.73</ele><time>2026-04-25T12:03:50Z</time></trkpt><trkpt lat="59.0951184276" lon="30.0279356819"><ele>83.77</ele><time>2026-04-25T12:04:15Z</time></trkpt><trkpt lat="59.0951135661" lon="30.0279329997"><ele>84.73</ele><time>2026-04-25T12:04:17Z</time></trkpt><trkpt lat="59.0950382128" lon="30.0279929303"><ele>80.41</ele><time>2026-04-25T12:04:39Z</time></trkpt><trkpt lat="59.0950500313" lon="30.0279973727"><ele>84.25</ele><time>2026-04-25T12:04:43Z</time></trkpt><trkpt lat="59.0950466786" lon="30.0279974565"><ele>84.25</ele><time>2026-04-25T12:04:44Z</time></trkpt><trkpt lat="59.0950487740" lon="30.0279357657"><ele>82.33</ele><time>2026-04-25T12:04:55Z</time></trkpt><trkpt lat="59.0950875822" lon="30.0280645117"><ele>83.77</ele><time>2026-04-25T12:05:01Z</time></trkpt><trkpt lat="59.0950946230" lon="30.0280853827"><ele>80.41</ele><time>2026-04-25T12:05:08Z</time></trkpt><trkpt lat="59.0950942878" lon="30.0280837063"><ele>81.37</ele><time>2026-04-25T12:05:09Z</time></trkpt><trkpt lat="59.0950895939" lon="30.0280780066"><ele>83.29</ele><time>2026-04-25T12:05:11Z</time></trkpt><trkpt lat="59.0951284021" lon="30.0279364362"><ele>81.85</ele><time>2026-04-25T12:05:37Z</time></trkpt><trkpt lat="59.0951912664" lon="30.0279371906"><ele>82.81</ele><time>2026-04-25T12:06:03Z</time></trkpt><trkpt lat="59.0951304976" lon="30.0279107038"><ele>84.25</ele><time>2026-04-25T12:06:32Z</time></trkpt><trkpt lat="59.0950957127" lon="30.0280061737"><ele>84.73</ele><time>2026-04-25T12:06:59Z</time></trkpt><trkpt lat="59.0950568207" lon="30.0280790962"><ele>85.69</ele><time>2026-04-25T12:07:20Z</time></trkpt><trkpt lat="59.0950558148" lon="30.0281976163"><ele>86.18</ele><time>2026-04-25T12:07:39Z</time></trkpt><trkpt lat="59.0949973091" lon="30.0282401964"><ele>86.18</ele><time>2026-04-25T12:07:55Z</time></trkpt><trkpt lat="59.0949555673" lon="30.0282522663"><ele>86.66</ele><time>2026-04-25T12:08:08Z</time></trkpt><trkpt lat="59.0948811360" lon="30.0283551961"><ele>86.66</ele><time>2026-04-25T12:08:29Z</time></trkpt><trkpt lat="59.0947917011" lon="30.0284074992"><ele>87.14</ele><time>2026-04-25T12:08:44Z</time></trkpt><trkpt lat="59.0947279148" lon="30.0284639094"><ele>87.62</ele><time>2026-04-25T12:09:00Z</time></trkpt><trkpt lat="59.0946819820" lon="30.0285155419"><ele>87.62</ele><time>2026-04-25T12:09:12Z</time></trkpt><trkpt lat="59.0946258232" lon="30.0284898933"><ele>87.62</ele><time>2026-04-25T12:09:25Z</time></trkpt><trkpt lat="59.0945239831" lon="30.0286094192"><ele>88.10</ele><time>2026-04-25T12:09:39Z</time></trkpt><trkpt lat="59.0944387391" lon="30.0287255086"><ele>88.10</ele><time>2026-04-25T12:09:55Z</time></trkpt><trkpt lat="59.0944275912" lon="30.0287433621"><ele>82.33</ele><time>2026-04-25T12:09:56Z</time></trkpt><trkpt lat="59.0944134258" lon="30.0287524145"><ele>83.29</ele><time>2026-04-25T12:09:57Z</time></trkpt><trkpt lat="59.0944285970" lon="30.0287865289"><ele>85.69</ele><time>2026-04-25T12:09:59Z</time></trkpt><trkpt lat="59.0944574308" lon="30.0288597867"><ele>88.10</ele><time>2026-04-25T12:10:05Z</time></trkpt><trkpt lat="59.0944482945" lon="30.0288770534"><ele>88.10</ele><time>2026-04-25T12:10:07Z</time></trkpt><trkpt lat="59.0944119170" lon="30.0289138500"><ele>88.10</ele><time>2026-04-25T12:10:13Z</time></trkpt><trkpt lat="59.0943072271" lon="30.0289337989"><ele>88.58</ele><time>2026-04-25T12:10:32Z</time></trkpt><trkpt lat="59.0942140203" lon="30.0291269179"><ele>88.58</ele><time>2026-04-25T12:10:48Z</time></trkpt><trkpt lat="59.0941515751" lon="30.0292045344"><ele>88.58</ele><time>2026-04-25T12:11:02Z</time></trkpt><trkpt lat="59.0940462146" lon="30.0292741042"><ele>89.06</ele><time>2026-04-25T12:11:16Z</time></trkpt><trkpt lat="59.0939813387" lon="30.0292881858"><ele>89.54</ele><time>2026-04-25T12:11:33Z</time></trkpt><trkpt lat="59.0939571150" lon="30.0292407442"><ele>89.54</ele><time>2026-04-25T12:11:58Z</time></trkpt><trkpt lat="59.0938968491" lon="30.0292997528"><ele>89.54</ele><time>2026-04-25T12:12:28Z</time></trkpt><trkpt lat="59.0938651655" lon="30.0293984916"><ele>89.54</ele><time>2026-04-25T12:12:44Z</time></trkpt><trkpt lat="59.0938218310" lon="30.0294160098"><ele>89.54</ele><time>2026-04-25T12:13:03Z</time></trkpt><trkpt lat="59.0938326437" lon="30.0294453464"><ele>86.18</ele><time>2026-04-25T12:13:07Z</time></trkpt><trkpt lat="59.0938162152" lon="30.0295565743"><ele>90.50</ele><time>2026-04-25T12:13:13Z</time></trkpt><trkpt lat="59.0938220825" lon="30.0295652077"><ele>90.02</ele><time>2026-04-25T12:13:14Z</time></trkpt><trkpt lat="59.0938463062" lon="30.0295656268"><ele>84.25</ele><time>2026-04-25T12:13:23Z</time></trkpt><trkpt lat="59.0938495751" lon="30.0295666326"><ele>85.21</ele><time>2026-04-25T12:13:24Z</time></trkpt><trkpt lat="59.0938580409" lon="30.0296000764"><ele>88.58</ele><time>2026-04-25T12:13:31Z</time></trkpt><trkpt lat="59.0938635729" lon="30.0296160020"><ele>90.98</ele><time>2026-04-25T12:13:38Z</time></trkpt><trkpt lat="59.0938708652" lon="30.0295011699"><ele>91.46</ele><time>2026-04-25T12:13:59Z</time></trkpt><trkpt lat="59.0939383395" lon="30.0295731705"><ele>92.42</ele><time>2026-04-25T12:14:31Z</time></trkpt><trkpt lat="59.0938789956" lon="30.0296314247"><ele>91.46</ele><time>2026-04-25T12:14:44Z</time></trkpt><trkpt lat="59.0938884672" lon="30.0296030939"><ele>88.58</ele><time>2026-04-25T12:14:51Z</time></trkpt><trkpt lat="59.0938639920" lon="30.0296346936"><ele>87.14</ele><time>2026-04-25T12:15:15Z</time></trkpt><trkpt lat="59.0938438755" lon="30.0296445005"><ele>88.10</ele><time>2026-04-25T12:15:30Z</time></trkpt><trkpt lat="59.0938603878" lon="30.0296553131"><ele>89.06</ele><time>2026-04-25T12:15:51Z</time></trkpt><trkpt lat="59.0938725416" lon="30.0296127331"><ele>89.06</ele><time>2026-04-25T12:16:07Z</time></trkpt><trkpt lat="59.0938687697" lon="30.0296126492"><ele>88.10</ele><time>2026-04-25T12:16:09Z</time></trkpt><trkpt lat="59.0938671771" lon="30.0296051055"><ele>84.73</ele><time>2026-04-25T12:16:12Z</time></trkpt><trkpt lat="59.0938665904" lon="30.0296034291"><ele>84.73</ele><time>2026-04-25T12:16:13Z</time></trkpt><trkpt lat="59.0938791633" lon="30.0295767747"><ele>84.73</ele><time>2026-04-25T12:16:36Z</time></trkpt><trkpt lat="59.0938710328" lon="30.0295745954"><ele>85.69</ele><time>2026-04-25T12:17:00Z</time></trkpt><trkpt lat="59.0938963462" lon="30.0296270661"><ele>87.14</ele><time>2026-04-25T12:17:30Z</time></trkpt><trkpt lat="59.0939310472" lon="30.0295086298"><ele>89.06</ele><time>2026-04-25T12:18:00Z</time></trkpt><trkpt lat="59.0938948374" lon="30.0294721685"><ele>89.54</ele><time>2026-04-25T12:18:31Z</time></trkpt><trkpt lat="59.0938836057" lon="30.0294572487"><ele>88.10</ele><time>2026-04-25T12:18:56Z</time></trkpt><trkpt lat="59.0938551910" lon="30.0294741802"><ele>85.69</ele><time>2026-04-25T12:19:06Z</time></trkpt><trkpt lat="59.0938667580" lon="30.0294866692"><ele>82.33</ele><time>2026-04-25T12:19:18Z</time></trkpt><trkpt lat="59.0938505810" lon="30.0295162573"><ele>80.89</ele><time>2026-04-25T12:19:35Z</time></trkpt><trkpt lat="59.0937956795" lon="30.0295579154"><ele>83.77</ele><time>2026-04-25T12:20:07Z</time></trkpt><trkpt lat="59.0938175563" lon="30.0295591727"><ele>86.18</ele><time>2026-04-25T12:20:25Z</time></trkpt><trkpt lat="59.0938107669" lon="30.0294720847"><ele>88.58</ele><time>2026-04-25T12:20:52Z</time></trkpt><trkpt lat="59.0938124433" lon="30.0294283312"><ele>90.98</ele><time>2026-04-25T12:21:22Z</time></trkpt><trkpt lat="59.0938304644" lon="30.0294243917"><ele>91.46</ele><time>2026-04-25T12:21:47Z</time></trkpt><trkpt lat="59.0937315580" lon="30.0293454342"><ele>92.90</ele><time>2026-04-25T12:22:14Z</time></trkpt><trkpt lat="59.0937235951" lon="30.0292951427"><ele>64.55</ele><time>2026-04-25T12:22:19Z</time></trkpt><trkpt lat="59.0937251039" lon="30.0292938016"><ele>64.55</ele><time>2026-04-25T12:22:20Z</time></trkpt><trkpt lat="59.0937277861" lon="30.0292894430"><ele>59.26</ele><time>2026-04-25T12:22:22Z</time></trkpt><trkpt lat="59.0937308874" lon="30.0292642135"><ele>70.31</ele><time>2026-04-25T12:22:27Z</time></trkpt><trkpt lat="59.0937337372" lon="30.0292610284"><ele>82.81</ele><time>2026-04-25T12:22:28Z</time></trkpt><trkpt lat="59.0937405266" lon="30.0292601902"><ele>82.81</ele><time>2026-04-25T12:22:29Z</time></trkpt><trkpt lat="59.0937425382" lon="30.0292515568"><ele>75.60</ele><time>2026-04-25T12:22:31Z</time></trkpt><trkpt lat="59.0937408619" lon="30.0292438455"><ele>80.89</ele><time>2026-04-25T12:22:32Z</time></trkpt><trkpt lat="59.0937355813" lon="30.0292327814"><ele>74.64</ele><time>2026-04-25T12:22:34Z</time></trkpt><trkpt lat="59.0937320609" lon="30.0292296801"><ele>77.04</ele><time>2026-04-25T12:22:35Z</time></trkpt><trkpt lat="59.0937280376" lon="30.0292283390"><ele>88.10</ele><time>2026-04-25T12:22:36Z</time></trkpt><trkpt lat="59.0937239304" lon="30.0292293448"><ele>88.10</ele><time>2026-04-25T12:22:37Z</time></trkpt><trkpt lat="59.0936839487" lon="30.0292685721"><ele>78.48</ele><time>2026-04-25T12:22:44Z</time></trkpt><trkpt lat="59.0936958510" lon="30.0293067098"><ele>87.62</ele><time>2026-04-25T12:22:45Z</time></trkpt><trkpt lat="59.0937429573" lon="30.0292674825"><ele>100.60</ele><time>2026-04-25T12:22:46Z</time></trkpt><trkpt lat="59.0938134491" lon="30.0293292571"><ele>100.60</ele><time>2026-04-25T12:22:47Z</time></trkpt><trkpt lat="59.0939044766" lon="30.0294864178"><ele>97.71</ele><time>2026-04-25T12:23:11Z</time></trkpt><trkpt lat="59.0938479826" lon="30.0294729229"><ele>95.31</ele><time>2026-04-25T12:23:39Z</time></trkpt><trkpt lat="59.0938471444" lon="30.0294122379"><ele>92.90</ele><time>2026-04-25T12:23:45Z</time></trkpt><trkpt lat="59.0938463900" lon="30.0294364616"><ele>91.94</ele><time>2026-04-25T12:24:11Z</time></trkpt><trkpt lat="59.0938443784" lon="30.0294159260"><ele>90.98</ele><time>2026-04-25T12:24:31Z</time></trkpt><trkpt lat="59.0938423667" lon="30.0294204522"><ele>89.54</ele><time>2026-04-25T12:24:34Z</time></trkpt><trkpt lat="59.0938022174" lon="30.0293803867"><ele>90.98</ele><time>2026-04-25T12:25:03Z</time></trkpt><trkpt lat="59.0936512593" lon="30.0293810572"><ele>91.94</ele><time>2026-04-25T12:25:21Z</time></trkpt><trkpt lat="59.0935645904" lon="30.0294061191"><ele>93.39</ele><time>2026-04-25T12:25:39Z</time></trkpt><trkpt lat="59.0935106110" lon="30.0294139143"><ele>95.31</ele><time>2026-04-25T12:25:55Z</time></trkpt><trkpt lat="59.0934021492" lon="30.0293923728"><ele>96.27</ele><time>2026-04-25T12:26:14Z</time></trkpt><trkpt lat="59.0933198389" lon="30.0294403173"><ele>96.75</ele><time>2026-04-25T12:26:31Z</time></trkpt><trkpt lat="59.0931808669" lon="30.0294695701"><ele>97.71</ele><time>2026-04-25T12:26:48Z</time></trkpt><trkpt lat="59.0930959582" lon="30.0294978172"><ele>98.19</ele><time>2026-04-25T12:27:03Z</time></trkpt><trkpt lat="59.0929776896" lon="30.0295488629"><ele>98.67</ele><time>2026-04-25T12:27:22Z</time></trkpt><trkpt lat="59.0928683896" lon="30.0295494497"><ele>93.87</ele><time>2026-04-25T12:27:38Z</time></trkpt><trkpt lat="59.0928689763" lon="30.0295480248"><ele>96.27</ele><time>2026-04-25T12:27:39Z</time></trkpt><trkpt lat="59.0928541403" lon="30.0295558199"><ele>98.19</ele><time>2026-04-25T12:27:45Z</time></trkpt><trkpt lat="59.0928166732" lon="30.0296131521"><ele>94.83</ele><time>2026-04-25T12:28:01Z</time></trkpt><trkpt lat="59.0927981492" lon="30.0295644533"><ele>93.87</ele><time>2026-04-25T12:28:29Z</time></trkpt><trkpt lat="59.0928081237" lon="30.0294938777"><ele>95.79</ele><time>2026-04-25T12:28:57Z</time></trkpt><trkpt lat="59.0926969796" lon="30.0294447597"><ele>96.27</ele><time>2026-04-25T12:29:12Z</time></trkpt><trkpt lat="59.0925945528" lon="30.0294911955"><ele>96.75</ele><time>2026-04-25T12:29:29Z</time></trkpt><trkpt lat="59.0924570896" lon="30.0295460131"><ele>97.23</ele><time>2026-04-25T12:29:45Z</time></trkpt><trkpt lat="59.0923232306" lon="30.0295916945"><ele>97.71</ele><time>2026-04-25T12:30:05Z</time></trkpt><trkpt lat="59.0922403336" lon="30.0295886770"><ele>94.35</ele><time>2026-04-25T12:30:18Z</time></trkpt><trkpt lat="59.0922261681" lon="30.0295929518"><ele>97.71</ele><time>2026-04-25T12:30:20Z</time></trkpt><trkpt lat="59.0921294410" lon="30.0296463445"><ele>98.67</ele><time>2026-04-25T12:30:38Z</time></trkpt><trkpt lat="59.0920665767" lon="30.0295657106"><ele>98.19</ele><time>2026-04-25T12:30:50Z</time></trkpt><trkpt lat="59.0920116752" lon="30.0295479409"><ele>98.19</ele><time>2026-04-25T12:31:03Z</time></trkpt><trkpt lat="59.0919846017" lon="30.0295538921"><ele>97.71</ele><time>2026-04-25T12:31:16Z</time></trkpt><trkpt lat="59.0919538401" lon="30.0295390561"><ele>97.71</ele><time>2026-04-25T12:31:38Z</time></trkpt><trkpt lat="59.0919418540" lon="30.0296530500"><ele>97.71</ele><time>2026-04-25T12:31:52Z</time></trkpt><trkpt lat="59.0918579511" lon="30.0296974741"><ele>97.71</ele><time>2026-04-25T12:32:05Z</time></trkpt><trkpt lat="59.0918011218" lon="30.0297425687"><ele>98.19</ele><time>2026-04-25T12:32:20Z</time></trkpt><trkpt lat="59.0918399300" lon="30.0297772698"><ele>98.19</ele><time>2026-04-25T12:32:41Z</time></trkpt><trkpt lat="59.0917283669" lon="30.0297177583"><ele>97.23</ele><time>2026-04-25T12:32:53Z</time></trkpt><trkpt lat="59.0916634072" lon="30.0297060236"><ele>90.50</ele><time>2026-04-25T12:33:06Z</time></trkpt><trkpt lat="59.0916606411" lon="30.0296994019"><ele>94.83</ele><time>2026-04-25T12:33:07Z</time></trkpt><trkpt lat="59.0916163847" lon="30.0297398027"><ele>97.23</ele><time>2026-04-25T12:33:23Z</time></trkpt><trkpt lat="59.0915189870" lon="30.0297697261"><ele>97.23</ele><time>2026-04-25T12:33:36Z</time></trkpt><trkpt lat="59.0913742315" lon="30.0298390444"><ele>97.23</ele><time>2026-04-25T12:33:52Z</time></trkpt><trkpt lat="59.0913466550" lon="30.0299038365"><ele>96.27</ele><time>2026-04-25T12:34:05Z</time></trkpt><trkpt lat="59.0913215093" lon="30.0299223606"><ele>96.75</ele><time>2026-04-25T12:34:20Z</time></trkpt><trkpt lat="59.0912749059" lon="30.0299531221"><ele>96.75</ele><time>2026-04-25T12:34:32Z</time></trkpt><trkpt lat="59.0912131313" lon="30.0300037488"><ele>96.75</ele><time>2026-04-25T12:34:47Z</time></trkpt><trkpt lat="59.0911428072" lon="30.0300708041"><ele>96.75</ele><time>2026-04-25T12:35:03Z</time></trkpt><trkpt lat="59.0910503548" lon="30.0301475823"><ele>96.75</ele><time>2026-04-25T12:35:19Z</time></trkpt><trkpt lat="59.0910112113" lon="30.0301999692"><ele>92.90</ele><time>2026-04-25T12:35:28Z</time></trkpt><trkpt lat="59.0910265502" lon="30.0301999692"><ele>92.90</ele><time>2026-04-25T12:35:29Z</time></trkpt><trkpt lat="59.0910423920" lon="30.0302274618"><ele>96.75</ele><time>2026-04-25T12:35:34Z</time></trkpt><trkpt lat="59.0910444874" lon="30.0302267913"><ele>95.79</ele><time>2026-04-25T12:35:35Z</time></trkpt><trkpt lat="59.0910383686" lon="30.0302287191"><ele>91.46</ele><time>2026-04-25T12:35:37Z</time></trkpt><trkpt lat="59.0910311602" lon="30.0302241091"><ele>95.31</ele><time>2026-04-25T12:35:39Z</time></trkpt><trkpt lat="59.0910287295" lon="30.0302190799"><ele>95.31</ele><time>2026-04-25T12:35:40Z</time></trkpt><trkpt lat="59.0910034161" lon="30.0301869772"><ele>95.31</ele><time>2026-04-25T12:35:51Z</time></trkpt><trkpt lat="59.0909198485" lon="30.0301616639"><ele>93.87</ele><time>2026-04-25T12:36:27Z</time></trkpt><trkpt lat="59.0909891669" lon="30.0302088540"><ele>91.94</ele><time>2026-04-25T12:36:54Z</time></trkpt><trkpt lat="59.0910133068" lon="30.0302212592"><ele>90.98</ele><time>2026-04-25T12:37:14Z</time></trkpt><trkpt lat="59.0909628477" lon="30.0302092731"><ele>89.06</ele><time>2026-04-25T12:37:30Z</time></trkpt><trkpt lat="59.0908688027" lon="30.0302524399"><ele>88.58</ele><time>2026-04-25T12:37:45Z</time></trkpt><trkpt lat="59.0907538030" lon="30.0302811060"><ele>89.54</ele><time>2026-04-25T12:38:03Z</time></trkpt><trkpt lat="59.0906762704" lon="30.0303505082"><ele>90.50</ele><time>2026-04-25T12:38:16Z</time></trkpt><trkpt lat="59.0906191897" lon="30.0303699542"><ele>91.46</ele><time>2026-04-25T12:38:30Z</time></trkpt><trkpt lat="59.0905077942" lon="30.0303484127"><ele>92.42</ele><time>2026-04-25T12:38:46Z</time></trkpt><trkpt lat="59.0904384758" lon="30.0304197427"><ele>92.90</ele><time>2026-04-25T12:39:02Z</time></trkpt><trkpt lat="59.0903963987" lon="30.0304864626"><ele>93.87</ele><time>2026-04-25T12:39:16Z</time></trkpt><trkpt lat="59.0903326124" lon="30.0305249356"><ele>92.42</ele><time>2026-04-25T12:39:32Z</time></trkpt><trkpt lat="59.0903306007" lon="30.0305112731"><ele>94.35</ele><time>2026-04-25T12:39:34Z</time></trkpt><trkpt lat="59.0902522299" lon="30.0305968523"><ele>94.35</ele><time>2026-04-25T12:39:49Z</time></trkpt><trkpt lat="59.0901667345" lon="30.0306226686"><ele>94.35</ele><time>2026-04-25T12:40:01Z</time></trkpt><trkpt lat="59.0900617931" lon="30.0306296255"><ele>91.46</ele><time>2026-04-25T12:40:17Z</time></trkpt><trkpt lat="59.0900570154" lon="30.0306287035"><ele>91.94</ele><time>2026-04-25T12:40:18Z</time></trkpt><trkpt lat="59.0900335461" lon="30.0306359958"><ele>94.83</ele><time>2026-04-25T12:40:21Z</time></trkpt><trkpt lat="59.0899314545" lon="30.0306820963"><ele>95.31</ele><time>2026-04-25T12:40:36Z</time></trkpt><trkpt lat="59.0899006091" lon="30.0307100080"><ele>89.06</ele><time>2026-04-25T12:40:41Z</time></trkpt><trkpt lat="59.0899011958" lon="30.0307180546"><ele>91.94</ele><time>2026-04-25T12:40:42Z</time></trkpt><trkpt lat="59.0898441151" lon="30.0307455473"><ele>94.83</ele><time>2026-04-25T12:41:02Z</time></trkpt><trkpt lat="59.0897457115" lon="30.0307845231"><ele>94.35</ele><time>2026-04-25T12:41:15Z</time></trkpt><trkpt lat="59.0896793269" lon="30.0308058970"><ele>94.35</ele><time>2026-04-25T12:41:27Z</time></trkpt><trkpt lat="59.0895831864" lon="30.0308743771"><ele>94.35</ele><time>2026-04-25T12:41:40Z</time></trkpt><trkpt lat="59.0895765647" lon="30.0308796577"><ele>90.98</ele><time>2026-04-25T12:41:42Z</time></trkpt><trkpt lat="59.0895760618" lon="30.0308774784"><ele>88.10</ele><time>2026-04-25T12:41:44Z</time></trkpt><trkpt lat="59.0895825997" lon="30.0308706891"><ele>92.42</ele><time>2026-04-25T12:41:45Z</time></trkpt><trkpt lat="59.0895814262" lon="30.0308635645"><ele>93.39</ele><time>2026-04-25T12:41:47Z</time></trkpt><trkpt lat="59.0895684343" lon="30.0308865309"><ele>93.87</ele><time>2026-04-25T12:42:08Z</time></trkpt><trkpt lat="59.0896002017" lon="30.0308394246"><ele>94.83</ele><time>2026-04-25T12:42:32Z</time></trkpt><trkpt lat="59.0895307995" lon="30.0309388340"><ele>94.83</ele><time>2026-04-25T12:43:01Z</time></trkpt><trkpt lat="59.0895769000" lon="30.0309188850"><ele>93.87</ele><time>2026-04-25T12:43:27Z</time></trkpt><trkpt lat="59.0896287002" lon="30.0308641512"><ele>93.87</ele><time>2026-04-25T12:43:51Z</time></trkpt><trkpt lat="59.0896077454" lon="30.0308785681"><ele>93.39</ele><time>2026-04-25T12:44:14Z</time></trkpt><trkpt lat="59.0896241739" lon="30.0308236666"><ele>91.46</ele><time>2026-04-25T12:44:22Z</time></trkpt><trkpt lat="59.0895838570" lon="30.0307354052"><ele>92.42</ele><time>2026-04-25T12:44:55Z</time></trkpt><trkpt lat="59.0895767324" lon="30.0308799930"><ele>88.58</ele><time>2026-04-25T12:45:14Z</time></trkpt><trkpt lat="59.0895737149" lon="30.0308923144"><ele>88.10</ele><time>2026-04-25T12:45:15Z</time></trkpt><trkpt lat="59.0895640757" lon="30.0309154484"><ele>84.25</ele><time>2026-04-25T12:45:25Z</time></trkpt><trkpt lat="59.0895601362" lon="30.0309125148"><ele>84.73</ele><time>2026-04-25T12:45:26Z</time></trkpt><trkpt lat="59.0895675123" lon="30.0309017021"><ele>86.18</ele><time>2026-04-25T12:45:31Z</time></trkpt><trkpt lat="59.0895538498" lon="30.0309264287"><ele>84.73</ele><time>2026-04-25T12:45:37Z</time></trkpt><trkpt lat="59.0895021334" lon="30.0309306197"><ele>85.21</ele><time>2026-04-25T12:46:06Z</time></trkpt><trkpt lat="59.0894991159" lon="30.0308889616"><ele>87.14</ele><time>2026-04-25T12:46:33Z</time></trkpt><trkpt lat="59.0895517543" lon="30.0309125148"><ele>85.21</ele><time>2026-04-25T12:46:46Z</time></trkpt><trkpt lat="59.0895478986" lon="30.0308702700"><ele>89.06</ele><time>2026-04-25T12:46:50Z</time></trkpt><trkpt lat="59.0895520896" lon="30.0308622234"><ele>88.58</ele><time>2026-04-25T12:46:51Z</time></trkpt><trkpt lat="59.0895366669" lon="30.0309290271"><ele>85.69</ele><time>2026-04-25T12:47:02Z</time></trkpt><trkpt lat="59.0895498265" lon="30.0309711881"><ele>87.62</ele><time>2026-04-25T12:47:06Z</time></trkpt><trkpt lat="59.0896024648" lon="30.0309052225"><ele>88.58</ele><time>2026-04-25T12:47:32Z</time></trkpt><trkpt lat="59.0895629860" lon="30.0308307074"><ele>89.06</ele><time>2026-04-25T12:47:53Z</time></trkpt><trkpt lat="59.0895477310" lon="30.0308308750"><ele>87.62</ele><time>2026-04-25T12:47:56Z</time></trkpt><trkpt lat="59.0895359125" lon="30.0308383349"><ele>90.02</ele><time>2026-04-25T12:48:01Z</time></trkpt><trkpt lat="59.0895249322" lon="30.0308215711"><ele>86.18</ele><time>2026-04-25T12:48:02Z</time></trkpt><trkpt lat="59.0895144548" lon="30.0308076572"><ele>86.18</ele><time>2026-04-25T12:48:03Z</time></trkpt><trkpt lat="59.0894711204" lon="30.0307939108"><ele>88.58</ele><time>2026-04-25T12:48:08Z</time></trkpt><trkpt lat="59.0894675162" lon="30.0307882112"><ele>87.14</ele><time>2026-04-25T12:48:13Z</time></trkpt><trkpt lat="59.0894779935" lon="30.0306781568"><ele>90.02</ele><time>2026-04-25T12:48:29Z</time></trkpt><trkpt lat="59.0894598886" lon="30.0304996222"><ele>90.02</ele><time>2026-04-25T12:48:47Z</time></trkpt><trkpt lat="59.0893779974" lon="30.0303569622"><ele>90.02</ele><time>2026-04-25T12:49:04Z</time></trkpt><trkpt lat="59.0893510915" lon="30.0302342512"><ele>90.98</ele><time>2026-04-25T12:49:21Z</time></trkpt><trkpt lat="59.0893691126" lon="30.0300865620"><ele>91.46</ele><time>2026-04-25T12:49:38Z</time></trkpt><trkpt lat="59.0893454757" lon="30.0299445726"><ele>90.50</ele><time>2026-04-25T12:49:55Z</time></trkpt><trkpt lat="59.0893321484" lon="30.0297478493"><ele>91.46</ele><time>2026-04-25T12:50:13Z</time></trkpt><trkpt lat="59.0892883111" lon="30.0295217894"><ele>91.46</ele><time>2026-04-25T12:50:31Z</time></trkpt><trkpt lat="59.0892693680" lon="30.0295409001"><ele>90.50</ele><time>2026-04-25T12:50:42Z</time></trkpt><trkpt lat="59.0892621595" lon="30.0295383018"><ele>87.14</ele><time>2026-04-25T12:50:49Z</time></trkpt><trkpt lat="59.0892768279" lon="30.0294687320"><ele>88.10</ele><time>2026-04-25T12:51:06Z</time></trkpt><trkpt lat="59.0892652608" lon="30.0293222163"><ele>88.10</ele><time>2026-04-25T12:51:20Z</time></trkpt><trkpt lat="59.0892557893" lon="30.0291668158"><ele>88.10</ele><time>2026-04-25T12:51:37Z</time></trkpt><trkpt lat="59.0892641712" lon="30.0291054603"><ele>88.58</ele><time>2026-04-25T12:51:54Z</time></trkpt><trkpt lat="59.0892582200" lon="30.0289935619"><ele>89.54</ele><time>2026-04-25T12:52:11Z</time></trkpt><trkpt lat="59.0892201662" lon="30.0288592000"><ele>89.54</ele><time>2026-04-25T12:52:27Z</time></trkpt><trkpt lat="59.0892940946" lon="30.0288156141"><ele>90.02</ele><time>2026-04-25T12:52:56Z</time></trkpt><trkpt lat="59.0891925897" lon="30.0288493931"><ele>89.06</ele><time>2026-04-25T12:53:30Z</time></trkpt><trkpt lat="59.0891951043" lon="30.0288729463"><ele>85.69</ele><time>2026-04-25T12:53:32Z</time></trkpt><trkpt lat="59.0891951881" lon="30.0288690068"><ele>90.02</ele><time>2026-04-25T12:53:33Z</time></trkpt><trkpt lat="59.0891977865" lon="30.0288659055"><ele>89.54</ele><time>2026-04-25T12:53:34Z</time></trkpt><trkpt lat="59.0891877282" lon="30.0288512371"><ele>88.10</ele><time>2026-04-25T12:53:37Z</time></trkpt><trkpt lat="59.0891846269" lon="30.0288376585"><ele>87.14</ele><time>2026-04-25T12:53:41Z</time></trkpt><trkpt lat="59.0891847946" lon="30.0288487226"><ele>89.06</ele><time>2026-04-25T12:53:43Z</time></trkpt><trkpt lat="59.0892168134" lon="30.0287543423"><ele>89.54</ele><time>2026-04-25T12:54:02Z</time></trkpt><trkpt lat="59.0891977027" lon="30.0285609718"><ele>89.54</ele><time>2026-04-25T12:54:21Z</time></trkpt><trkpt lat="59.0891612414" lon="30.0283852872"><ele>89.54</ele><time>2026-04-25T12:54:34Z</time></trkpt><trkpt lat="59.0891293902" lon="30.0281728897"><ele>90.02</ele><time>2026-04-25T12:54:57Z</time></trkpt><trkpt lat="59.0891131293" lon="30.0281615742"><ele>89.54</ele><time>2026-04-25T12:55:18Z</time></trkpt><trkpt lat="59.0891145542" lon="30.0280095264"><ele>84.25</ele><time>2026-04-25T12:55:33Z</time></trkpt><trkpt lat="59.0891112853" lon="30.0279914215"><ele>78.48</ele><time>2026-04-25T12:55:34Z</time></trkpt><trkpt lat="59.0891045798" lon="30.0279780943"><ele>87.14</ele><time>2026-04-25T12:55:35Z</time></trkpt><trkpt lat="59.0890894923" lon="30.0279667787"><ele>86.18</ele><time>2026-04-25T12:55:36Z</time></trkpt><trkpt lat="59.0890485048" lon="30.0278962031"><ele>88.58</ele><time>2026-04-25T12:55:42Z</time></trkpt><trkpt lat="59.0890578087" lon="30.0277656969"><ele>90.02</ele><time>2026-04-25T12:55:58Z</time></trkpt><trkpt lat="59.0890433919" lon="30.0275118928"><ele>90.02</ele><time>2026-04-25T12:56:16Z</time></trkpt><trkpt lat="59.0890324116" lon="30.0272627827"><ele>90.02</ele><time>2026-04-25T12:56:35Z</time></trkpt><trkpt lat="59.0889949445" lon="30.0271406583"><ele>90.02</ele><time>2026-04-25T12:56:51Z</time></trkpt><trkpt lat="59.0889872331" lon="30.0269315299"><ele>90.50</ele><time>2026-04-25T12:57:08Z</time></trkpt><trkpt lat="59.0889737383" lon="30.0267753750"><ele>90.50</ele><time>2026-04-25T12:57:26Z</time></trkpt><trkpt lat="59.0889511909" lon="30.0267122593"><ele>88.10</ele><time>2026-04-25T12:57:30Z</time></trkpt><trkpt lat="59.0889071859" lon="30.0266178790"><ele>89.06</ele><time>2026-04-25T12:57:46Z</time></trkpt><trkpt lat="59.0889099520" lon="30.0266125146"><ele>89.06</ele><time>2026-04-25T12:58:11Z</time></trkpt><trkpt lat="59.0889094491" lon="30.0266219024"><ele>88.10</ele><time>2026-04-25T12:58:16Z</time></trkpt><trkpt lat="59.0889009833" lon="30.0266452041"><ele>90.98</ele><time>2026-04-25T12:58:21Z</time></trkpt><trkpt lat="59.0889212675" lon="30.0266689248"><ele>89.54</ele><time>2026-04-25T12:58:44Z</time></trkpt><trkpt lat="59.0889578965" lon="30.0264494028"><ele>90.02</ele><time>2026-04-25T12:59:12Z</time></trkpt><trkpt lat="59.0889435634" lon="30.0265625585"><ele>89.06</ele><time>2026-04-25T12:59:36Z</time></trkpt><trkpt lat="59.0890408773" lon="30.0266361516"><ele>89.54</ele><time>2026-04-25T12:59:59Z</time></trkpt><trkpt lat="59.0891172364" lon="30.0265571102"><ele>89.54</ele><time>2026-04-25T13:00:23Z</time></trkpt><trkpt lat="59.0892091021" lon="30.0266123470"><ele>89.06</ele><time>2026-04-25T13:00:41Z</time></trkpt><trkpt lat="59.0892796777" lon="30.0265136082"><ele>89.54</ele><time>2026-04-25T13:00:59Z</time></trkpt><trkpt lat="59.0893996228" lon="30.0264694355"><ele>89.06</ele><time>2026-04-25T13:01:18Z</time></trkpt><trkpt lat="59.0895714518" lon="30.0263513345"><ele>89.06</ele><time>2026-04-25T13:01:40Z</time></trkpt><trkpt lat="59.0896948334" lon="30.0262773223"><ele>88.58</ele><time>2026-04-25T13:01:57Z</time></trkpt><trkpt lat="59.0897475556" lon="30.0262576248"><ele>89.06</ele><time>2026-04-25T13:02:16Z</time></trkpt><trkpt lat="59.0898768045" lon="30.0261375122"><ele>88.58</ele><time>2026-04-25T13:02:36Z</time></trkpt><trkpt lat="59.0899156127" lon="30.0261232629"><ele>88.10</ele><time>2026-04-25T13:02:54Z</time></trkpt><trkpt lat="59.0900736116" lon="30.0259382743"><ele>87.62</ele><time>2026-04-25T13:03:12Z</time></trkpt><trkpt lat="59.0901031997" lon="30.0258508511"><ele>87.62</ele><time>2026-04-25T13:03:30Z</time></trkpt><trkpt lat="59.0901954845" lon="30.0257855561"><ele>87.14</ele><time>2026-04-25T13:03:47Z</time></trkpt><trkpt lat="59.0902501345" lon="30.0257806946"><ele>86.66</ele><time>2026-04-25T13:04:01Z</time></trkpt><trkpt lat="59.0904250648" lon="30.0257206801"><ele>86.18</ele><time>2026-04-25T13:04:18Z</time></trkpt><trkpt lat="59.0904989932" lon="30.0257179141"><ele>86.18</ele><time>2026-04-25T13:04:34Z</time></trkpt><trkpt lat="59.0905879252" lon="30.0256742444"><ele>78.97</ele><time>2026-04-25T13:04:47Z</time></trkpt><trkpt lat="59.0905880090" lon="30.0256646052"><ele>84.25</ele><time>2026-04-25T13:04:48Z</time></trkpt><trkpt lat="59.0905924514" lon="30.0256731547"><ele>80.41</ele><time>2026-04-25T13:04:51Z</time></trkpt><trkpt lat="59.0905908588" lon="30.0256748311"><ele>81.85</ele><time>2026-04-25T13:04:52Z</time></trkpt><trkpt lat="59.0905970614" lon="30.0256445725"><ele>83.29</ele><time>2026-04-25T13:04:54Z</time></trkpt><trkpt lat="59.0906177647" lon="30.0256180856"><ele>83.77</ele><time>2026-04-25T13:05:00Z</time></trkpt><trkpt lat="59.0906558186" lon="30.0256580673"><ele>84.73</ele><time>2026-04-25T13:05:25Z</time></trkpt><trkpt lat="59.0907368716" lon="30.0255148206"><ele>83.77</ele><time>2026-04-25T13:05:44Z</time></trkpt><trkpt lat="59.0908559784" lon="30.0255086180"><ele>84.25</ele><time>2026-04-25T13:06:03Z</time></trkpt><trkpt lat="59.0909831319" lon="30.0254597515"><ele>84.25</ele><time>2026-04-25T13:06:17Z</time></trkpt><trkpt lat="59.0909993928" lon="30.0254101306"><ele>83.77</ele><time>2026-04-25T13:06:34Z</time></trkpt><trkpt lat="59.0910534561" lon="30.0252085458"><ele>83.77</ele><time>2026-04-25T13:06:53Z</time></trkpt><trkpt lat="59.0911309049" lon="30.0251063704"><ele>83.77</ele><time>2026-04-25T13:07:12Z</time></trkpt><trkpt lat="59.0912096947" lon="30.0250800513"><ele>84.25</ele><time>2026-04-25T13:07:33Z</time></trkpt><trkpt lat="59.0912892390" lon="30.0251173507"><ele>80.89</ele><time>2026-04-25T13:07:46Z</time></trkpt><trkpt lat="59.0912833717" lon="30.0251022633"><ele>81.85</ele><time>2026-04-25T13:07:47Z</time></trkpt><trkpt lat="59.0913433023" lon="30.0250676461"><ele>83.77</ele><time>2026-04-25T13:08:03Z</time></trkpt><trkpt lat="59.0914096870" lon="30.0250434224"><ele>83.77</ele><time>2026-04-25T13:08:17Z</time></trkpt><trkpt lat="59.0915306378" lon="30.0249791332"><ele>82.81</ele><time>2026-04-25T13:08:43Z</time></trkpt><trkpt lat="59.0915546939" lon="30.0249916222"><ele>83.29</ele><time>2026-04-25T13:09:18Z</time></trkpt><trkpt lat="59.0915980283" lon="30.0250773691"><ele>83.29</ele><time>2026-04-25T13:09:33Z</time></trkpt><trkpt lat="59.0916220006" lon="30.0251042750"><ele>83.77</ele><time>2026-04-25T13:09:47Z</time></trkpt><trkpt lat="59.0916938335" lon="30.0251739286"><ele>83.29</ele><time>2026-04-25T13:10:04Z</time></trkpt><trkpt lat="59.0917807538" lon="30.0251155905"><ele>83.77</ele><time>2026-04-25T13:10:30Z</time></trkpt><trkpt lat="59.0918512456" lon="30.0252418220"><ele>83.77</ele><time>2026-04-25T13:10:47Z</time></trkpt><trkpt lat="59.0919309575" lon="30.0252173468"><ele>83.77</ele><time>2026-04-25T13:11:06Z</time></trkpt><trkpt lat="59.0920053888" lon="30.0253103022"><ele>83.77</ele><time>2026-04-25T13:11:21Z</time></trkpt><trkpt lat="59.0921254177" lon="30.0253119785"><ele>83.77</ele><time>2026-04-25T13:11:43Z</time></trkpt><trkpt lat="59.0921618789" lon="30.0252963882"><ele>79.45</ele><time>2026-04-25T13:11:56Z</time></trkpt><trkpt lat="59.0921625495" lon="30.0253031775"><ele>81.37</ele><time>2026-04-25T13:11:57Z</time></trkpt><trkpt lat="59.0921721049" lon="30.0252872519"><ele>82.81</ele><time>2026-04-25T13:12:04Z</time></trkpt><trkpt lat="59.0921873599" lon="30.0253617670"><ele>82.33</ele><time>2026-04-25T13:12:28Z</time></trkpt><trkpt lat="59.0922827460" lon="30.0254468434"><ele>81.85</ele><time>2026-04-25T13:12:46Z</time></trkpt><trkpt lat="59.0923820715" lon="30.0254323427"><ele>81.85</ele><time>2026-04-25T13:13:05Z</time></trkpt><trkpt lat="59.0924888570" lon="30.0253712386"><ele>81.85</ele><time>2026-04-25T13:13:20Z</time></trkpt><trkpt lat="59.0925694071" lon="30.0253558159"><ele>81.85</ele><time>2026-04-25T13:13:38Z</time></trkpt><trkpt lat="59.0926050302" lon="30.0251703244"><ele>82.33</ele><time>2026-04-25T13:14:01Z</time></trkpt><trkpt lat="59.0926644579" lon="30.0251979847"><ele>78.00</ele><time>2026-04-25T13:14:15Z</time></trkpt><trkpt lat="59.0926623624" lon="30.0251937099"><ele>80.89</ele><time>2026-04-25T13:14:16Z</time></trkpt><trkpt lat="59.0927078761" lon="30.0251813885"><ele>81.85</ele><time>2026-04-25T13:14:29Z</time></trkpt><trkpt lat="59.0928083751" lon="30.0251515489"><ele>81.37</ele><time>2026-04-25T13:14:48Z</time></trkpt><trkpt lat="59.0928705689" lon="30.0250755250"><ele>80.89</ele><time>2026-04-25T13:15:07Z</time></trkpt><trkpt lat="59.0928749274" lon="30.0250641257"><ele>79.93</ele><time>2026-04-25T13:15:09Z</time></trkpt><trkpt lat="59.0928819682" lon="30.0250335317"><ele>81.37</ele><time>2026-04-25T13:15:11Z</time></trkpt><trkpt lat="59.0929806232" lon="30.0250193663"><ele>81.85</ele><time>2026-04-25T13:15:31Z</time></trkpt><trkpt lat="59.0930614248" lon="30.0250340346"><ele>81.37</ele><time>2026-04-25T13:15:50Z</time></trkpt><trkpt lat="59.0930437390" lon="30.0250481162"><ele>81.37</ele><time>2026-04-25T13:16:14Z</time></trkpt><trkpt lat="59.0930972993" lon="30.0249924604"><ele>81.85</ele><time>2026-04-25T13:16:34Z</time></trkpt><trkpt lat="59.0931124706" lon="30.0249528978"><ele>82.33</ele><time>2026-04-25T13:16:54Z</time></trkpt><trkpt lat="59.0931223612" lon="30.0249590166"><ele>81.37</ele><time>2026-04-25T13:17:09Z</time></trkpt><trkpt lat="59.0931944456" lon="30.0249189511"><ele>82.33</ele><time>2026-04-25T13:17:29Z</time></trkpt><trkpt lat="59.0932701342" lon="30.0249434263"><ele>82.33</ele><time>2026-04-25T13:17:46Z</time></trkpt><trkpt lat="59.0932952799" lon="30.0250103977"><ele>82.33</ele><time>2026-04-25T13:18:01Z</time></trkpt><trkpt lat="59.0933428053" lon="30.0250761118"><ele>78.97</ele><time>2026-04-25T13:18:14Z</time></trkpt><trkpt lat="59.0933492593" lon="30.0250747707"><ele>78.97</ele><time>2026-04-25T13:18:15Z</time></trkpt><trkpt lat="59.0933504328" lon="30.0250827335"><ele>82.33</ele><time>2026-04-25T13:18:16Z</time></trkpt><trkpt lat="59.0933480021" lon="30.0250601023"><ele>82.33</ele><time>2026-04-25T13:18:17Z</time></trkpt><trkpt lat="59.0933514386" lon="30.0250302628"><ele>80.89</ele><time>2026-04-25T13:18:23Z</time></trkpt><trkpt lat="59.0934032388" lon="30.0250242278"><ele>82.33</ele><time>2026-04-25T13:18:41Z</time></trkpt><trkpt lat="59.0934868064" lon="30.0249435101"><ele>81.85</ele><time>2026-04-25T13:18:59Z</time></trkpt><trkpt lat="59.0935364272" lon="30.0249417499"><ele>81.85</ele><time>2026-04-25T13:19:15Z</time></trkpt><trkpt lat="59.0935691167" lon="30.0248725992"><ele>81.85</ele><time>2026-04-25T13:19:32Z</time></trkpt><trkpt lat="59.0936626587" lon="30.0248607807"><ele>81.37</ele><time>2026-04-25T13:19:49Z</time></trkpt><trkpt lat="59.0936706215" lon="30.0247765426"><ele>78.48</ele><time>2026-04-25T13:19:56Z</time></trkpt><trkpt lat="59.0937121958" lon="30.0247523189"><ele>81.37</ele><time>2026-04-25T13:20:02Z</time></trkpt><trkpt lat="59.0937147103" lon="30.0247939769"><ele>79.93</ele><time>2026-04-25T13:20:05Z</time></trkpt><trkpt lat="59.0937301330" lon="30.0248195417"><ele>81.37</ele><time>2026-04-25T13:20:08Z</time></trkpt><trkpt lat="59.0938206576" lon="30.0248645525"><ele>80.89</ele><time>2026-04-25T13:20:23Z</time></trkpt><trkpt lat="59.0938724577" lon="30.0248750299"><ele>79.93</ele><time>2026-04-25T13:20:39Z</time></trkpt><trkpt lat="59.0939036384" lon="30.0248425081"><ele>79.93</ele><time>2026-04-25T13:20:57Z</time></trkpt><trkpt lat="59.0939824283" lon="30.0247824937"><ele>79.93</ele><time>2026-04-25T13:21:17Z</time></trkpt><trkpt lat="59.0940590389" lon="30.0246866047"><ele>80.89</ele><time>2026-04-25T13:21:35Z</time></trkpt><trkpt lat="59.0940975957" lon="30.0245203078"><ele>76.08</ele><time>2026-04-25T13:21:50Z</time></trkpt><trkpt lat="59.0941024572" lon="30.0245132670"><ele>80.41</ele><time>2026-04-25T13:21:51Z</time></trkpt><trkpt lat="59.0940720309" lon="30.0246204715"><ele>65.99</ele><time>2026-04-25T13:22:06Z</time></trkpt><trkpt lat="59.0940628946" lon="30.0246366486"><ele>71.27</ele><time>2026-04-25T13:22:09Z</time></trkpt><trkpt lat="59.0940618049" lon="30.0246021990"><ele>73.68</ele><time>2026-04-25T13:22:18Z</time></trkpt><trkpt lat="59.0940069873" lon="30.0246027019"><ele>77.04</ele><time>2026-04-25T13:22:48Z</time></trkpt><trkpt lat="59.0939903073" lon="30.0246071443"><ele>71.27</ele><time>2026-04-25T13:22:59Z</time></trkpt><trkpt lat="59.0940169618" lon="30.0246115867"><ele>86.18</ele><time>2026-04-25T13:23:01Z</time></trkpt><trkpt lat="59.0940192249" lon="30.0246096589"><ele>85.69</ele><time>2026-04-25T13:23:02Z</time></trkpt><trkpt lat="59.0940775629" lon="30.0245981757"><ele>81.37</ele><time>2026-04-25T13:23:15Z</time></trkpt><trkpt lat="59.0940621402" lon="30.0245726947"><ele>81.37</ele><time>2026-04-25T13:23:16Z</time></trkpt><trkpt lat="59.0940377489" lon="30.0245783944"><ele>78.48</ele><time>2026-04-25T13:23:33Z</time></trkpt><trkpt lat="59.0940452088" lon="30.0245949067"><ele>78.00</ele><time>2026-04-25T13:23:38Z</time></trkpt><trkpt lat="59.0940110944" lon="30.0246908795"><ele>77.52</ele><time>2026-04-25T13:24:09Z</time></trkpt><trkpt lat="59.0940069873" lon="30.0246740319"><ele>62.62</ele><time>2026-04-25T13:24:19Z</time></trkpt><trkpt lat="59.0940078255" lon="30.0246656500"><ele>64.55</ele><time>2026-04-25T13:24:20Z</time></trkpt><trkpt lat="59.0940084122" lon="30.0246641412"><ele>77.52</ele><time>2026-04-25T13:24:21Z</time></trkpt><trkpt lat="59.0940095019" lon="30.0246674102"><ele>75.60</ele><time>2026-04-25T13:24:22Z</time></trkpt><trkpt lat="59.0939934924" lon="30.0246160291"><ele>77.52</ele><time>2026-04-25T13:24:58Z</time></trkpt><trkpt lat="59.0939571988" lon="30.0247115828"><ele>78.00</ele><time>2026-04-25T13:25:31Z</time></trkpt><trkpt lat="59.0939391777" lon="30.0246934779"><ele>77.52</ele><time>2026-04-25T13:26:05Z</time></trkpt><trkpt lat="59.0939613059" lon="30.0246022828"><ele>77.52</ele><time>2026-04-25T13:26:35Z</time></trkpt><trkpt lat="59.0939598810" lon="30.0245928951"><ele>76.08</ele><time>2026-04-25T13:26:45Z</time></trkpt><trkpt lat="59.0939819254" lon="30.0247220602"><ele>77.52</ele><time>2026-04-25T13:27:24Z</time></trkpt><trkpt lat="59.0939371660" lon="30.0247547496"><ele>77.52</ele><time>2026-04-25T13:28:04Z</time></trkpt><trkpt lat="59.0939644910" lon="30.0246661529"><ele>77.04</ele><time>2026-04-25T13:28:47Z</time></trkpt><trkpt lat="59.0939198155" lon="30.0247228146"><ele>76.56</ele><time>2026-04-25T13:29:13Z</time></trkpt><trkpt lat="59.0939712804" lon="30.0247062184"><ele>77.52</ele><time>2026-04-25T13:29:45Z</time></trkpt><trkpt lat="59.0939658321" lon="30.0246803183"><ele>77.04</ele><time>2026-04-25T13:30:15Z</time></trkpt><trkpt lat="59.0940143634" lon="30.0246550888"><ele>76.56</ele><time>2026-04-25T13:30:54Z</time></trkpt><trkpt lat="59.0940071549" lon="30.0246231537"><ele>78.48</ele><time>2026-04-25T13:31:13Z</time></trkpt><trkpt lat="59.0940181352" lon="30.0246572681"><ele>60.22</ele><time>2026-04-25T13:31:34Z</time></trkpt><trkpt lat="59.0940178838" lon="30.0246604532"><ele>65.03</ele><time>2026-04-25T13:31:35Z</time></trkpt><trkpt lat="59.0940182190" lon="30.0246634707"><ele>75.12</ele><time>2026-04-25T13:31:36Z</time></trkpt><trkpt lat="59.0940202307" lon="30.0246649794"><ele>75.12</ele><time>2026-04-25T13:31:37Z</time></trkpt><trkpt lat="59.0940266009" lon="30.0246629678"><ele>78.00</ele><time>2026-04-25T13:31:40Z</time></trkpt><trkpt lat="59.0940419398" lon="30.0246424321"><ele>75.12</ele><time>2026-04-25T13:31:47Z</time></trkpt><trkpt lat="59.0940447059" lon="30.0246336311"><ele>79.45</ele><time>2026-04-25T13:31:48Z</time></trkpt><trkpt lat="59.0940461308" lon="30.0246249977"><ele>79.45</ele><time>2026-04-25T13:31:49Z</time></trkpt><trkpt lat="59.0940623917" lon="30.0246006902"><ele>76.08</ele><time>2026-04-25T13:31:54Z</time></trkpt><trkpt lat="59.0940647386" lon="30.0245944038"><ele>79.93</ele><time>2026-04-25T13:32:00Z</time></trkpt><trkpt lat="59.0940664988" lon="30.0246063061"><ele>79.93</ele><time>2026-04-25T13:32:01Z</time></trkpt><trkpt lat="59.0940432809" lon="30.0246605370"><ele>75.12</ele><time>2026-04-25T13:32:16Z</time></trkpt><trkpt lat="59.0940407664" lon="30.0246625487"><ele>78.00</ele><time>2026-04-25T13:32:17Z</time></trkpt><trkpt lat="59.0940470528" lon="30.0246650632"><ele>79.45</ele><time>2026-04-25T13:32:23Z</time></trkpt><trkpt lat="59.0940872021" lon="30.0246235728"><ele>75.12</ele><time>2026-04-25T13:32:51Z</time></trkpt><trkpt lat="59.0940870345" lon="30.0246245787"><ele>75.60</ele><time>2026-04-25T13:32:52Z</time></trkpt><trkpt lat="59.0940821730" lon="30.0246362295"><ele>79.93</ele><time>2026-04-25T13:33:09Z</time></trkpt><trkpt lat="59.0940841846" lon="30.0245994329"><ele>75.12</ele><time>2026-04-25T13:33:16Z</time></trkpt><trkpt lat="59.0940867830" lon="30.0246016961"><ele>80.89</ele><time>2026-04-25T13:33:17Z</time></trkpt><trkpt lat="59.0940866992" lon="30.0245949067"><ele>77.52</ele><time>2026-04-25T13:33:25Z</time></trkpt><trkpt lat="59.0940918121" lon="30.0245895423"><ele>80.89</ele><time>2026-04-25T13:33:26Z</time></trkpt><trkpt lat="59.0941175446" lon="30.0245697610"><ele>78.48</ele><time>2026-04-25T13:33:32Z</time></trkpt><trkpt lat="59.0941236634" lon="30.0245699286"><ele>81.37</ele><time>2026-04-25T13:33:34Z</time></trkpt><trkpt lat="59.0940896329" lon="30.0245853513"><ele>78.00</ele><time>2026-04-25T13:33:53Z</time></trkpt><trkpt lat="59.0940846875" lon="30.0245897099"><ele>81.37</ele><time>2026-04-25T13:33:55Z</time></trkpt><trkpt lat="59.0940834302" lon="30.0245964993"><ele>81.85</ele><time>2026-04-25T13:33:56Z</time></trkpt><trkpt lat="59.0941521619" lon="30.0246205553"><ele>82.33</ele><time>2026-04-25T13:34:17Z</time></trkpt><trkpt lat="59.0941957477" lon="30.0245184638"><ele>82.33</ele><time>2026-04-25T13:34:37Z</time></trkpt><trkpt lat="59.0942415129" lon="30.0244455412"><ele>82.81</ele><time>2026-04-25T13:34:58Z</time></trkpt><trkpt lat="59.0943032876" lon="30.0244375784"><ele>83.29</ele><time>2026-04-25T13:35:13Z</time></trkpt><trkpt lat="59.0943555068" lon="30.0244255085"><ele>83.77</ele><time>2026-04-25T13:35:30Z</time></trkpt><trkpt lat="59.0943940636" lon="30.0243933219"><ele>84.25</ele><time>2026-04-25T13:35:47Z</time></trkpt><trkpt lat="59.0944680758" lon="30.0243440364"><ele>84.73</ele><time>2026-04-25T13:36:10Z</time></trkpt><trkpt lat="59.0944856778" lon="30.0242792442"><ele>84.73</ele><time>2026-04-25T13:36:27Z</time></trkpt><trkpt lat="59.0944829118" lon="30.0243000314"><ele>74.64</ele><time>2026-04-25T13:36:34Z</time></trkpt><trkpt lat="59.0944824088" lon="30.0243023783"><ele>76.08</ele><time>2026-04-25T13:36:35Z</time></trkpt><trkpt lat="59.0944798104" lon="30.0243057311"><ele>84.73</ele><time>2026-04-25T13:36:37Z</time></trkpt><trkpt lat="59.0944785532" lon="30.0243035518"><ele>80.89</ele><time>2026-04-25T13:36:38Z</time></trkpt><trkpt lat="59.0944791399" lon="30.0242994446"><ele>75.60</ele><time>2026-04-25T13:36:39Z</time></trkpt><trkpt lat="59.0944805648" lon="30.0243006181"><ele>71.76</ele><time>2026-04-25T13:36:41Z</time></trkpt><trkpt lat="59.0944808163" lon="30.0243009534"><ele>75.60</ele><time>2026-04-25T13:36:42Z</time></trkpt><trkpt lat="59.0944807325" lon="30.0243026298"><ele>80.41</ele><time>2026-04-25T13:36:43Z</time></trkpt><trkpt lat="59.0944803134" lon="30.0243029650"><ele>85.69</ele><time>2026-04-25T13:36:44Z</time></trkpt><trkpt lat="59.0944840014" lon="30.0243139453"><ele>86.18</ele><time>2026-04-25T13:36:45Z</time></trkpt><trkpt lat="59.0945313592" lon="30.0243968423"><ele>86.18</ele><time>2026-04-25T13:37:03Z</time></trkpt><trkpt lat="59.0946252365" lon="30.0243655778"><ele>86.18</ele><time>2026-04-25T13:37:21Z</time></trkpt><trkpt lat="59.0946838260" lon="30.0243858621"><ele>86.18</ele><time>2026-04-25T13:37:38Z</time></trkpt><trkpt lat="59.0947549883" lon="30.0244405121"><ele>86.66</ele><time>2026-04-25T13:37:52Z</time></trkpt><trkpt lat="59.0948732570" lon="30.0244224072"><ele>86.18</ele><time>2026-04-25T13:38:13Z</time></trkpt><trkpt lat="59.0949005820" lon="30.0244232453"><ele>82.81</ele><time>2026-04-25T13:38:22Z</time></trkpt><trkpt lat="59.0948823094" lon="30.0244145282"><ele>84.25</ele><time>2026-04-25T13:38:23Z</time></trkpt><trkpt lat="59.0949386358" lon="30.0244063139"><ele>85.69</ele><time>2026-04-25T13:38:43Z</time></trkpt><trkpt lat="59.0950553957" lon="30.0243177172"><ele>85.21</ele><time>2026-04-25T13:39:01Z</time></trkpt><trkpt lat="59.0951339342" lon="30.0242867041"><ele>84.73</ele><time>2026-04-25T13:39:22Z</time></trkpt><trkpt lat="59.0952321701" lon="30.0242307130"><ele>85.21</ele><time>2026-04-25T13:39:39Z</time></trkpt><trkpt lat="59.0953237843" lon="30.0241856184"><ele>85.69</ele><time>2026-04-25T13:39:58Z</time></trkpt><trkpt lat="59.0953478403" lon="30.0241488218"><ele>78.97</ele><time>2026-04-25T13:40:07Z</time></trkpt><trkpt lat="59.0953444876" lon="30.0241394341"><ele>78.97</ele><time>2026-04-25T13:40:08Z</time></trkpt><trkpt lat="59.0953402966" lon="30.0241160486"><ele>85.69</ele><time>2026-04-25T13:40:12Z</time></trkpt><trkpt lat="59.0953350160" lon="30.0241095945"><ele>85.69</ele><time>2026-04-25T13:40:13Z</time></trkpt><trkpt lat="59.0953313280" lon="30.0240808446"><ele>83.77</ele><time>2026-04-25T13:40:29Z</time></trkpt><trkpt lat="59.0953399613" lon="30.0240760669"><ele>82.81</ele><time>2026-04-25T13:41:05Z</time></trkpt><trkpt lat="59.0953589883" lon="30.0240904838"><ele>84.73</ele><time>2026-04-25T13:41:08Z</time></trkpt><trkpt lat="59.0954490937" lon="30.0241163000"><ele>84.25</ele><time>2026-04-25T13:41:26Z</time></trkpt><trkpt lat="59.0954739880" lon="30.0241181441"><ele>79.93</ele><time>2026-04-25T13:41:34Z</time></trkpt><trkpt lat="59.0954697132" lon="30.0240905676"><ele>82.81</ele><time>2026-04-25T13:41:35Z</time></trkpt><trkpt lat="59.0954930987" lon="30.0241052359"><ele>84.25</ele><time>2026-04-25T13:41:56Z</time></trkpt><trkpt lat="59.0955545381" lon="30.0240674336"><ele>84.73</ele><time>2026-04-25T13:42:13Z</time></trkpt><trkpt lat="59.0956061706" lon="30.0240246020"><ele>84.73</ele><time>2026-04-25T13:42:31Z</time></trkpt><trkpt lat="59.0957041550" lon="30.0240455568"><ele>84.73</ele><time>2026-04-25T13:42:49Z</time></trkpt><trkpt lat="59.0957752336" lon="30.0240941718"><ele>85.69</ele><time>2026-04-25T13:43:06Z</time></trkpt><trkpt lat="59.0958778281" lon="30.0240615662"><ele>85.69</ele><time>2026-04-25T13:43:25Z</time></trkpt><trkpt lat="59.0959613957" lon="30.0240891427"><ele>85.69</ele><time>2026-04-25T13:43:42Z</time></trkpt><trkpt lat="59.0960325580" lon="30.0241374224"><ele>85.21</ele><time>2026-04-25T13:44:04Z</time></trkpt><trkpt lat="59.0961190592" lon="30.0240691099"><ele>85.21</ele><time>2026-04-25T13:44:21Z</time></trkpt><trkpt lat="59.0961651597" lon="30.0240269490"><ele>84.73</ele><time>2026-04-25T13:44:41Z</time></trkpt><trkpt lat="59.0962151159" lon="30.0241145398"><ele>85.21</ele><time>2026-04-25T13:44:55Z</time></trkpt><trkpt lat="59.0962749626" lon="30.0239874702"><ele>84.73</ele><time>2026-04-25T13:45:13Z</time></trkpt><trkpt lat="59.0963300318" lon="30.0239758193"><ele>84.73</ele><time>2026-04-25T13:45:37Z</time></trkpt><trkpt lat="59.0963538364" lon="30.0240005460"><ele>84.73</ele><time>2026-04-25T13:45:51Z</time></trkpt><trkpt lat="59.0964089893" lon="30.0240192376"><ele>84.73</ele><time>2026-04-25T13:46:06Z</time></trkpt><trkpt lat="59.0964807384" lon="30.0239371788"><ele>84.25</ele><time>2026-04-25T13:46:22Z</time></trkpt><trkpt lat="59.0965280961" lon="30.0238248613"><ele>84.25</ele><time>2026-04-25T13:46:41Z</time></trkpt><trkpt lat="59.0965249110" lon="30.0238256156"><ele>74.16</ele><time>2026-04-25T13:46:44Z</time></trkpt><trkpt lat="59.0965254977" lon="30.0238319859"><ele>82.33</ele><time>2026-04-25T13:46:45Z</time></trkpt><trkpt lat="59.0965168644" lon="30.0238233525"><ele>83.77</ele><time>2026-04-25T13:46:47Z</time></trkpt><trkpt lat="59.0965299401" lon="30.0238145515"><ele>85.21</ele><time>2026-04-25T13:47:03Z</time></trkpt><trkpt lat="59.0966275055" lon="30.0237913337"><ele>84.73</ele><time>2026-04-25T13:47:20Z</time></trkpt><trkpt lat="59.0966689959" lon="30.0237423833"><ele>84.73</ele><time>2026-04-25T13:47:35Z</time></trkpt><trkpt lat="59.0967343748" lon="30.0236581452"><ele>84.73</ele><time>2026-04-25T13:47:57Z</time></trkpt><trkpt lat="59.0967756975" lon="30.0236950256"><ele>84.25</ele><time>2026-04-25T13:48:13Z</time></trkpt><trkpt lat="59.0968214627" lon="30.0236781780"><ele>84.25</ele><time>2026-04-25T13:48:34Z</time></trkpt><trkpt lat="59.0969083831" lon="30.0237685349"><ele>84.25</ele><time>2026-04-25T13:48:54Z</time></trkpt><trkpt lat="59.0969435032" lon="30.0237227697"><ele>84.25</ele><time>2026-04-25T13:49:09Z</time></trkpt><trkpt lat="59.0970322676" lon="30.0237568002"><ele>84.25</ele><time>2026-04-25T13:49:29Z</time></trkpt><trkpt lat="59.0970890969" lon="30.0237883162"><ele>84.25</ele><time>2026-04-25T13:49:41Z</time></trkpt><trkpt lat="59.0971035976" lon="30.0237954408"><ele>80.89</ele><time>2026-04-25T13:49:49Z</time></trkpt><trkpt lat="59.0971017536" lon="30.0237970334"><ele>84.25</ele><time>2026-04-25T13:49:50Z</time></trkpt><trkpt lat="59.0971020050" lon="30.0238072593"><ele>82.33</ele><time>2026-04-25T13:49:57Z</time></trkpt><trkpt lat="59.0971043520" lon="30.0238174014"><ele>84.25</ele><time>2026-04-25T13:49:59Z</time></trkpt><trkpt lat="59.0971736703" lon="30.0237178244"><ele>84.25</ele><time>2026-04-25T13:50:17Z</time></trkpt><trkpt lat="59.0972356964" lon="30.0236879848"><ele>84.25</ele><time>2026-04-25T13:50:32Z</time></trkpt><trkpt lat="59.0972638596" lon="30.0236745737"><ele>79.93</ele><time>2026-04-25T13:50:44Z</time></trkpt><trkpt lat="59.0972486045" lon="30.0236630067"><ele>83.77</ele><time>2026-04-25T13:50:45Z</time></trkpt><trkpt lat="59.0972337686" lon="30.0236264616"><ele>84.25</ele><time>2026-04-25T13:50:51Z</time></trkpt><trkpt lat="59.0973092895" lon="30.0235867314"><ele>84.25</ele><time>2026-04-25T13:51:07Z</time></trkpt><trkpt lat="59.0973855648" lon="30.0235945266"><ele>83.29</ele><time>2026-04-25T13:51:21Z</time></trkpt><trkpt lat="59.0974118002" lon="30.0235540420"><ele>84.25</ele><time>2026-04-25T13:51:43Z</time></trkpt><trkpt lat="59.0974242892" lon="30.0235561375"><ele>79.45</ele><time>2026-04-25T13:51:47Z</time></trkpt><trkpt lat="59.0974282287" lon="30.0235537067"><ele>80.41</ele><time>2026-04-25T13:51:48Z</time></trkpt><trkpt lat="59.0974309947" lon="30.0235528685"><ele>84.73</ele><time>2026-04-25T13:51:49Z</time></trkpt><trkpt lat="59.0974294022" lon="30.0235522818"><ele>84.73</ele><time>2026-04-25T13:51:50Z</time></trkpt><trkpt lat="59.0974399634" lon="30.0235721469"><ele>83.77</ele><time>2026-04-25T13:52:12Z</time></trkpt><trkpt lat="59.0974739101" lon="30.0235413015"><ele>76.08</ele><time>2026-04-25T13:52:23Z</time></trkpt><trkpt lat="59.0974656120" lon="30.0235316623"><ele>82.81</ele><time>2026-04-25T13:52:24Z</time></trkpt><trkpt lat="59.0974942781" lon="30.0235586520"><ele>83.77</ele><time>2026-04-25T13:52:41Z</time></trkpt><trkpt lat="59.0975687094" lon="30.0236570556"><ele>83.29</ele><time>2026-04-25T13:53:20Z</time></trkpt><trkpt lat="59.0975640994" lon="30.0235232804"><ele>81.85</ele><time>2026-04-25T13:53:34Z</time></trkpt><trkpt lat="59.0975910891" lon="30.0234511122"><ele>83.29</ele><time>2026-04-25T13:53:53Z</time></trkpt><trkpt lat="59.0976363514" lon="30.0233938638"><ele>83.77</ele><time>2026-04-25T13:54:11Z</time></trkpt><trkpt lat="59.0976755787" lon="30.0233107153"><ele>83.77</ele><time>2026-04-25T13:54:31Z</time></trkpt><trkpt lat="59.0976945218" lon="30.0233217794"><ele>84.25</ele><time>2026-04-25T13:54:48Z</time></trkpt><trkpt lat="59.0977526922" lon="30.0232996512"><ele>84.25</ele><time>2026-04-25T13:55:08Z</time></trkpt><trkpt lat="59.0977691207" lon="30.0233434048"><ele>80.89</ele><time>2026-04-25T13:55:15Z</time></trkpt><trkpt lat="59.0977624152" lon="30.0233610068"><ele>80.89</ele><time>2026-04-25T13:55:16Z</time></trkpt><trkpt lat="59.0977606550" lon="30.0233476795"><ele>84.73</ele><time>2026-04-25T13:55:20Z</time></trkpt><trkpt lat="59.0977656841" lon="30.0233262219"><ele>84.73</ele><time>2026-04-25T13:55:21Z</time></trkpt><trkpt lat="59.0977723058" lon="30.0233025011"><ele>82.81</ele><time>2026-04-25T13:55:24Z</time></trkpt><trkpt lat="59.0978111979" lon="30.0232509524"><ele>82.81</ele><time>2026-04-25T13:55:52Z</time></trkpt><trkpt lat="59.0978491679" lon="30.0232074503"><ele>82.81</ele><time>2026-04-25T13:56:08Z</time></trkpt><trkpt lat="59.0979021415" lon="30.0231116451"><ele>82.81</ele><time>2026-04-25T13:56:25Z</time></trkpt><trkpt lat="59.0979558695" lon="30.0230496190"><ele>83.29</ele><time>2026-04-25T13:56:43Z</time></trkpt><trkpt lat="59.0980100166" lon="30.0229525566"><ele>83.77</ele><time>2026-04-25T13:57:02Z</time></trkpt><trkpt lat="59.0980662592" lon="30.0228006765"><ele>84.25</ele><time>2026-04-25T13:57:20Z</time></trkpt><trkpt lat="59.0981556941" lon="30.0227071345"><ele>84.25</ele><time>2026-04-25T13:57:35Z</time></trkpt><trkpt lat="59.0982149541" lon="30.0226381514"><ele>84.25</ele><time>2026-04-25T13:57:52Z</time></trkpt><trkpt lat="59.0982826799" lon="30.0225496385"><ele>84.73</ele><time>2026-04-25T13:58:09Z</time></trkpt><trkpt lat="59.0983272716" lon="30.0223031268"><ele>84.25</ele><time>2026-04-25T13:58:26Z</time></trkpt><trkpt lat="59.0983715281" lon="30.0222395081"><ele>81.85</ele><time>2026-04-25T13:58:34Z</time></trkpt><trkpt lat="59.0983997751" lon="30.0220819283"><ele>83.77</ele><time>2026-04-25T13:58:49Z</time></trkpt><trkpt lat="59.0983483940" lon="30.0218588859"><ele>83.77</ele><time>2026-04-25T13:59:04Z</time></trkpt><trkpt lat="59.0983503219" lon="30.0218064990"><ele>82.33</ele><time>2026-04-25T13:59:26Z</time></trkpt><trkpt lat="59.0983520821" lon="30.0218083430"><ele>73.20</ele><time>2026-04-25T13:59:28Z</time></trkpt><trkpt lat="59.0983523335" lon="30.0218083430"><ele>71.76</ele><time>2026-04-25T13:59:30Z</time></trkpt><trkpt lat="59.0983456280" lon="30.0218129531"><ele>67.43</ele><time>2026-04-25T13:59:32Z</time></trkpt><trkpt lat="59.0983391739" lon="30.0218154676"><ele>68.39</ele><time>2026-04-25T13:59:33Z</time></trkpt><trkpt lat="59.0983267687" lon="30.0218121987"><ele>71.27</ele><time>2026-04-25T13:59:36Z</time></trkpt><trkpt lat="59.0983217396" lon="30.0218111090"><ele>72.72</ele><time>2026-04-25T13:59:38Z</time></trkpt><trkpt lat="59.0983245894" lon="30.0218919106"><ele>76.56</ele><time>2026-04-25T13:59:51Z</time></trkpt><trkpt lat="59.0983449575" lon="30.0219220016"><ele>78.48</ele><time>2026-04-25T14:00:00Z</time></trkpt><trkpt lat="59.0983974282" lon="30.0218681898"><ele>79.45</ele><time>2026-04-25T14:00:27Z</time></trkpt><trkpt lat="59.0983260982" lon="30.0218106899"><ele>79.45</ele><time>2026-04-25T14:00:54Z</time></trkpt><trkpt lat="59.0983086638" lon="30.0218302198"><ele>77.52</ele><time>2026-04-25T14:01:10Z</time></trkpt><trkpt lat="59.0983043052" lon="30.0218166411"><ele>80.89</ele><time>2026-04-25T14:01:15Z</time></trkpt><trkpt lat="59.0983043890" lon="30.0218158867"><ele>79.93</ele><time>2026-04-25T14:01:16Z</time></trkpt><trkpt lat="59.0983288642" lon="30.0218451396"><ele>75.12</ele><time>2026-04-25T14:01:33Z</time></trkpt><trkpt lat="59.0983300377" lon="30.0218315609"><ele>76.56</ele><time>2026-04-25T14:01:34Z</time></trkpt><trkpt lat="59.0983106755" lon="30.0217522681"><ele>81.37</ele><time>2026-04-25T14:02:05Z</time></trkpt><trkpt lat="59.0983135253" lon="30.0217102747"><ele>83.29</ele><time>2026-04-25T14:02:11Z</time></trkpt><trkpt lat="59.0983198956" lon="30.0216647610"><ele>79.93</ele><time>2026-04-25T14:02:17Z</time></trkpt><trkpt lat="59.0983185545" lon="30.0216662697"><ele>71.27</ele><time>2026-04-25T14:02:18Z</time></trkpt><trkpt lat="59.0983203985" lon="30.0216870569"><ele>68.39</ele><time>2026-04-25T14:02:19Z</time></trkpt><trkpt lat="59.0983191412" lon="30.0216835365"><ele>88.58</ele><time>2026-04-25T14:02:20Z</time></trkpt><trkpt lat="59.0983159561" lon="30.0216826983"><ele>88.58</ele><time>2026-04-25T14:02:21Z</time></trkpt><trkpt lat="59.0983726177" lon="30.0215998013"><ele>85.69</ele><time>2026-04-25T14:02:38Z</time></trkpt><trkpt lat="59.0983032994" lon="30.0214683730"><ele>84.25</ele><time>2026-04-25T14:02:55Z</time></trkpt><trkpt lat="59.0982768126" lon="30.0213542115"><ele>83.29</ele><time>2026-04-25T14:03:14Z</time></trkpt><trkpt lat="59.0982480627" lon="30.0211986434"><ele>83.29</ele><time>2026-04-25T14:03:30Z</time></trkpt><trkpt lat="59.0982209053" lon="30.0212138146"><ele>80.89</ele><time>2026-04-25T14:03:32Z</time></trkpt><trkpt lat="59.0982186422" lon="30.0212021638"><ele>79.45</ele><time>2026-04-25T14:03:40Z</time></trkpt><trkpt lat="59.0982194804" lon="30.0211678818"><ele>82.33</ele><time>2026-04-25T14:03:42Z</time></trkpt><trkpt lat="59.0982174687" lon="30.0211619306"><ele>81.85</ele><time>2026-04-25T14:03:43Z</time></trkpt><trkpt lat="59.0982171334" lon="30.0211620983"><ele>80.89</ele><time>2026-04-25T14:03:45Z</time></trkpt><trkpt lat="59.0982113499" lon="30.0211468432"><ele>82.33</ele><time>2026-04-25T14:04:09Z</time></trkpt><trkpt lat="59.0982406866" lon="30.0209167600"><ele>81.85</ele><time>2026-04-25T14:04:27Z</time></trkpt><trkpt lat="59.0982617252" lon="30.0209391396"><ele>81.37</ele><time>2026-04-25T14:04:45Z</time></trkpt><trkpt lat="59.0983099211" lon="30.0209687278"><ele>81.85</ele><time>2026-04-25T14:05:02Z</time></trkpt><trkpt lat="59.0982970968" lon="30.0206958968"><ele>82.33</ele><time>2026-04-25T14:05:19Z</time></trkpt><trkpt lat="59.0982616413" lon="30.0204840023"><ele>83.77</ele><time>2026-04-25T14:05:35Z</time></trkpt><trkpt lat="59.0982253477" lon="30.0202509854"><ele>84.25</ele><time>2026-04-25T14:05:51Z</time></trkpt><trkpt lat="59.0981604718" lon="30.0199149549"><ele>84.73</ele><time>2026-04-25T14:06:08Z</time></trkpt><trkpt lat="59.0980719589" lon="30.0196463987"><ele>85.69</ele><time>2026-04-25T14:06:25Z</time></trkpt><trkpt lat="59.0980584640" lon="30.0194090232"><ele>85.69</ele><time>2026-04-25T14:06:40Z</time></trkpt><trkpt lat="59.0980642475" lon="30.0192705542"><ele>86.18</ele><time>2026-04-25T14:06:56Z</time></trkpt><trkpt lat="59.0980000421" lon="30.0190710649"><ele>85.69</ele><time>2026-04-25T14:07:11Z</time></trkpt><trkpt lat="59.0979760699" lon="30.0188742578"><ele>85.21</ele><time>2026-04-25T14:07:28Z</time></trkpt><trkpt lat="59.0979391057" lon="30.0186798815"><ele>85.21</ele><time>2026-04-25T14:07:44Z</time></trkpt><trkpt lat="59.0979155526" lon="30.0184488762"><ele>85.21</ele><time>2026-04-25T14:07:59Z</time></trkpt><trkpt lat="59.0978876408" lon="30.0182306953"><ele>85.21</ele><time>2026-04-25T14:08:15Z</time></trkpt><trkpt lat="59.0978312306" lon="30.0180020370"><ele>85.21</ele><time>2026-04-25T14:08:29Z</time></trkpt><trkpt lat="59.0977830347" lon="30.0177676789"><ele>85.21</ele><time>2026-04-25T14:08:44Z</time></trkpt><trkpt lat="59.0977563802" lon="30.0176754780"><ele>85.21</ele><time>2026-04-25T14:08:59Z</time></trkpt><trkpt lat="59.0977430530" lon="30.0175092649"><ele>84.73</ele><time>2026-04-25T14:09:12Z</time></trkpt><trkpt lat="59.0976977907" lon="30.0172992144"><ele>84.73</ele><time>2026-04-25T14:09:28Z</time></trkpt><trkpt lat="59.0976543725" lon="30.0170847215"><ele>84.73</ele><time>2026-04-25T14:09:42Z</time></trkpt><trkpt lat="59.0976382792" lon="30.0168597512"><ele>84.73</ele><time>2026-04-25T14:09:55Z</time></trkpt><trkpt lat="59.0975787677" lon="30.0166009180"><ele>84.25</ele><time>2026-04-25T14:10:09Z</time></trkpt><trkpt lat="59.0975158196" lon="30.0164023507"><ele>84.73</ele><time>2026-04-25T14:10:21Z</time></trkpt><trkpt lat="59.0974724013" lon="30.0161129236"><ele>84.73</ele><time>2026-04-25T14:10:37Z</time></trkpt><trkpt lat="59.0974453278" lon="30.0158733688"><ele>85.21</ele><time>2026-04-25T14:10:52Z</time></trkpt><trkpt lat="59.0973798651" lon="30.0156872068"><ele>84.73</ele><time>2026-04-25T14:11:06Z</time></trkpt><trkpt lat="59.0973522887" lon="30.0154225063"><ele>85.69</ele><time>2026-04-25T14:11:19Z</time></trkpt><trkpt lat="59.0973088704" lon="30.0152061693"><ele>85.21</ele><time>2026-04-25T14:11:32Z</time></trkpt><trkpt lat="59.0972859878" lon="30.0149989687"><ele>85.21</ele><time>2026-04-25T14:11:47Z</time></trkpt><trkpt lat="59.0972565673" lon="30.0148082804"><ele>85.21</ele><time>2026-04-25T14:11:59Z</time></trkpt><trkpt lat="59.0971761849" lon="30.0145898480"><ele>85.21</ele><time>2026-04-25T14:12:13Z</time></trkpt><trkpt lat="59.0971140750" lon="30.0142860878"><ele>84.73</ele><time>2026-04-25T14:12:30Z</time></trkpt><trkpt lat="59.0970686451" lon="30.0140772108"><ele>85.69</ele><time>2026-04-25T14:12:40Z</time></trkpt><trkpt lat="59.0970449243" lon="30.0137980934"><ele>85.69</ele><time>2026-04-25T14:12:53Z</time></trkpt><trkpt lat="59.0970103070" lon="30.0135872047"><ele>85.69</ele><time>2026-04-25T14:13:06Z</time></trkpt><trkpt lat="59.0969639551" lon="30.0133381784"><ele>85.69</ele><time>2026-04-25T14:13:20Z</time></trkpt><trkpt lat="59.0968663059" lon="30.0130176544"><ele>85.69</ele><time>2026-04-25T14:13:36Z</time></trkpt><trkpt lat="59.0968059562" lon="30.0126607530"><ele>85.69</ele><time>2026-04-25T14:13:52Z</time></trkpt><trkpt lat="59.0967577603" lon="30.0123332720"><ele>85.69</ele><time>2026-04-25T14:14:09Z</time></trkpt><trkpt lat="59.0967487916" lon="30.0122620258"><ele>85.69</ele><time>2026-04-25T14:14:12Z</time></trkpt><trkpt lat="59.0967030264" lon="30.0119860936"><ele>85.69</ele><time>2026-04-25T14:14:26Z</time></trkpt><trkpt lat="59.0966580156" lon="30.0116928108"><ele>85.69</ele><time>2026-04-25T14:14:41Z</time></trkpt><trkpt lat="59.0966018569" lon="30.0114934891"><ele>85.69</ele><time>2026-04-25T14:14:51Z</time></trkpt><trkpt lat="59.0965782199" lon="30.0113912299"><ele>85.69</ele><time>2026-04-25T14:14:56Z</time></trkpt><trkpt lat="59.0965073090" lon="30.0109888148"><ele>85.21</ele><time>2026-04-25T14:15:15Z</time></trkpt><trkpt lat="59.0964866895" lon="30.0107096136"><ele>85.21</ele><time>2026-04-25T14:15:27Z</time></trkpt><trkpt lat="59.0964339674" lon="30.0104180910"><ele>85.21</ele><time>2026-04-25T14:15:41Z</time></trkpt><trkpt lat="59.0963741206" lon="30.0101291668"><ele>85.21</ele><time>2026-04-25T14:15:56Z</time></trkpt><trkpt lat="59.0963219013" lon="30.0098494627"><ele>84.73</ele><time>2026-04-25T14:16:10Z</time></trkpt><trkpt lat="59.0962561872" lon="30.0095035415"><ele>85.21</ele><time>2026-04-25T14:16:26Z</time></trkpt><trkpt lat="59.0961961728" lon="30.0092079118"><ele>84.73</ele><time>2026-04-25T14:16:40Z</time></trkpt><trkpt lat="59.0961455461" lon="30.0088641699"><ele>84.25</ele><time>2026-04-25T14:16:57Z</time></trkpt><trkpt lat="59.0960981883" lon="30.0085394550"><ele>84.25</ele><time>2026-04-25T14:17:13Z</time></trkpt><trkpt lat="59.0960350726" lon="30.0081370398"><ele>83.77</ele><time>2026-04-25T14:17:31Z</time></trkpt><trkpt lat="59.0959776565" lon="30.0078447629"><ele>83.29</ele><time>2026-04-25T14:17:45Z</time></trkpt><trkpt lat="59.0959733818" lon="30.0078277476"><ele>83.29</ele><time>2026-04-25T14:17:46Z</time></trkpt><trkpt lat="59.0959311370" lon="30.0075649749"><ele>83.29</ele><time>2026-04-25T14:18:00Z</time></trkpt><trkpt lat="59.0959191509" lon="30.0074989256"><ele>83.29</ele><time>2026-04-25T14:18:04Z</time></trkpt><trkpt lat="59.0958778281" lon="30.0072013680"><ele>83.29</ele><time>2026-04-25T14:18:19Z</time></trkpt><trkpt lat="59.0958245192" lon="30.0068956800"><ele>82.81</ele><time>2026-04-25T14:18:35Z</time></trkpt><trkpt lat="59.0958114434" lon="30.0068240147"><ele>83.29</ele><time>2026-04-25T14:18:39Z</time></trkpt><trkpt lat="59.0957396943" lon="30.0065319054"><ele>82.81</ele><time>2026-04-25T14:18:54Z</time></trkpt><trkpt lat="59.0957146324" lon="30.0063345116"><ele>82.81</ele><time>2026-04-25T14:19:03Z</time></trkpt><trkpt lat="59.0956555400" lon="30.0060063601"><ele>82.33</ele><time>2026-04-25T14:19:20Z</time></trkpt><trkpt lat="59.0955990460" lon="30.0056975707"><ele>82.33</ele><time>2026-04-25T14:19:34Z</time></trkpt><trkpt lat="59.0955464914" lon="30.0053965766"><ele>81.85</ele><time>2026-04-25T14:19:49Z</time></trkpt><trkpt lat="59.0955118742" lon="30.0051172916"><ele>81.85</ele><time>2026-04-25T14:20:02Z</time></trkpt><trkpt lat="59.0954672825" lon="30.0049244240"><ele>81.37</ele><time>2026-04-25T14:20:12Z</time></trkpt><trkpt lat="59.0954556316" lon="30.0047630724"><ele>81.85</ele><time>2026-04-25T14:20:19Z</time></trkpt><trkpt lat="59.0953982156" lon="30.0045192428"><ele>81.37</ele><time>2026-04-25T14:20:32Z</time></trkpt><trkpt lat="59.0953791887" lon="30.0042956136"><ele>81.37</ele><time>2026-04-25T14:20:43Z</time></trkpt><trkpt lat="59.0953191742" lon="30.0039183442"><ele>80.89</ele><time>2026-04-25T14:21:00Z</time></trkpt><trkpt lat="59.0952869877" lon="30.0036196131"><ele>80.89</ele><time>2026-04-25T14:21:14Z</time></trkpt><trkpt lat="59.0952843893" lon="30.0035689864"><ele>80.89</ele><time>2026-04-25T14:21:16Z</time></trkpt><trkpt lat="59.0952321701" lon="30.0032736082"><ele>80.41</ele><time>2026-04-25T14:21:31Z</time></trkpt><trkpt lat="59.0952052642" lon="30.0031006057"><ele>80.41</ele><time>2026-04-25T14:21:40Z</time></trkpt><trkpt lat="59.0951582417" lon="30.0028007012"><ele>80.41</ele><time>2026-04-25T14:21:55Z</time></trkpt><trkpt lat="59.0951403044" lon="30.0026085041"><ele>79.93</ele><time>2026-04-25T14:22:06Z</time></trkpt><trkpt lat="59.0950989816" lon="30.0024845358"><ele>79.45</ele><time>2026-04-25T14:22:14Z</time></trkpt><trkpt lat="59.0950163361" lon="30.0022166502"><ele>79.45</ele><time>2026-04-25T14:22:27Z</time></trkpt><trkpt lat="59.0949657094" lon="30.0018631853"><ele>79.45</ele><time>2026-04-25T14:22:42Z</time></trkpt><trkpt lat="59.0948921163" lon="30.0016509555"><ele>79.45</ele><time>2026-04-25T14:22:54Z</time></trkpt><trkpt lat="59.0948850755" lon="30.0015097205"><ele>79.45</ele><time>2026-04-25T14:23:04Z</time></trkpt><trkpt lat="59.0948642883" lon="30.0013941340"><ele>79.93</ele><time>2026-04-25T14:23:09Z</time></trkpt><trkpt lat="59.0948497038" lon="30.0012981612"><ele>79.45</ele><time>2026-04-25T14:23:13Z</time></trkpt><trkpt lat="59.0948363766" lon="30.0010721851"><ele>79.45</ele><time>2026-04-25T14:23:23Z</time></trkpt><trkpt lat="59.0948197804" lon="30.0009395834"><ele>79.93</ele><time>2026-04-25T14:23:30Z</time></trkpt><trkpt lat="59.0947816428" lon="30.0006965920"><ele>79.93</ele><time>2026-04-25T14:23:42Z</time></trkpt><trkpt lat="59.0947533119" lon="30.0005865376"><ele>79.93</ele><time>2026-04-25T14:23:47Z</time></trkpt><trkpt lat="59.0946708340" lon="30.0002759043"><ele>79.93</ele><time>2026-04-25T14:24:02Z</time></trkpt><trkpt lat="59.0946294274" lon="29.9999368563"><ele>80.41</ele><time>2026-04-25T14:24:16Z</time></trkpt><trkpt lat="59.0946295112" lon="29.9999145605"><ele>80.41</ele><time>2026-04-25T14:24:17Z</time></trkpt><trkpt lat="59.0946014319" lon="29.9998373631"><ele>80.41</ele><time>2026-04-25T14:24:21Z</time></trkpt><trkpt lat="59.0945654735" lon="29.9996242952"><ele>80.41</ele><time>2026-04-25T14:24:30Z</time></trkpt><trkpt lat="59.0945052076" lon="29.9993810523"><ele>80.89</ele><time>2026-04-25T14:24:42Z</time></trkpt><trkpt lat="59.0945029445" lon="29.9993392266"><ele>80.41</ele><time>2026-04-25T14:24:44Z</time></trkpt><trkpt lat="59.0944819897" lon="29.9990363047"><ele>80.41</ele><time>2026-04-25T14:24:58Z</time></trkpt><trkpt lat="59.0944428463" lon="29.9989206344"><ele>80.41</ele><time>2026-04-25T14:25:08Z</time></trkpt><trkpt lat="59.0943676606" lon="29.9985747132"><ele>80.89</ele><time>2026-04-25T14:25:24Z</time></trkpt><trkpt lat="59.0943039581" lon="29.9982562847"><ele>80.41</ele><time>2026-04-25T14:25:39Z</time></trkpt><trkpt lat="59.0942483023" lon="29.9979739822"><ele>80.41</ele><time>2026-04-25T14:25:53Z</time></trkpt><trkpt lat="59.0942476317" lon="29.9979505129"><ele>80.41</ele><time>2026-04-25T14:25:54Z</time></trkpt><trkpt lat="59.0942005254" lon="29.9975707289"><ele>80.41</ele><time>2026-04-25T14:26:11Z</time></trkpt><trkpt lat="59.0941602085" lon="29.9972992390"><ele>80.41</ele><time>2026-04-25T14:26:24Z</time></trkpt><trkpt lat="59.0941524133" lon="29.9971455988"><ele>80.41</ele><time>2026-04-25T14:26:30Z</time></trkpt><trkpt lat="59.0941333864" lon="29.9970319401"><ele>80.41</ele><time>2026-04-25T14:26:35Z</time></trkpt><trkpt lat="59.0940825921" lon="29.9966708478"><ele>79.93</ele><time>2026-04-25T14:26:50Z</time></trkpt><trkpt lat="59.0940778144" lon="29.9966517370"><ele>80.41</ele><time>2026-04-25T14:26:51Z</time></trkpt><trkpt lat="59.0939639881" lon="29.9962679297"><ele>79.93</ele><time>2026-04-25T14:27:08Z</time></trkpt><trkpt lat="59.0939243417" lon="29.9959953502"><ele>79.93</ele><time>2026-04-25T14:27:20Z</time></trkpt><trkpt lat="59.0938806720" lon="29.9957429711"><ele>79.93</ele><time>2026-04-25T14:27:32Z</time></trkpt><trkpt lat="59.0938698594" lon="29.9956801068"><ele>79.93</ele><time>2026-04-25T14:27:35Z</time></trkpt><trkpt lat="59.0938332304" lon="29.9955050088"><ele>79.93</ele><time>2026-04-25T14:27:43Z</time></trkpt><trkpt lat="59.0937894769" lon="29.9952844810"><ele>79.93</ele><time>2026-04-25T14:27:55Z</time></trkpt><trkpt lat="59.0937542729" lon="29.9951427430"><ele>79.93</ele><time>2026-04-25T14:28:01Z</time></trkpt><trkpt lat="59.0937184822" lon="29.9949730095"><ele>79.93</ele><time>2026-04-25T14:28:08Z</time></trkpt><trkpt lat="59.0936584678" lon="29.9946734402"><ele>79.45</ele><time>2026-04-25T14:28:22Z</time></trkpt><trkpt lat="59.0936381835" lon="29.9944801535"><ele>79.93</ele><time>2026-04-25T14:28:31Z</time></trkpt><trkpt lat="59.0936463978" lon="29.9944116734"><ele>79.93</ele><time>2026-04-25T14:28:34Z</time></trkpt><trkpt lat="59.0936562046" lon="29.9943488091"><ele>79.93</ele><time>2026-04-25T14:28:37Z</time></trkpt><trkpt lat="59.0936308913" lon="29.9940464739"><ele>79.45</ele><time>2026-04-25T14:28:50Z</time></trkpt><trkpt lat="59.0935624950" lon="29.9937458988"><ele>79.45</ele><time>2026-04-25T14:29:05Z</time></trkpt><trkpt lat="59.0935579687" lon="29.9937354214"><ele>79.45</ele><time>2026-04-25T14:29:06Z</time></trkpt><trkpt lat="59.0935268719" lon="29.9936475791"><ele>79.45</ele><time>2026-04-25T14:29:11Z</time></trkpt><trkpt lat="59.0935119521" lon="29.9935921747"><ele>79.45</ele><time>2026-04-25T14:29:14Z</time></trkpt><trkpt lat="59.0934829507" lon="29.9934754148"><ele>79.93</ele><time>2026-04-25T14:29:20Z</time></trkpt><trkpt lat="59.0934712160" lon="29.9934407976"><ele>79.45</ele><time>2026-04-25T14:29:22Z</time></trkpt><trkpt lat="59.0934033226" lon="29.9931776058"><ele>79.45</ele><time>2026-04-25T14:29:34Z</time></trkpt><trkpt lat="59.0933884028" lon="29.9930734187"><ele>76.56</ele><time>2026-04-25T14:29:38Z</time></trkpt><trkpt lat="59.0933818650" lon="29.9929276574"><ele>79.45</ele><time>2026-04-25T14:29:43Z</time></trkpt><trkpt lat="59.0933223534" lon="29.9926573411"><ele>77.04</ele><time>2026-04-25T14:29:59Z</time></trkpt><trkpt lat="59.0933143068" lon="29.9926194549"><ele>77.04</ele><time>2026-04-25T14:30:01Z</time></trkpt><trkpt lat="59.0932690445" lon="29.9924527388"><ele>77.04</ele><time>2026-04-25T14:30:10Z</time></trkpt><trkpt lat="59.0932447370" lon="29.9923811574"><ele>77.04</ele><time>2026-04-25T14:30:14Z</time></trkpt><trkpt lat="59.0932273865" lon="29.9923364818"><ele>77.04</ele><time>2026-04-25T14:30:17Z</time></trkpt><trkpt lat="59.0931822080" lon="29.9922027066"><ele>77.04</ele><time>2026-04-25T14:30:24Z</time></trkpt><trkpt lat="59.0931708924" lon="29.9921493139"><ele>77.04</ele><time>2026-04-25T14:30:26Z</time></trkpt><trkpt lat="59.0931224450" lon="29.9917453900"><ele>77.52</ele><time>2026-04-25T14:30:43Z</time></trkpt><trkpt lat="59.0930713154" lon="29.9915019795"><ele>78.00</ele><time>2026-04-25T14:30:55Z</time></trkpt><trkpt lat="59.0929991473" lon="29.9911892507"><ele>78.00</ele><time>2026-04-25T14:31:10Z</time></trkpt><trkpt lat="59.0929620992" lon="29.9909589160"><ele>78.48</ele><time>2026-04-25T14:31:23Z</time></trkpt><trkpt lat="59.0928544756" lon="29.9906938802"><ele>78.97</ele><time>2026-04-25T14:31:36Z</time></trkpt><trkpt lat="59.0928028431" lon="29.9904448539"><ele>78.97</ele><time>2026-04-25T14:31:51Z</time></trkpt><trkpt lat="59.0928004123" lon="29.9899809156"><ele>79.45</ele><time>2026-04-25T14:32:05Z</time></trkpt><trkpt lat="59.0927614365" lon="29.9898115173"><ele>79.45</ele><time>2026-04-25T14:32:13Z</time></trkpt><trkpt lat="59.0927242208" lon="29.9896134529"><ele>79.45</ele><time>2026-04-25T14:32:22Z</time></trkpt><trkpt lat="59.0926970635" lon="29.9892515223"><ele>79.45</ele><time>2026-04-25T14:32:38Z</time></trkpt><trkpt lat="59.0926667210" lon="29.9889202695"><ele>79.45</ele><time>2026-04-25T14:32:52Z</time></trkpt><trkpt lat="59.0925732628" lon="29.9886125699"><ele>79.45</ele><time>2026-04-25T14:33:07Z</time></trkpt><trkpt lat="59.0925373882" lon="29.9884054530"><ele>79.45</ele><time>2026-04-25T14:33:22Z</time></trkpt><trkpt lat="59.0925470274" lon="29.9883948080"><ele>78.48</ele><time>2026-04-25T14:33:38Z</time></trkpt><trkpt lat="59.0925493743" lon="29.9883924611"><ele>78.48</ele><time>2026-04-25T14:33:54Z</time></trkpt><trkpt lat="59.0925693233" lon="29.9883509707"><ele>78.48</ele><time>2026-04-25T14:34:07Z</time></trkpt><trkpt lat="59.0925737657" lon="29.9883701652"><ele>78.00</ele><time>2026-04-25T14:34:23Z</time></trkpt><trkpt lat="59.0925756935" lon="29.9883482885"><ele>78.00</ele><time>2026-04-25T14:34:39Z</time></trkpt><trkpt lat="59.0925876796" lon="29.9883576762"><ele>78.00</ele><time>2026-04-25T14:34:58Z</time></trkpt><trkpt lat="59.0925886016" lon="29.9883560836"><ele>78.00</ele><time>2026-04-25T14:35:15Z</time></trkpt><trkpt lat="59.0925808903" lon="29.9883417506"><ele>77.52</ele><time>2026-04-25T14:35:34Z</time></trkpt><trkpt lat="59.0925732628" lon="29.9883814808"><ele>77.52</ele><time>2026-04-25T14:35:49Z</time></trkpt><trkpt lat="59.0925978217" lon="29.9883862585"><ele>76.56</ele><time>2026-04-25T14:36:15Z</time></trkpt><trkpt lat="59.0926090535" lon="29.9883570895"><ele>77.04</ele><time>2026-04-25T14:36:37Z</time></trkpt><trkpt lat="59.0925981570" lon="29.9883524794"><ele>76.56</ele><time>2026-04-25T14:36:59Z</time></trkpt><trkpt lat="59.0925857518" lon="29.9883279204"><ele>76.56</ele><time>2026-04-25T14:37:18Z</time></trkpt><trkpt lat="59.0925916191" lon="29.9883535691"><ele>76.08</ele><time>2026-04-25T14:37:35Z</time></trkpt><trkpt lat="59.0925776213" lon="29.9883560836"><ele>76.08</ele><time>2026-04-25T14:37:49Z</time></trkpt><trkpt lat="59.0925787948" lon="29.9883596040"><ele>76.56</ele><time>2026-04-25T14:38:07Z</time></trkpt><trkpt lat="59.0925825667" lon="29.9883782119"><ele>76.08</ele><time>2026-04-25T14:38:21Z</time></trkpt><trkpt lat="59.0925855003" lon="29.9883561675"><ele>75.60</ele><time>2026-04-25T14:38:39Z</time></trkpt><trkpt lat="59.0925883502" lon="29.9883805588"><ele>76.08</ele><time>2026-04-25T14:39:02Z</time></trkpt><trkpt lat="59.0925807226" lon="29.9884085543"><ele>76.08</ele><time>2026-04-25T14:39:25Z</time></trkpt><trkpt lat="59.0925678145" lon="29.9883960653"><ele>76.08</ele><time>2026-04-25T14:39:42Z</time></trkpt><trkpt lat="59.0925632045" lon="29.9883888569"><ele>76.08</ele><time>2026-04-25T14:40:02Z</time></trkpt><trkpt lat="59.0925530624" lon="29.9883776251"><ele>76.56</ele><time>2026-04-25T14:40:18Z</time></trkpt><trkpt lat="59.0925431717" lon="29.9883431755"><ele>76.08</ele><time>2026-04-25T14:40:35Z</time></trkpt><trkpt lat="59.0925541520" lon="29.9883554131"><ele>72.24</ele><time>2026-04-25T14:40:48Z</time></trkpt><trkpt lat="59.0925520565" lon="29.9883580953"><ele>72.24</ele><time>2026-04-25T14:40:49Z</time></trkpt><trkpt lat="59.0925466083" lon="29.9883710872"><ele>75.12</ele><time>2026-04-25T14:40:54Z</time></trkpt><trkpt lat="59.0925462730" lon="29.9883695785"><ele>71.27</ele><time>2026-04-25T14:41:02Z</time></trkpt><trkpt lat="59.0925482009" lon="29.9883665610"><ele>69.83</ele><time>2026-04-25T14:41:05Z</time></trkpt><trkpt lat="59.0925462730" lon="29.9883643817"><ele>67.43</ele><time>2026-04-25T14:41:09Z</time></trkpt><trkpt lat="59.0925388131" lon="29.9882897828"><ele>125.11</ele><time>2026-04-25T14:44:20Z</time></trkpt><trkpt lat="59.0925398190" lon="29.9883866776"><ele>121.74</ele><time>2026-04-25T14:44:26Z</time></trkpt><trkpt lat="59.0925544035" lon="29.9883714225"><ele>117.42</ele><time>2026-04-25T14:44:29Z</time></trkpt><trkpt lat="59.0925524756" lon="29.9883808941"><ele>114.53</ele><time>2026-04-25T14:44:31Z</time></trkpt><trkpt lat="59.0925570857" lon="29.9883791339"><ele>111.17</ele><time>2026-04-25T14:44:33Z</time></trkpt><trkpt lat="59.0925610252" lon="29.9883756973"><ele>106.36</ele><time>2026-04-25T14:44:36Z</time></trkpt><trkpt lat="59.0925634559" lon="29.9883679021"><ele>103.96</ele><time>2026-04-25T14:44:39Z</time></trkpt><trkpt lat="59.0925549064" lon="29.9883597717"><ele>100.60</ele><time>2026-04-25T14:44:43Z</time></trkpt><trkpt lat="59.0925546549" lon="29.9883564189"><ele>96.75</ele><time>2026-04-25T14:44:47Z</time></trkpt><trkpt lat="59.0925540682" lon="29.9883534852"><ele>93.87</ele><time>2026-04-25T14:44:51Z</time></trkpt><trkpt lat="59.0925527271" lon="29.9883619510"><ele>90.50</ele><time>2026-04-25T14:44:56Z</time></trkpt><trkpt lat="59.0925524756" lon="29.9883549940"><ele>87.62</ele><time>2026-04-25T14:45:02Z</time></trkpt><trkpt lat="59.0925451834" lon="29.9883621186"><ele>84.25</ele><time>2026-04-25T14:45:10Z</time></trkpt><trkpt lat="59.0925476979" lon="29.9883528147"><ele>80.89</ele><time>2026-04-25T14:45:21Z</time></trkpt></trkseg></trk></gpx>